<?xml version="1.0" encoding="UTF-8" standalone="no" ?>
<gpx xmlns="http://www.topografix.com/GPX/1/1" xmlns:xsi="http://www.w3.org/2001/XMLSchema-instance" xsi:schemaLocation="http://www.topografix.com/GPX/1/1 http://www.topografix.com/GPX/1/1/gpx.xsd" version="1.1" creator="VisuGPX - https://www.visugpx.com">
  <metadata>
    <name>Rosans Montagne des Gravières par Raton Staton Verclause</name>
    <desc><![CDATA[Rosans Montagne des Gravières par Raton Staton Verclause Fait par Lise le WE du 1 et 2 juin 2019]]></desc>
  </metadata>
  <trk>
    <name><![CDATA[Rosans Montagne des Gravières par Raton Staton Verclause]]></name>
    <trkseg>
      <trkpt lat="44.38314" lon="5.45908">
        <ele>597.9</ele>
        <time>2019-06-01T07:19:25Z</time>
      </trkpt>
      <trkpt lat="44.38314" lon="5.45908">
        <ele>597.9</ele>
        <time>2019-06-01T07:19:26Z</time>
      </trkpt>
      <trkpt lat="44.38322" lon="5.45914">
        <ele>600.4</ele>
        <time>2019-06-01T07:33:27Z</time>
      </trkpt>
      <trkpt lat="44.38331" lon="5.45919">
        <ele>600.5</ele>
        <time>2019-06-01T07:33:38Z</time>
      </trkpt>
      <trkpt lat="44.38336" lon="5.45908">
        <ele>601.1</ele>
        <time>2019-06-01T07:33:48Z</time>
      </trkpt>
      <trkpt lat="44.3834" lon="5.45897">
        <ele>601.2</ele>
        <time>2019-06-01T07:33:57Z</time>
      </trkpt>
      <trkpt lat="44.38345" lon="5.45885">
        <ele>601.6</ele>
        <time>2019-06-01T07:34:05Z</time>
      </trkpt>
      <trkpt lat="44.38352" lon="5.45877">
        <ele>601.7</ele>
        <time>2019-06-01T07:34:14Z</time>
      </trkpt>
      <trkpt lat="44.38361" lon="5.45876">
        <ele>601.8</ele>
        <time>2019-06-01T07:34:34Z</time>
      </trkpt>
      <trkpt lat="44.38371" lon="5.45879">
        <ele>601.9</ele>
        <time>2019-06-01T07:34:42Z</time>
      </trkpt>
      <trkpt lat="44.3838" lon="5.45877">
        <ele>601.9</ele>
        <time>2019-06-01T07:34:50Z</time>
      </trkpt>
      <trkpt lat="44.38385" lon="5.45865">
        <ele>602.2</ele>
        <time>2019-06-01T07:35:01Z</time>
      </trkpt>
      <trkpt lat="44.38389" lon="5.45852">
        <ele>602.2</ele>
        <time>2019-06-01T07:35:10Z</time>
      </trkpt>
      <trkpt lat="44.38392" lon="5.45839">
        <ele>602.1</ele>
        <time>2019-06-01T07:35:19Z</time>
      </trkpt>
      <trkpt lat="44.38396" lon="5.45826">
        <ele>602</ele>
        <time>2019-06-01T07:35:28Z</time>
      </trkpt>
      <trkpt lat="44.38398" lon="5.45813">
        <ele>602.2</ele>
        <time>2019-06-01T07:35:36Z</time>
      </trkpt>
      <trkpt lat="44.38402" lon="5.458">
        <ele>602.4</ele>
        <time>2019-06-01T07:35:44Z</time>
      </trkpt>
      <trkpt lat="44.38404" lon="5.45788">
        <ele>602.5</ele>
        <time>2019-06-01T07:35:52Z</time>
      </trkpt>
      <trkpt lat="44.38407" lon="5.45775">
        <ele>602.5</ele>
        <time>2019-06-01T07:36:01Z</time>
      </trkpt>
      <trkpt lat="44.3841" lon="5.45762">
        <ele>602.7</ele>
        <time>2019-06-01T07:36:09Z</time>
      </trkpt>
      <trkpt lat="44.38413" lon="5.4575">
        <ele>602.6</ele>
        <time>2019-06-01T07:36:17Z</time>
      </trkpt>
      <trkpt lat="44.38416" lon="5.45738">
        <ele>602.8</ele>
        <time>2019-06-01T07:36:25Z</time>
      </trkpt>
      <trkpt lat="44.38419" lon="5.45726">
        <ele>603.2</ele>
        <time>2019-06-01T07:36:34Z</time>
      </trkpt>
      <trkpt lat="44.38422" lon="5.45713">
        <ele>603.2</ele>
        <time>2019-06-01T07:36:42Z</time>
      </trkpt>
      <trkpt lat="44.38424" lon="5.45701">
        <ele>603.2</ele>
        <time>2019-06-01T07:36:50Z</time>
      </trkpt>
      <trkpt lat="44.38427" lon="5.45688">
        <ele>603.2</ele>
        <time>2019-06-01T07:36:59Z</time>
      </trkpt>
      <trkpt lat="44.38431" lon="5.45675">
        <ele>603.1</ele>
        <time>2019-06-01T07:37:08Z</time>
      </trkpt>
      <trkpt lat="44.3844" lon="5.45668">
        <ele>603.1</ele>
        <time>2019-06-01T07:37:17Z</time>
      </trkpt>
      <trkpt lat="44.3845" lon="5.45667">
        <ele>603</ele>
        <time>2019-06-01T07:37:25Z</time>
      </trkpt>
      <trkpt lat="44.38459" lon="5.45666">
        <ele>603</ele>
        <time>2019-06-01T07:37:37Z</time>
      </trkpt>
      <trkpt lat="44.38468" lon="5.4567">
        <ele>603</ele>
        <time>2019-06-01T07:37:45Z</time>
      </trkpt>
      <trkpt lat="44.38478" lon="5.45675">
        <ele>603</ele>
        <time>2019-06-01T07:37:54Z</time>
      </trkpt>
      <trkpt lat="44.38486" lon="5.45681">
        <ele>603.1</ele>
        <time>2019-06-01T07:38:02Z</time>
      </trkpt>
      <trkpt lat="44.38493" lon="5.45689">
        <ele>603.5</ele>
        <time>2019-06-01T07:38:11Z</time>
      </trkpt>
      <trkpt lat="44.385" lon="5.45699">
        <ele>603.9</ele>
        <time>2019-06-01T07:38:19Z</time>
      </trkpt>
      <trkpt lat="44.38505" lon="5.45709">
        <ele>604.1</ele>
        <time>2019-06-01T07:38:27Z</time>
      </trkpt>
      <trkpt lat="44.38511" lon="5.45719">
        <ele>604.3</ele>
        <time>2019-06-01T07:38:35Z</time>
      </trkpt>
      <trkpt lat="44.38517" lon="5.45729">
        <ele>604.9</ele>
        <time>2019-06-01T07:38:44Z</time>
      </trkpt>
      <trkpt lat="44.38523" lon="5.4574">
        <ele>605.1</ele>
        <time>2019-06-01T07:38:52Z</time>
      </trkpt>
      <trkpt lat="44.38527" lon="5.45751">
        <ele>605.6</ele>
        <time>2019-06-01T07:39:00Z</time>
      </trkpt>
      <trkpt lat="44.38532" lon="5.45764">
        <ele>605.7</ele>
        <time>2019-06-01T07:39:08Z</time>
      </trkpt>
      <trkpt lat="44.38537" lon="5.45775">
        <ele>605.8</ele>
        <time>2019-06-01T07:39:16Z</time>
      </trkpt>
      <trkpt lat="44.38545" lon="5.45784">
        <ele>606.3</ele>
        <time>2019-06-01T07:39:25Z</time>
      </trkpt>
      <trkpt lat="44.38552" lon="5.45792">
        <ele>606.8</ele>
        <time>2019-06-01T07:39:34Z</time>
      </trkpt>
      <trkpt lat="44.3856" lon="5.458">
        <ele>607.2</ele>
        <time>2019-06-01T07:39:43Z</time>
      </trkpt>
      <trkpt lat="44.38568" lon="5.45808">
        <ele>607.9</ele>
        <time>2019-06-01T07:39:51Z</time>
      </trkpt>
      <trkpt lat="44.38575" lon="5.45816">
        <ele>608.6</ele>
        <time>2019-06-01T07:39:59Z</time>
      </trkpt>
      <trkpt lat="44.38583" lon="5.45824">
        <ele>608.9</ele>
        <time>2019-06-01T07:40:07Z</time>
      </trkpt>
      <trkpt lat="44.38593" lon="5.45824">
        <ele>609.3</ele>
        <time>2019-06-01T07:40:42Z</time>
      </trkpt>
      <trkpt lat="44.38602" lon="5.45831">
        <ele>609.4</ele>
        <time>2019-06-01T07:40:49Z</time>
      </trkpt>
      <trkpt lat="44.3861" lon="5.45839">
        <ele>609.7</ele>
        <time>2019-06-01T07:40:57Z</time>
      </trkpt>
      <trkpt lat="44.38617" lon="5.45848">
        <ele>610.5</ele>
        <time>2019-06-01T07:41:05Z</time>
      </trkpt>
      <trkpt lat="44.38624" lon="5.45858">
        <ele>610.8</ele>
        <time>2019-06-01T07:41:13Z</time>
      </trkpt>
      <trkpt lat="44.3863" lon="5.45869">
        <ele>610.8</ele>
        <time>2019-06-01T07:41:21Z</time>
      </trkpt>
      <trkpt lat="44.38634" lon="5.45881">
        <ele>611.1</ele>
        <time>2019-06-01T07:41:29Z</time>
      </trkpt>
      <trkpt lat="44.38638" lon="5.45893">
        <ele>611.6</ele>
        <time>2019-06-01T07:41:37Z</time>
      </trkpt>
      <trkpt lat="44.38641" lon="5.45905">
        <ele>611.7</ele>
        <time>2019-06-01T07:41:44Z</time>
      </trkpt>
      <trkpt lat="44.38643" lon="5.45919">
        <ele>611.9</ele>
        <time>2019-06-01T07:41:52Z</time>
      </trkpt>
      <trkpt lat="44.38649" lon="5.45931">
        <ele>612.1</ele>
        <time>2019-06-01T07:42:00Z</time>
      </trkpt>
      <trkpt lat="44.38653" lon="5.45942">
        <ele>612.4</ele>
        <time>2019-06-01T07:42:08Z</time>
      </trkpt>
      <trkpt lat="44.38658" lon="5.45954">
        <ele>612.9</ele>
        <time>2019-06-01T07:42:16Z</time>
      </trkpt>
      <trkpt lat="44.38663" lon="5.45966">
        <ele>613.6</ele>
        <time>2019-06-01T07:42:25Z</time>
      </trkpt>
      <trkpt lat="44.38668" lon="5.45977">
        <ele>614.1</ele>
        <time>2019-06-01T07:42:33Z</time>
      </trkpt>
      <trkpt lat="44.38672" lon="5.45989">
        <ele>614.4</ele>
        <time>2019-06-01T07:42:42Z</time>
      </trkpt>
      <trkpt lat="44.38679" lon="5.45999">
        <ele>614.9</ele>
        <time>2019-06-01T07:42:50Z</time>
      </trkpt>
      <trkpt lat="44.38686" lon="5.46008">
        <ele>615.3</ele>
        <time>2019-06-01T07:42:58Z</time>
      </trkpt>
      <trkpt lat="44.38693" lon="5.46016">
        <ele>616</ele>
        <time>2019-06-01T07:43:06Z</time>
      </trkpt>
      <trkpt lat="44.38701" lon="5.46023">
        <ele>617.1</ele>
        <time>2019-06-01T07:43:15Z</time>
      </trkpt>
      <trkpt lat="44.3871" lon="5.46021">
        <ele>618.7</ele>
        <time>2019-06-01T07:46:19Z</time>
      </trkpt>
      <trkpt lat="44.38719" lon="5.46017">
        <ele>618.6</ele>
        <time>2019-06-01T07:46:27Z</time>
      </trkpt>
      <trkpt lat="44.38727" lon="5.4601">
        <ele>618.7</ele>
        <time>2019-06-01T07:46:34Z</time>
      </trkpt>
      <trkpt lat="44.38735" lon="5.46002">
        <ele>619</ele>
        <time>2019-06-01T07:46:43Z</time>
      </trkpt>
      <trkpt lat="44.38743" lon="5.45995">
        <ele>619.3</ele>
        <time>2019-06-01T07:46:51Z</time>
      </trkpt>
      <trkpt lat="44.38751" lon="5.45987">
        <ele>619.2</ele>
        <time>2019-06-01T07:46:59Z</time>
      </trkpt>
      <trkpt lat="44.38757" lon="5.45976">
        <ele>619.1</ele>
        <time>2019-06-01T07:47:09Z</time>
      </trkpt>
      <trkpt lat="44.38755" lon="5.45963">
        <ele>619.5</ele>
        <time>2019-06-01T07:47:24Z</time>
      </trkpt>
      <trkpt lat="44.38756" lon="5.45949">
        <ele>619.2</ele>
        <time>2019-06-01T07:47:33Z</time>
      </trkpt>
      <trkpt lat="44.38759" lon="5.45936">
        <ele>618.8</ele>
        <time>2019-06-01T07:47:41Z</time>
      </trkpt>
      <trkpt lat="44.38762" lon="5.45923">
        <ele>618.4</ele>
        <time>2019-06-01T07:47:49Z</time>
      </trkpt>
      <trkpt lat="44.38767" lon="5.45911">
        <ele>617.8</ele>
        <time>2019-06-01T07:47:58Z</time>
      </trkpt>
      <trkpt lat="44.38774" lon="5.45902">
        <ele>617.7</ele>
        <time>2019-06-01T07:48:10Z</time>
      </trkpt>
      <trkpt lat="44.38783" lon="5.45902">
        <ele>617.5</ele>
        <time>2019-06-01T07:48:20Z</time>
      </trkpt>
      <trkpt lat="44.38792" lon="5.45904">
        <ele>618.7</ele>
        <time>2019-06-01T07:49:14Z</time>
      </trkpt>
      <trkpt lat="44.38801" lon="5.45907">
        <ele>618.6</ele>
        <time>2019-06-01T07:49:23Z</time>
      </trkpt>
      <trkpt lat="44.38811" lon="5.45911">
        <ele>618.6</ele>
        <time>2019-06-01T07:49:31Z</time>
      </trkpt>
      <trkpt lat="44.3882" lon="5.45912">
        <ele>618.7</ele>
        <time>2019-06-01T07:49:39Z</time>
      </trkpt>
      <trkpt lat="44.3883" lon="5.45915">
        <ele>619.2</ele>
        <time>2019-06-01T07:49:47Z</time>
      </trkpt>
      <trkpt lat="44.3884" lon="5.45916">
        <ele>619.8</ele>
        <time>2019-06-01T07:49:55Z</time>
      </trkpt>
      <trkpt lat="44.38849" lon="5.45916">
        <ele>620.1</ele>
        <time>2019-06-01T07:50:03Z</time>
      </trkpt>
      <trkpt lat="44.38859" lon="5.45916">
        <ele>620.4</ele>
        <time>2019-06-01T07:50:13Z</time>
      </trkpt>
      <trkpt lat="44.38868" lon="5.45919">
        <ele>620.5</ele>
        <time>2019-06-01T07:50:22Z</time>
      </trkpt>
      <trkpt lat="44.38878" lon="5.45922">
        <ele>620.7</ele>
        <time>2019-06-01T07:50:31Z</time>
      </trkpt>
      <trkpt lat="44.38886" lon="5.45917">
        <ele>621.1</ele>
        <time>2019-06-01T07:50:40Z</time>
      </trkpt>
      <trkpt lat="44.38893" lon="5.45909">
        <ele>621.7</ele>
        <time>2019-06-01T07:51:06Z</time>
      </trkpt>
      <trkpt lat="44.389" lon="5.45901">
        <ele>620.7</ele>
        <time>2019-06-01T07:51:40Z</time>
      </trkpt>
      <trkpt lat="44.38909" lon="5.45898">
        <ele>621.2</ele>
        <time>2019-06-01T07:51:57Z</time>
      </trkpt>
      <trkpt lat="44.38911" lon="5.45886">
        <ele>622.1</ele>
        <time>2019-06-01T07:52:09Z</time>
      </trkpt>
      <trkpt lat="44.38915" lon="5.45874">
        <ele>623.3</ele>
        <time>2019-06-01T07:52:19Z</time>
      </trkpt>
      <trkpt lat="44.3892" lon="5.45863">
        <ele>624.3</ele>
        <time>2019-06-01T07:52:28Z</time>
      </trkpt>
      <trkpt lat="44.38929" lon="5.45861">
        <ele>624.8</ele>
        <time>2019-06-01T07:52:37Z</time>
      </trkpt>
      <trkpt lat="44.38938" lon="5.45864">
        <ele>625.1</ele>
        <time>2019-06-01T07:52:45Z</time>
      </trkpt>
      <trkpt lat="44.38947" lon="5.45865">
        <ele>625.3</ele>
        <time>2019-06-01T07:52:55Z</time>
      </trkpt>
      <trkpt lat="44.38956" lon="5.45866">
        <ele>626.6</ele>
        <time>2019-06-01T07:53:31Z</time>
      </trkpt>
      <trkpt lat="44.38965" lon="5.45869">
        <ele>626.6</ele>
        <time>2019-06-01T07:53:39Z</time>
      </trkpt>
      <trkpt lat="44.38975" lon="5.45873">
        <ele>626.7</ele>
        <time>2019-06-01T07:53:47Z</time>
      </trkpt>
      <trkpt lat="44.38983" lon="5.45877">
        <ele>626.8</ele>
        <time>2019-06-01T07:53:54Z</time>
      </trkpt>
      <trkpt lat="44.38992" lon="5.45882">
        <ele>627.1</ele>
        <time>2019-06-01T07:54:01Z</time>
      </trkpt>
      <trkpt lat="44.39" lon="5.45888">
        <ele>627.2</ele>
        <time>2019-06-01T07:54:08Z</time>
      </trkpt>
      <trkpt lat="44.39007" lon="5.45898">
        <ele>627.2</ele>
        <time>2019-06-01T07:54:17Z</time>
      </trkpt>
      <trkpt lat="44.39013" lon="5.45907">
        <ele>625.9</ele>
        <time>2019-06-01T07:55:03Z</time>
      </trkpt>
      <trkpt lat="44.39018" lon="5.45919">
        <ele>625.5</ele>
        <time>2019-06-01T07:55:14Z</time>
      </trkpt>
      <trkpt lat="44.39012" lon="5.45909">
        <ele>626.2</ele>
        <time>2019-06-01T07:55:46Z</time>
      </trkpt>
      <trkpt lat="44.39007" lon="5.45897">
        <ele>626.6</ele>
        <time>2019-06-01T07:55:56Z</time>
      </trkpt>
      <trkpt lat="44.39014" lon="5.45887">
        <ele>627</ele>
        <time>2019-06-01T07:56:09Z</time>
      </trkpt>
      <trkpt lat="44.39024" lon="5.45882">
        <ele>627.9</ele>
        <time>2019-06-01T07:56:18Z</time>
      </trkpt>
      <trkpt lat="44.39031" lon="5.45875">
        <ele>628.3</ele>
        <time>2019-06-01T07:56:26Z</time>
      </trkpt>
      <trkpt lat="44.3904" lon="5.45868">
        <ele>628.8</ele>
        <time>2019-06-01T07:56:35Z</time>
      </trkpt>
      <trkpt lat="44.39048" lon="5.45861">
        <ele>629.1</ele>
        <time>2019-06-01T07:56:44Z</time>
      </trkpt>
      <trkpt lat="44.39057" lon="5.45856">
        <ele>630.2</ele>
        <time>2019-06-01T07:56:53Z</time>
      </trkpt>
      <trkpt lat="44.39066" lon="5.45853">
        <ele>631</ele>
        <time>2019-06-01T07:57:02Z</time>
      </trkpt>
      <trkpt lat="44.39076" lon="5.4585">
        <ele>631.5</ele>
        <time>2019-06-01T07:57:11Z</time>
      </trkpt>
      <trkpt lat="44.39086" lon="5.45847">
        <ele>631.7</ele>
        <time>2019-06-01T07:57:20Z</time>
      </trkpt>
      <trkpt lat="44.39094" lon="5.4584">
        <ele>632.1</ele>
        <time>2019-06-01T07:57:29Z</time>
      </trkpt>
      <trkpt lat="44.391" lon="5.45829">
        <ele>632.9</ele>
        <time>2019-06-01T07:57:38Z</time>
      </trkpt>
      <trkpt lat="44.39106" lon="5.45819">
        <ele>633.6</ele>
        <time>2019-06-01T07:57:46Z</time>
      </trkpt>
      <trkpt lat="44.39112" lon="5.4581">
        <ele>634.2</ele>
        <time>2019-06-01T07:57:54Z</time>
      </trkpt>
      <trkpt lat="44.39121" lon="5.45803">
        <ele>635.2</ele>
        <time>2019-06-01T07:58:03Z</time>
      </trkpt>
      <trkpt lat="44.39129" lon="5.45796">
        <ele>635.5</ele>
        <time>2019-06-01T07:58:12Z</time>
      </trkpt>
      <trkpt lat="44.39139" lon="5.45793">
        <ele>635.8</ele>
        <time>2019-06-01T07:58:21Z</time>
      </trkpt>
      <trkpt lat="44.39148" lon="5.4579">
        <ele>636.5</ele>
        <time>2019-06-01T07:58:29Z</time>
      </trkpt>
      <trkpt lat="44.39156" lon="5.45785">
        <ele>636.8</ele>
        <time>2019-06-01T07:58:37Z</time>
      </trkpt>
      <trkpt lat="44.39164" lon="5.45777">
        <ele>637.1</ele>
        <time>2019-06-01T07:58:45Z</time>
      </trkpt>
      <trkpt lat="44.39172" lon="5.45769">
        <ele>637.8</ele>
        <time>2019-06-01T07:58:53Z</time>
      </trkpt>
      <trkpt lat="44.39181" lon="5.45763">
        <ele>638.2</ele>
        <time>2019-06-01T07:59:01Z</time>
      </trkpt>
      <trkpt lat="44.39189" lon="5.45757">
        <ele>638.8</ele>
        <time>2019-06-01T07:59:09Z</time>
      </trkpt>
      <trkpt lat="44.39198" lon="5.4575">
        <ele>639.3</ele>
        <time>2019-06-01T07:59:18Z</time>
      </trkpt>
      <trkpt lat="44.39205" lon="5.45742">
        <ele>639.6</ele>
        <time>2019-06-01T07:59:27Z</time>
      </trkpt>
      <trkpt lat="44.39213" lon="5.45734">
        <ele>640.6</ele>
        <time>2019-06-01T07:59:36Z</time>
      </trkpt>
      <trkpt lat="44.39221" lon="5.45724">
        <ele>641.5</ele>
        <time>2019-06-01T07:59:45Z</time>
      </trkpt>
      <trkpt lat="44.39225" lon="5.45713">
        <ele>642.3</ele>
        <time>2019-06-01T07:59:53Z</time>
      </trkpt>
      <trkpt lat="44.39227" lon="5.457">
        <ele>642.9</ele>
        <time>2019-06-01T08:00:02Z</time>
      </trkpt>
      <trkpt lat="44.39234" lon="5.45691">
        <ele>643.8</ele>
        <time>2019-06-01T08:00:12Z</time>
      </trkpt>
      <trkpt lat="44.39242" lon="5.45685">
        <ele>643.9</ele>
        <time>2019-06-01T08:00:21Z</time>
      </trkpt>
      <trkpt lat="44.39251" lon="5.45678">
        <ele>644.3</ele>
        <time>2019-06-01T08:00:30Z</time>
      </trkpt>
      <trkpt lat="44.39258" lon="5.4567">
        <ele>645.2</ele>
        <time>2019-06-01T08:00:38Z</time>
      </trkpt>
      <trkpt lat="44.39265" lon="5.45663">
        <ele>646</ele>
        <time>2019-06-01T08:00:46Z</time>
      </trkpt>
      <trkpt lat="44.39273" lon="5.45656">
        <ele>646.8</ele>
        <time>2019-06-01T08:00:54Z</time>
      </trkpt>
      <trkpt lat="44.39282" lon="5.45651">
        <ele>647.6</ele>
        <time>2019-06-01T08:01:03Z</time>
      </trkpt>
      <trkpt lat="44.3929" lon="5.45645">
        <ele>648.7</ele>
        <time>2019-06-01T08:01:12Z</time>
      </trkpt>
      <trkpt lat="44.39298" lon="5.45638">
        <ele>649.5</ele>
        <time>2019-06-01T08:01:20Z</time>
      </trkpt>
      <trkpt lat="44.39306" lon="5.45631">
        <ele>650.5</ele>
        <time>2019-06-01T08:01:27Z</time>
      </trkpt>
      <trkpt lat="44.39315" lon="5.45625">
        <ele>651.4</ele>
        <time>2019-06-01T08:01:39Z</time>
      </trkpt>
      <trkpt lat="44.3932" lon="5.45613">
        <ele>653.5</ele>
        <time>2019-06-01T08:01:51Z</time>
      </trkpt>
      <trkpt lat="44.39325" lon="5.45601">
        <ele>655.1</ele>
        <time>2019-06-01T08:02:00Z</time>
      </trkpt>
      <trkpt lat="44.39331" lon="5.45591">
        <ele>655.9</ele>
        <time>2019-06-01T08:02:09Z</time>
      </trkpt>
      <trkpt lat="44.39339" lon="5.45585">
        <ele>656.4</ele>
        <time>2019-06-01T08:02:18Z</time>
      </trkpt>
      <trkpt lat="44.39348" lon="5.45582">
        <ele>657.4</ele>
        <time>2019-06-01T08:02:37Z</time>
      </trkpt>
      <trkpt lat="44.39357" lon="5.45577">
        <ele>657.9</ele>
        <time>2019-06-01T08:02:46Z</time>
      </trkpt>
      <trkpt lat="44.39365" lon="5.45569">
        <ele>658.7</ele>
        <time>2019-06-01T08:02:56Z</time>
      </trkpt>
      <trkpt lat="44.39372" lon="5.45562">
        <ele>659.4</ele>
        <time>2019-06-01T08:03:04Z</time>
      </trkpt>
      <trkpt lat="44.3938" lon="5.45553">
        <ele>660.1</ele>
        <time>2019-06-01T08:03:12Z</time>
      </trkpt>
      <trkpt lat="44.39388" lon="5.45545">
        <ele>660.7</ele>
        <time>2019-06-01T08:03:20Z</time>
      </trkpt>
      <trkpt lat="44.39395" lon="5.45537">
        <ele>661.3</ele>
        <time>2019-06-01T08:03:28Z</time>
      </trkpt>
      <trkpt lat="44.39403" lon="5.45531">
        <ele>662.3</ele>
        <time>2019-06-01T08:03:36Z</time>
      </trkpt>
      <trkpt lat="44.39412" lon="5.45527">
        <ele>663.2</ele>
        <time>2019-06-01T08:03:44Z</time>
      </trkpt>
      <trkpt lat="44.3942" lon="5.45524">
        <ele>663.7</ele>
        <time>2019-06-01T08:03:53Z</time>
      </trkpt>
      <trkpt lat="44.39427" lon="5.45514">
        <ele>664.6</ele>
        <time>2019-06-01T08:04:13Z</time>
      </trkpt>
      <trkpt lat="44.39436" lon="5.45509">
        <ele>665.3</ele>
        <time>2019-06-01T08:04:23Z</time>
      </trkpt>
      <trkpt lat="44.39445" lon="5.45509">
        <ele>666.4</ele>
        <time>2019-06-01T08:04:34Z</time>
      </trkpt>
      <trkpt lat="44.39454" lon="5.4551">
        <ele>667.6</ele>
        <time>2019-06-01T08:04:43Z</time>
      </trkpt>
      <trkpt lat="44.39463" lon="5.45508">
        <ele>669.4</ele>
        <time>2019-06-01T08:04:53Z</time>
      </trkpt>
      <trkpt lat="44.39473" lon="5.45505">
        <ele>671.6</ele>
        <time>2019-06-01T08:05:03Z</time>
      </trkpt>
      <trkpt lat="44.39482" lon="5.45502">
        <ele>673.2</ele>
        <time>2019-06-01T08:05:11Z</time>
      </trkpt>
      <trkpt lat="44.39492" lon="5.45502">
        <ele>674.2</ele>
        <time>2019-06-01T08:05:19Z</time>
      </trkpt>
      <trkpt lat="44.39501" lon="5.455">
        <ele>675</ele>
        <time>2019-06-01T08:05:27Z</time>
      </trkpt>
      <trkpt lat="44.3951" lon="5.45495">
        <ele>676.5</ele>
        <time>2019-06-01T08:05:35Z</time>
      </trkpt>
      <trkpt lat="44.39519" lon="5.45491">
        <ele>677.5</ele>
        <time>2019-06-01T08:05:44Z</time>
      </trkpt>
      <trkpt lat="44.39528" lon="5.45488">
        <ele>678.6</ele>
        <time>2019-06-01T08:05:53Z</time>
      </trkpt>
      <trkpt lat="44.39537" lon="5.45483">
        <ele>679.6</ele>
        <time>2019-06-01T08:06:01Z</time>
      </trkpt>
      <trkpt lat="44.39545" lon="5.45476">
        <ele>680.8</ele>
        <time>2019-06-01T08:06:09Z</time>
      </trkpt>
      <trkpt lat="44.39554" lon="5.45473">
        <ele>682.2</ele>
        <time>2019-06-01T08:06:18Z</time>
      </trkpt>
      <trkpt lat="44.39563" lon="5.45471">
        <ele>684.1</ele>
        <time>2019-06-01T08:06:27Z</time>
      </trkpt>
      <trkpt lat="44.39573" lon="5.45469">
        <ele>685.7</ele>
        <time>2019-06-01T08:06:36Z</time>
      </trkpt>
      <trkpt lat="44.39583" lon="5.45467">
        <ele>687.5</ele>
        <time>2019-06-01T08:06:45Z</time>
      </trkpt>
      <trkpt lat="44.39592" lon="5.45464">
        <ele>688.9</ele>
        <time>2019-06-01T08:06:54Z</time>
      </trkpt>
      <trkpt lat="44.39602" lon="5.45463">
        <ele>689.7</ele>
        <time>2019-06-01T08:07:02Z</time>
      </trkpt>
      <trkpt lat="44.39612" lon="5.45464">
        <ele>690.7</ele>
        <time>2019-06-01T08:07:11Z</time>
      </trkpt>
      <trkpt lat="44.39622" lon="5.45467">
        <ele>692.1</ele>
        <time>2019-06-01T08:07:20Z</time>
      </trkpt>
      <trkpt lat="44.39631" lon="5.45469">
        <ele>693.2</ele>
        <time>2019-06-01T08:07:29Z</time>
      </trkpt>
      <trkpt lat="44.3964" lon="5.45473">
        <ele>694.1</ele>
        <time>2019-06-01T08:07:38Z</time>
      </trkpt>
      <trkpt lat="44.39649" lon="5.45473">
        <ele>695.3</ele>
        <time>2019-06-01T08:07:47Z</time>
      </trkpt>
      <trkpt lat="44.39658" lon="5.45472">
        <ele>696.2</ele>
        <time>2019-06-01T08:09:53Z</time>
      </trkpt>
      <trkpt lat="44.39667" lon="5.45474">
        <ele>696.3</ele>
        <time>2019-06-01T08:10:02Z</time>
      </trkpt>
      <trkpt lat="44.39677" lon="5.45475">
        <ele>696.5</ele>
        <time>2019-06-01T08:10:10Z</time>
      </trkpt>
      <trkpt lat="44.39687" lon="5.45472">
        <ele>696.6</ele>
        <time>2019-06-01T08:10:17Z</time>
      </trkpt>
      <trkpt lat="44.39696" lon="5.45474">
        <ele>696.9</ele>
        <time>2019-06-01T08:10:24Z</time>
      </trkpt>
      <trkpt lat="44.39705" lon="5.45475">
        <ele>697.6</ele>
        <time>2019-06-01T08:10:31Z</time>
      </trkpt>
      <trkpt lat="44.39714" lon="5.45477">
        <ele>698.2</ele>
        <time>2019-06-01T08:10:38Z</time>
      </trkpt>
      <trkpt lat="44.39724" lon="5.45473">
        <ele>699.2</ele>
        <time>2019-06-01T08:10:49Z</time>
      </trkpt>
      <trkpt lat="44.39727" lon="5.45459">
        <ele>699.7</ele>
        <time>2019-06-01T08:10:56Z</time>
      </trkpt>
      <trkpt lat="44.39731" lon="5.45447">
        <ele>700</ele>
        <time>2019-06-01T08:11:03Z</time>
      </trkpt>
      <trkpt lat="44.39736" lon="5.45436">
        <ele>700.2</ele>
        <time>2019-06-01T08:11:10Z</time>
      </trkpt>
      <trkpt lat="44.39741" lon="5.45425">
        <ele>700.2</ele>
        <time>2019-06-01T08:11:39Z</time>
      </trkpt>
      <trkpt lat="44.39746" lon="5.45413">
        <ele>700.3</ele>
        <time>2019-06-01T08:11:46Z</time>
      </trkpt>
      <trkpt lat="44.3975" lon="5.45401">
        <ele>700.1</ele>
        <time>2019-06-01T08:11:54Z</time>
      </trkpt>
      <trkpt lat="44.39753" lon="5.45388">
        <ele>700</ele>
        <time>2019-06-01T08:12:02Z</time>
      </trkpt>
      <trkpt lat="44.39755" lon="5.45374">
        <ele>700</ele>
        <time>2019-06-01T08:12:10Z</time>
      </trkpt>
      <trkpt lat="44.39756" lon="5.45361">
        <ele>700</ele>
        <time>2019-06-01T08:12:20Z</time>
      </trkpt>
      <trkpt lat="44.3976" lon="5.45349">
        <ele>700</ele>
        <time>2019-06-01T08:13:47Z</time>
      </trkpt>
      <trkpt lat="44.39761" lon="5.45335">
        <ele>699.8</ele>
        <time>2019-06-01T08:13:55Z</time>
      </trkpt>
      <trkpt lat="44.39763" lon="5.45322">
        <ele>699.8</ele>
        <time>2019-06-01T08:14:03Z</time>
      </trkpt>
      <trkpt lat="44.39765" lon="5.45308">
        <ele>699.7</ele>
        <time>2019-06-01T08:14:11Z</time>
      </trkpt>
      <trkpt lat="44.39767" lon="5.45294">
        <ele>699.7</ele>
        <time>2019-06-01T08:14:19Z</time>
      </trkpt>
      <trkpt lat="44.39769" lon="5.45281">
        <ele>699.6</ele>
        <time>2019-06-01T08:14:26Z</time>
      </trkpt>
      <trkpt lat="44.39772" lon="5.45269">
        <ele>699.6</ele>
        <time>2019-06-01T08:14:33Z</time>
      </trkpt>
      <trkpt lat="44.39777" lon="5.45256">
        <ele>699.5</ele>
        <time>2019-06-01T08:14:40Z</time>
      </trkpt>
      <trkpt lat="44.39783" lon="5.45245">
        <ele>699.3</ele>
        <time>2019-06-01T08:14:47Z</time>
      </trkpt>
      <trkpt lat="44.3979" lon="5.45235">
        <ele>699.1</ele>
        <time>2019-06-01T08:14:54Z</time>
      </trkpt>
      <trkpt lat="44.39795" lon="5.45224">
        <ele>698.9</ele>
        <time>2019-06-01T08:15:01Z</time>
      </trkpt>
      <trkpt lat="44.39799" lon="5.45211">
        <ele>699.1</ele>
        <time>2019-06-01T08:15:08Z</time>
      </trkpt>
      <trkpt lat="44.39801" lon="5.45197">
        <ele>699.4</ele>
        <time>2019-06-01T08:15:15Z</time>
      </trkpt>
      <trkpt lat="44.39802" lon="5.45184">
        <ele>699.6</ele>
        <time>2019-06-01T08:15:22Z</time>
      </trkpt>
      <trkpt lat="44.39802" lon="5.4517">
        <ele>699.7</ele>
        <time>2019-06-01T08:15:29Z</time>
      </trkpt>
      <trkpt lat="44.39805" lon="5.45157">
        <ele>699.7</ele>
        <time>2019-06-01T08:15:36Z</time>
      </trkpt>
      <trkpt lat="44.39808" lon="5.45144">
        <ele>699.7</ele>
        <time>2019-06-01T08:15:43Z</time>
      </trkpt>
      <trkpt lat="44.3981" lon="5.45131">
        <ele>699.6</ele>
        <time>2019-06-01T08:15:50Z</time>
      </trkpt>
      <trkpt lat="44.39813" lon="5.45118">
        <ele>699.4</ele>
        <time>2019-06-01T08:15:57Z</time>
      </trkpt>
      <trkpt lat="44.39814" lon="5.45105">
        <ele>699.3</ele>
        <time>2019-06-01T08:16:04Z</time>
      </trkpt>
      <trkpt lat="44.39813" lon="5.45091">
        <ele>699.2</ele>
        <time>2019-06-01T08:16:11Z</time>
      </trkpt>
      <trkpt lat="44.39811" lon="5.45077">
        <ele>699.2</ele>
        <time>2019-06-01T08:16:18Z</time>
      </trkpt>
      <trkpt lat="44.3981" lon="5.45064">
        <ele>699.2</ele>
        <time>2019-06-01T08:16:25Z</time>
      </trkpt>
      <trkpt lat="44.3981" lon="5.45051">
        <ele>699.2</ele>
        <time>2019-06-01T08:16:32Z</time>
      </trkpt>
      <trkpt lat="44.3981" lon="5.45037">
        <ele>699.2</ele>
        <time>2019-06-01T08:16:40Z</time>
      </trkpt>
      <trkpt lat="44.39812" lon="5.45024">
        <ele>699.4</ele>
        <time>2019-06-01T08:16:47Z</time>
      </trkpt>
      <trkpt lat="44.39816" lon="5.45011">
        <ele>699.3</ele>
        <time>2019-06-01T08:16:54Z</time>
      </trkpt>
      <trkpt lat="44.39821" lon="5.44998">
        <ele>699.2</ele>
        <time>2019-06-01T08:17:01Z</time>
      </trkpt>
      <trkpt lat="44.39825" lon="5.44987">
        <ele>699</ele>
        <time>2019-06-01T08:17:07Z</time>
      </trkpt>
      <trkpt lat="44.39831" lon="5.44977">
        <ele>698.9</ele>
        <time>2019-06-01T08:17:13Z</time>
      </trkpt>
      <trkpt lat="44.39837" lon="5.44966">
        <ele>699.2</ele>
        <time>2019-06-01T08:17:20Z</time>
      </trkpt>
      <trkpt lat="44.39846" lon="5.4496">
        <ele>699.5</ele>
        <time>2019-06-01T08:17:27Z</time>
      </trkpt>
      <trkpt lat="44.39855" lon="5.44958">
        <ele>699.7</ele>
        <time>2019-06-01T08:17:34Z</time>
      </trkpt>
      <trkpt lat="44.39864" lon="5.44957">
        <ele>699.7</ele>
        <time>2019-06-01T08:17:42Z</time>
      </trkpt>
      <trkpt lat="44.39874" lon="5.44957">
        <ele>699.5</ele>
        <time>2019-06-01T08:17:50Z</time>
      </trkpt>
      <trkpt lat="44.39884" lon="5.44956">
        <ele>699.4</ele>
        <time>2019-06-01T08:17:58Z</time>
      </trkpt>
      <trkpt lat="44.39893" lon="5.44954">
        <ele>699.1</ele>
        <time>2019-06-01T08:18:06Z</time>
      </trkpt>
      <trkpt lat="44.39903" lon="5.4495">
        <ele>698.9</ele>
        <time>2019-06-01T08:18:14Z</time>
      </trkpt>
      <trkpt lat="44.39911" lon="5.44942">
        <ele>699.2</ele>
        <time>2019-06-01T08:18:21Z</time>
      </trkpt>
      <trkpt lat="44.39912" lon="5.44929">
        <ele>699.3</ele>
        <time>2019-06-01T08:18:29Z</time>
      </trkpt>
      <trkpt lat="44.39912" lon="5.44915">
        <ele>699.3</ele>
        <time>2019-06-01T08:18:37Z</time>
      </trkpt>
      <trkpt lat="44.39914" lon="5.44902">
        <ele>699.4</ele>
        <time>2019-06-01T08:18:44Z</time>
      </trkpt>
      <trkpt lat="44.39919" lon="5.44889">
        <ele>699.5</ele>
        <time>2019-06-01T08:18:52Z</time>
      </trkpt>
      <trkpt lat="44.39924" lon="5.44877">
        <ele>699.5</ele>
        <time>2019-06-01T08:18:59Z</time>
      </trkpt>
      <trkpt lat="44.39928" lon="5.44865">
        <ele>699.6</ele>
        <time>2019-06-01T08:19:06Z</time>
      </trkpt>
      <trkpt lat="44.39933" lon="5.44853">
        <ele>699.6</ele>
        <time>2019-06-01T08:19:13Z</time>
      </trkpt>
      <trkpt lat="44.39937" lon="5.44841">
        <ele>699.6</ele>
        <time>2019-06-01T08:19:20Z</time>
      </trkpt>
      <trkpt lat="44.39943" lon="5.4483">
        <ele>699.5</ele>
        <time>2019-06-01T08:19:27Z</time>
      </trkpt>
      <trkpt lat="44.39948" lon="5.44817">
        <ele>699.3</ele>
        <time>2019-06-01T08:19:34Z</time>
      </trkpt>
      <trkpt lat="44.39953" lon="5.44805">
        <ele>699.3</ele>
        <time>2019-06-01T08:19:41Z</time>
      </trkpt>
      <trkpt lat="44.39957" lon="5.44793">
        <ele>699.3</ele>
        <time>2019-06-01T08:19:48Z</time>
      </trkpt>
      <trkpt lat="44.39963" lon="5.44782">
        <ele>699.3</ele>
        <time>2019-06-01T08:19:55Z</time>
      </trkpt>
      <trkpt lat="44.39969" lon="5.44771">
        <ele>699.3</ele>
        <time>2019-06-01T08:20:02Z</time>
      </trkpt>
      <trkpt lat="44.39976" lon="5.4476">
        <ele>699.3</ele>
        <time>2019-06-01T08:20:09Z</time>
      </trkpt>
      <trkpt lat="44.39984" lon="5.44752">
        <ele>699.6</ele>
        <time>2019-06-01T08:20:16Z</time>
      </trkpt>
      <trkpt lat="44.39993" lon="5.44745">
        <ele>699.8</ele>
        <time>2019-06-01T08:20:23Z</time>
      </trkpt>
      <trkpt lat="44.40001" lon="5.44739">
        <ele>699.9</ele>
        <time>2019-06-01T08:20:30Z</time>
      </trkpt>
      <trkpt lat="44.40009" lon="5.44733">
        <ele>700.2</ele>
        <time>2019-06-01T08:20:38Z</time>
      </trkpt>
      <trkpt lat="44.40018" lon="5.44725">
        <ele>700.4</ele>
        <time>2019-06-01T08:20:45Z</time>
      </trkpt>
      <trkpt lat="44.40026" lon="5.44718">
        <ele>700.5</ele>
        <time>2019-06-01T08:20:52Z</time>
      </trkpt>
      <trkpt lat="44.40034" lon="5.44711">
        <ele>700.5</ele>
        <time>2019-06-01T08:20:59Z</time>
      </trkpt>
      <trkpt lat="44.40044" lon="5.44704">
        <ele>700.7</ele>
        <time>2019-06-01T08:21:06Z</time>
      </trkpt>
      <trkpt lat="44.40053" lon="5.44699">
        <ele>700.8</ele>
        <time>2019-06-01T08:21:13Z</time>
      </trkpt>
      <trkpt lat="44.40062" lon="5.44694">
        <ele>701</ele>
        <time>2019-06-01T08:21:20Z</time>
      </trkpt>
      <trkpt lat="44.40072" lon="5.44689">
        <ele>701.2</ele>
        <time>2019-06-01T08:21:27Z</time>
      </trkpt>
      <trkpt lat="44.40081" lon="5.44684">
        <ele>701.6</ele>
        <time>2019-06-01T08:21:34Z</time>
      </trkpt>
      <trkpt lat="44.40091" lon="5.4468">
        <ele>701.7</ele>
        <time>2019-06-01T08:21:41Z</time>
      </trkpt>
      <trkpt lat="44.401" lon="5.44675">
        <ele>701.8</ele>
        <time>2019-06-01T08:21:48Z</time>
      </trkpt>
      <trkpt lat="44.40109" lon="5.4467">
        <ele>701.7</ele>
        <time>2019-06-01T08:21:55Z</time>
      </trkpt>
      <trkpt lat="44.40118" lon="5.44666">
        <ele>701.6</ele>
        <time>2019-06-01T08:22:02Z</time>
      </trkpt>
      <trkpt lat="44.40127" lon="5.44664">
        <ele>702</ele>
        <time>2019-06-01T08:22:09Z</time>
      </trkpt>
      <trkpt lat="44.40137" lon="5.4466">
        <ele>702.1</ele>
        <time>2019-06-01T08:22:16Z</time>
      </trkpt>
      <trkpt lat="44.40147" lon="5.44656">
        <ele>702.3</ele>
        <time>2019-06-01T08:22:23Z</time>
      </trkpt>
      <trkpt lat="44.40157" lon="5.44653">
        <ele>702.4</ele>
        <time>2019-06-01T08:22:30Z</time>
      </trkpt>
      <trkpt lat="44.40166" lon="5.4465">
        <ele>702.7</ele>
        <time>2019-06-01T08:22:37Z</time>
      </trkpt>
      <trkpt lat="44.40176" lon="5.44648">
        <ele>702.9</ele>
        <time>2019-06-01T08:22:44Z</time>
      </trkpt>
      <trkpt lat="44.40185" lon="5.44646">
        <ele>703.1</ele>
        <time>2019-06-01T08:22:50Z</time>
      </trkpt>
      <trkpt lat="44.40194" lon="5.44643">
        <ele>703.3</ele>
        <time>2019-06-01T08:22:57Z</time>
      </trkpt>
      <trkpt lat="44.40204" lon="5.44641">
        <ele>703.4</ele>
        <time>2019-06-01T08:23:04Z</time>
      </trkpt>
      <trkpt lat="44.40214" lon="5.44639">
        <ele>703.2</ele>
        <time>2019-06-01T08:23:11Z</time>
      </trkpt>
      <trkpt lat="44.40224" lon="5.44637">
        <ele>703.2</ele>
        <time>2019-06-01T08:23:18Z</time>
      </trkpt>
      <trkpt lat="44.40233" lon="5.44634">
        <ele>703.3</ele>
        <time>2019-06-01T08:23:25Z</time>
      </trkpt>
      <trkpt lat="44.40242" lon="5.44629">
        <ele>703.4</ele>
        <time>2019-06-01T08:23:31Z</time>
      </trkpt>
      <trkpt lat="44.40251" lon="5.44621">
        <ele>703.4</ele>
        <time>2019-06-01T08:23:36Z</time>
      </trkpt>
      <trkpt lat="44.40259" lon="5.44615">
        <ele>703.6</ele>
        <time>2019-06-01T08:23:44Z</time>
      </trkpt>
      <trkpt lat="44.4026" lon="5.44601">
        <ele>703.6</ele>
        <time>2019-06-01T08:23:53Z</time>
      </trkpt>
      <trkpt lat="44.40256" lon="5.44589">
        <ele>703.4</ele>
        <time>2019-06-01T08:24:00Z</time>
      </trkpt>
      <trkpt lat="44.40254" lon="5.44577">
        <ele>703.3</ele>
        <time>2019-06-01T08:24:07Z</time>
      </trkpt>
      <trkpt lat="44.4025" lon="5.44564">
        <ele>703.4</ele>
        <time>2019-06-01T08:24:14Z</time>
      </trkpt>
      <trkpt lat="44.40247" lon="5.44552">
        <ele>703.6</ele>
        <time>2019-06-01T08:24:21Z</time>
      </trkpt>
      <trkpt lat="44.40248" lon="5.44539">
        <ele>703.8</ele>
        <time>2019-06-01T08:24:28Z</time>
      </trkpt>
      <trkpt lat="44.40254" lon="5.44529">
        <ele>703.9</ele>
        <time>2019-06-01T08:24:35Z</time>
      </trkpt>
      <trkpt lat="44.40263" lon="5.44523">
        <ele>704.2</ele>
        <time>2019-06-01T08:24:43Z</time>
      </trkpt>
      <trkpt lat="44.40272" lon="5.44519">
        <ele>704.4</ele>
        <time>2019-06-01T08:24:50Z</time>
      </trkpt>
      <trkpt lat="44.40282" lon="5.44519">
        <ele>704.6</ele>
        <time>2019-06-01T08:24:59Z</time>
      </trkpt>
      <trkpt lat="44.40292" lon="5.4452">
        <ele>705.2</ele>
        <time>2019-06-01T08:25:08Z</time>
      </trkpt>
      <trkpt lat="44.40301" lon="5.44519">
        <ele>705.6</ele>
        <time>2019-06-01T08:25:16Z</time>
      </trkpt>
      <trkpt lat="44.40311" lon="5.44517">
        <ele>705.9</ele>
        <time>2019-06-01T08:25:24Z</time>
      </trkpt>
      <trkpt lat="44.4032" lon="5.44513">
        <ele>706.2</ele>
        <time>2019-06-01T08:25:32Z</time>
      </trkpt>
      <trkpt lat="44.40329" lon="5.44513">
        <ele>706.3</ele>
        <time>2019-06-01T08:25:39Z</time>
      </trkpt>
      <trkpt lat="44.40339" lon="5.44512">
        <ele>706.6</ele>
        <time>2019-06-01T08:25:46Z</time>
      </trkpt>
      <trkpt lat="44.40349" lon="5.4451">
        <ele>706.9</ele>
        <time>2019-06-01T08:25:53Z</time>
      </trkpt>
      <trkpt lat="44.40359" lon="5.44506">
        <ele>707.1</ele>
        <time>2019-06-01T08:26:00Z</time>
      </trkpt>
      <trkpt lat="44.40369" lon="5.44501">
        <ele>707.4</ele>
        <time>2019-06-01T08:26:07Z</time>
      </trkpt>
      <trkpt lat="44.40378" lon="5.44499">
        <ele>707.7</ele>
        <time>2019-06-01T08:26:13Z</time>
      </trkpt>
      <trkpt lat="44.40388" lon="5.44498">
        <ele>707.9</ele>
        <time>2019-06-01T08:26:20Z</time>
      </trkpt>
      <trkpt lat="44.40398" lon="5.44494">
        <ele>708.1</ele>
        <time>2019-06-01T08:26:26Z</time>
      </trkpt>
      <trkpt lat="44.40406" lon="5.44488">
        <ele>708.2</ele>
        <time>2019-06-01T08:26:32Z</time>
      </trkpt>
      <trkpt lat="44.40414" lon="5.44479">
        <ele>708.5</ele>
        <time>2019-06-01T08:26:39Z</time>
      </trkpt>
      <trkpt lat="44.4042" lon="5.44469">
        <ele>708.7</ele>
        <time>2019-06-01T08:26:45Z</time>
      </trkpt>
      <trkpt lat="44.40426" lon="5.4446">
        <ele>709</ele>
        <time>2019-06-01T08:26:51Z</time>
      </trkpt>
      <trkpt lat="44.40433" lon="5.44449">
        <ele>709.5</ele>
        <time>2019-06-01T08:26:58Z</time>
      </trkpt>
      <trkpt lat="44.40439" lon="5.44439">
        <ele>709.7</ele>
        <time>2019-06-01T08:27:05Z</time>
      </trkpt>
      <trkpt lat="44.40449" lon="5.44434">
        <ele>709.9</ele>
        <time>2019-06-01T08:27:12Z</time>
      </trkpt>
      <trkpt lat="44.40458" lon="5.4443">
        <ele>710.1</ele>
        <time>2019-06-01T08:27:18Z</time>
      </trkpt>
      <trkpt lat="44.40467" lon="5.44424">
        <ele>710</ele>
        <time>2019-06-01T08:27:24Z</time>
      </trkpt>
      <trkpt lat="44.40476" lon="5.44418">
        <ele>710.1</ele>
        <time>2019-06-01T08:27:30Z</time>
      </trkpt>
      <trkpt lat="44.40483" lon="5.44409">
        <ele>710.1</ele>
        <time>2019-06-01T08:27:36Z</time>
      </trkpt>
      <trkpt lat="44.4049" lon="5.44398">
        <ele>710.2</ele>
        <time>2019-06-01T08:27:43Z</time>
      </trkpt>
      <trkpt lat="44.40498" lon="5.44389">
        <ele>710.6</ele>
        <time>2019-06-01T08:27:50Z</time>
      </trkpt>
      <trkpt lat="44.40507" lon="5.44386">
        <ele>710.9</ele>
        <time>2019-06-01T08:27:56Z</time>
      </trkpt>
      <trkpt lat="44.40516" lon="5.44385">
        <ele>711</ele>
        <time>2019-06-01T08:28:02Z</time>
      </trkpt>
      <trkpt lat="44.40526" lon="5.44386">
        <ele>711.1</ele>
        <time>2019-06-01T08:28:10Z</time>
      </trkpt>
      <trkpt lat="44.40536" lon="5.44386">
        <ele>711.1</ele>
        <time>2019-06-01T08:28:19Z</time>
      </trkpt>
      <trkpt lat="44.40545" lon="5.44385">
        <ele>711.1</ele>
        <time>2019-06-01T08:28:28Z</time>
      </trkpt>
      <trkpt lat="44.40555" lon="5.44389">
        <ele>711.1</ele>
        <time>2019-06-01T08:28:37Z</time>
      </trkpt>
      <trkpt lat="44.40564" lon="5.44393">
        <ele>711.1</ele>
        <time>2019-06-01T08:28:44Z</time>
      </trkpt>
      <trkpt lat="44.40573" lon="5.44399">
        <ele>711.2</ele>
        <time>2019-06-01T08:28:52Z</time>
      </trkpt>
      <trkpt lat="44.40582" lon="5.44406">
        <ele>711.3</ele>
        <time>2019-06-01T08:29:00Z</time>
      </trkpt>
      <trkpt lat="44.4059" lon="5.44411">
        <ele>711.4</ele>
        <time>2019-06-01T08:29:09Z</time>
      </trkpt>
      <trkpt lat="44.40599" lon="5.44415">
        <ele>711.4</ele>
        <time>2019-06-01T08:29:17Z</time>
      </trkpt>
      <trkpt lat="44.40608" lon="5.44415">
        <ele>711.7</ele>
        <time>2019-06-01T08:29:26Z</time>
      </trkpt>
      <trkpt lat="44.40618" lon="5.44413">
        <ele>711.9</ele>
        <time>2019-06-01T08:29:35Z</time>
      </trkpt>
      <trkpt lat="44.40628" lon="5.44412">
        <ele>712.1</ele>
        <time>2019-06-01T08:29:42Z</time>
      </trkpt>
      <trkpt lat="44.40637" lon="5.4441">
        <ele>712.3</ele>
        <time>2019-06-01T08:29:48Z</time>
      </trkpt>
      <trkpt lat="44.40647" lon="5.44409">
        <ele>712.5</ele>
        <time>2019-06-01T08:29:54Z</time>
      </trkpt>
      <trkpt lat="44.40656" lon="5.4441">
        <ele>712.6</ele>
        <time>2019-06-01T08:30:00Z</time>
      </trkpt>
      <trkpt lat="44.40665" lon="5.44411">
        <ele>712.6</ele>
        <time>2019-06-01T08:30:06Z</time>
      </trkpt>
      <trkpt lat="44.40674" lon="5.44414">
        <ele>712.6</ele>
        <time>2019-06-01T08:30:12Z</time>
      </trkpt>
      <trkpt lat="44.40683" lon="5.44414">
        <ele>712.7</ele>
        <time>2019-06-01T08:30:19Z</time>
      </trkpt>
      <trkpt lat="44.40692" lon="5.44417">
        <ele>712.7</ele>
        <time>2019-06-01T08:30:26Z</time>
      </trkpt>
      <trkpt lat="44.40702" lon="5.44418">
        <ele>712.7</ele>
        <time>2019-06-01T08:30:33Z</time>
      </trkpt>
      <trkpt lat="44.40712" lon="5.44419">
        <ele>712.7</ele>
        <time>2019-06-01T08:30:40Z</time>
      </trkpt>
      <trkpt lat="44.40722" lon="5.44421">
        <ele>712.9</ele>
        <time>2019-06-01T08:30:49Z</time>
      </trkpt>
      <trkpt lat="44.40732" lon="5.44422">
        <ele>712.9</ele>
        <time>2019-06-01T08:30:58Z</time>
      </trkpt>
      <trkpt lat="44.40742" lon="5.4442">
        <ele>713</ele>
        <time>2019-06-01T08:31:06Z</time>
      </trkpt>
      <trkpt lat="44.40751" lon="5.44417">
        <ele>713</ele>
        <time>2019-06-01T08:31:13Z</time>
      </trkpt>
      <trkpt lat="44.40762" lon="5.44413">
        <ele>713.1</ele>
        <time>2019-06-01T08:31:20Z</time>
      </trkpt>
      <trkpt lat="44.40771" lon="5.44408">
        <ele>713.1</ele>
        <time>2019-06-01T08:31:26Z</time>
      </trkpt>
      <trkpt lat="44.40781" lon="5.44404">
        <ele>713</ele>
        <time>2019-06-01T08:31:32Z</time>
      </trkpt>
      <trkpt lat="44.4079" lon="5.44401">
        <ele>712.9</ele>
        <time>2019-06-01T08:31:38Z</time>
      </trkpt>
      <trkpt lat="44.408" lon="5.44398">
        <ele>712.9</ele>
        <time>2019-06-01T08:31:46Z</time>
      </trkpt>
      <trkpt lat="44.4081" lon="5.44396">
        <ele>712.3</ele>
        <time>2019-06-01T08:31:54Z</time>
      </trkpt>
      <trkpt lat="44.40819" lon="5.44394">
        <ele>712.2</ele>
        <time>2019-06-01T08:32:01Z</time>
      </trkpt>
      <trkpt lat="44.40829" lon="5.44395">
        <ele>712.1</ele>
        <time>2019-06-01T08:32:11Z</time>
      </trkpt>
      <trkpt lat="44.40838" lon="5.44395">
        <ele>712.4</ele>
        <time>2019-06-01T08:32:18Z</time>
      </trkpt>
      <trkpt lat="44.40848" lon="5.44392">
        <ele>712.4</ele>
        <time>2019-06-01T08:32:25Z</time>
      </trkpt>
      <trkpt lat="44.40857" lon="5.44388">
        <ele>712.1</ele>
        <time>2019-06-01T08:32:30Z</time>
      </trkpt>
      <trkpt lat="44.40867" lon="5.44386">
        <ele>711.7</ele>
        <time>2019-06-01T08:32:37Z</time>
      </trkpt>
      <trkpt lat="44.40877" lon="5.44385">
        <ele>711.6</ele>
        <time>2019-06-01T08:32:43Z</time>
      </trkpt>
      <trkpt lat="44.40887" lon="5.44381">
        <ele>711.6</ele>
        <time>2019-06-01T08:32:50Z</time>
      </trkpt>
      <trkpt lat="44.40896" lon="5.4438">
        <ele>711.7</ele>
        <time>2019-06-01T08:32:56Z</time>
      </trkpt>
      <trkpt lat="44.40906" lon="5.44378">
        <ele>711.7</ele>
        <time>2019-06-01T08:33:02Z</time>
      </trkpt>
      <trkpt lat="44.40916" lon="5.44377">
        <ele>711.7</ele>
        <time>2019-06-01T08:33:08Z</time>
      </trkpt>
      <trkpt lat="44.40926" lon="5.44375">
        <ele>711.8</ele>
        <time>2019-06-01T08:33:15Z</time>
      </trkpt>
      <trkpt lat="44.40936" lon="5.44373">
        <ele>711.9</ele>
        <time>2019-06-01T08:33:22Z</time>
      </trkpt>
      <trkpt lat="44.40945" lon="5.44372">
        <ele>712</ele>
        <time>2019-06-01T08:33:28Z</time>
      </trkpt>
      <trkpt lat="44.40955" lon="5.4437">
        <ele>712</ele>
        <time>2019-06-01T08:33:35Z</time>
      </trkpt>
      <trkpt lat="44.40964" lon="5.44368">
        <ele>712</ele>
        <time>2019-06-01T08:33:43Z</time>
      </trkpt>
      <trkpt lat="44.40974" lon="5.44364">
        <ele>712.1</ele>
        <time>2019-06-01T08:33:52Z</time>
      </trkpt>
      <trkpt lat="44.40982" lon="5.44361">
        <ele>712.2</ele>
        <time>2019-06-01T08:33:59Z</time>
      </trkpt>
      <trkpt lat="44.40991" lon="5.44362">
        <ele>712.4</ele>
        <time>2019-06-01T08:34:07Z</time>
      </trkpt>
      <trkpt lat="44.41001" lon="5.44363">
        <ele>712.6</ele>
        <time>2019-06-01T08:34:15Z</time>
      </trkpt>
      <trkpt lat="44.4101" lon="5.44363">
        <ele>713.1</ele>
        <time>2019-06-01T08:34:23Z</time>
      </trkpt>
      <trkpt lat="44.4102" lon="5.44364">
        <ele>713.7</ele>
        <time>2019-06-01T08:34:31Z</time>
      </trkpt>
      <trkpt lat="44.4103" lon="5.44364">
        <ele>714</ele>
        <time>2019-06-01T08:34:38Z</time>
      </trkpt>
      <trkpt lat="44.41039" lon="5.44363">
        <ele>714</ele>
        <time>2019-06-01T08:34:44Z</time>
      </trkpt>
      <trkpt lat="44.41048" lon="5.4436">
        <ele>714</ele>
        <time>2019-06-01T08:34:50Z</time>
      </trkpt>
      <trkpt lat="44.41058" lon="5.44359">
        <ele>714.2</ele>
        <time>2019-06-01T08:34:56Z</time>
      </trkpt>
      <trkpt lat="44.41067" lon="5.44356">
        <ele>714.3</ele>
        <time>2019-06-01T08:35:01Z</time>
      </trkpt>
      <trkpt lat="44.41076" lon="5.44353">
        <ele>714.7</ele>
        <time>2019-06-01T08:35:07Z</time>
      </trkpt>
      <trkpt lat="44.41086" lon="5.44349">
        <ele>715.3</ele>
        <time>2019-06-01T08:35:13Z</time>
      </trkpt>
      <trkpt lat="44.41096" lon="5.44346">
        <ele>715.7</ele>
        <time>2019-06-01T08:35:19Z</time>
      </trkpt>
      <trkpt lat="44.41105" lon="5.44343">
        <ele>715.9</ele>
        <time>2019-06-01T08:35:25Z</time>
      </trkpt>
      <trkpt lat="44.41114" lon="5.44339">
        <ele>716</ele>
        <time>2019-06-01T08:35:31Z</time>
      </trkpt>
      <trkpt lat="44.41124" lon="5.44335">
        <ele>716.2</ele>
        <time>2019-06-01T08:35:37Z</time>
      </trkpt>
      <trkpt lat="44.41133" lon="5.44335">
        <ele>716.1</ele>
        <time>2019-06-01T08:35:43Z</time>
      </trkpt>
      <trkpt lat="44.41142" lon="5.44336">
        <ele>716.4</ele>
        <time>2019-06-01T08:35:49Z</time>
      </trkpt>
      <trkpt lat="44.41152" lon="5.44338">
        <ele>716.7</ele>
        <time>2019-06-01T08:35:57Z</time>
      </trkpt>
      <trkpt lat="44.41162" lon="5.44335">
        <ele>716.8</ele>
        <time>2019-06-01T08:36:04Z</time>
      </trkpt>
      <trkpt lat="44.41171" lon="5.4433">
        <ele>716.9</ele>
        <time>2019-06-01T08:36:11Z</time>
      </trkpt>
      <trkpt lat="44.4118" lon="5.44326">
        <ele>717.1</ele>
        <time>2019-06-01T08:36:17Z</time>
      </trkpt>
      <trkpt lat="44.4119" lon="5.44324">
        <ele>717.3</ele>
        <time>2019-06-01T08:36:24Z</time>
      </trkpt>
      <trkpt lat="44.412" lon="5.44325">
        <ele>717.7</ele>
        <time>2019-06-01T08:36:32Z</time>
      </trkpt>
      <trkpt lat="44.41209" lon="5.44327">
        <ele>718.1</ele>
        <time>2019-06-01T08:36:40Z</time>
      </trkpt>
      <trkpt lat="44.41219" lon="5.44327">
        <ele>718.4</ele>
        <time>2019-06-01T08:36:47Z</time>
      </trkpt>
      <trkpt lat="44.41229" lon="5.4433">
        <ele>718.9</ele>
        <time>2019-06-01T08:36:55Z</time>
      </trkpt>
      <trkpt lat="44.41238" lon="5.44331">
        <ele>719.3</ele>
        <time>2019-06-01T08:37:01Z</time>
      </trkpt>
      <trkpt lat="44.41248" lon="5.44332">
        <ele>719.5</ele>
        <time>2019-06-01T08:37:08Z</time>
      </trkpt>
      <trkpt lat="44.41257" lon="5.44332">
        <ele>720.1</ele>
        <time>2019-06-01T08:37:14Z</time>
      </trkpt>
      <trkpt lat="44.41266" lon="5.44332">
        <ele>721</ele>
        <time>2019-06-01T08:37:20Z</time>
      </trkpt>
      <trkpt lat="44.41275" lon="5.44332">
        <ele>721.5</ele>
        <time>2019-06-01T08:37:26Z</time>
      </trkpt>
      <trkpt lat="44.41284" lon="5.44332">
        <ele>721.7</ele>
        <time>2019-06-01T08:37:32Z</time>
      </trkpt>
      <trkpt lat="44.41294" lon="5.44332">
        <ele>721.8</ele>
        <time>2019-06-01T08:37:40Z</time>
      </trkpt>
      <trkpt lat="44.41304" lon="5.4433">
        <ele>721.9</ele>
        <time>2019-06-01T08:37:47Z</time>
      </trkpt>
      <trkpt lat="44.41313" lon="5.44326">
        <ele>721.8</ele>
        <time>2019-06-01T08:37:53Z</time>
      </trkpt>
      <trkpt lat="44.41322" lon="5.44321">
        <ele>721.8</ele>
        <time>2019-06-01T08:37:59Z</time>
      </trkpt>
      <trkpt lat="44.41332" lon="5.44315">
        <ele>721.9</ele>
        <time>2019-06-01T08:38:05Z</time>
      </trkpt>
      <trkpt lat="44.41341" lon="5.44311">
        <ele>722</ele>
        <time>2019-06-01T08:38:10Z</time>
      </trkpt>
      <trkpt lat="44.41349" lon="5.44307">
        <ele>722</ele>
        <time>2019-06-01T08:38:16Z</time>
      </trkpt>
      <trkpt lat="44.41359" lon="5.44302">
        <ele>722.2</ele>
        <time>2019-06-01T08:38:23Z</time>
      </trkpt>
      <trkpt lat="44.41368" lon="5.44298">
        <ele>722</ele>
        <time>2019-06-01T08:38:30Z</time>
      </trkpt>
      <trkpt lat="44.41377" lon="5.44294">
        <ele>721.7</ele>
        <time>2019-06-01T08:38:37Z</time>
      </trkpt>
      <trkpt lat="44.41385" lon="5.44289">
        <ele>722.1</ele>
        <time>2019-06-01T08:38:43Z</time>
      </trkpt>
      <trkpt lat="44.41394" lon="5.44283">
        <ele>722.7</ele>
        <time>2019-06-01T08:38:51Z</time>
      </trkpt>
      <trkpt lat="44.41403" lon="5.44278">
        <ele>722.6</ele>
        <time>2019-06-01T08:38:57Z</time>
      </trkpt>
      <trkpt lat="44.41411" lon="5.44274">
        <ele>722.5</ele>
        <time>2019-06-01T08:39:03Z</time>
      </trkpt>
      <trkpt lat="44.4142" lon="5.4427">
        <ele>722.5</ele>
        <time>2019-06-01T08:39:09Z</time>
      </trkpt>
      <trkpt lat="44.4143" lon="5.44265">
        <ele>722.4</ele>
        <time>2019-06-01T08:39:15Z</time>
      </trkpt>
      <trkpt lat="44.4144" lon="5.44261">
        <ele>722.3</ele>
        <time>2019-06-01T08:39:19Z</time>
      </trkpt>
      <trkpt lat="44.4145" lon="5.44257">
        <ele>722</ele>
        <time>2019-06-01T08:39:25Z</time>
      </trkpt>
      <trkpt lat="44.41459" lon="5.44254">
        <ele>721.8</ele>
        <time>2019-06-01T08:39:31Z</time>
      </trkpt>
      <trkpt lat="44.41468" lon="5.44253">
        <ele>721.6</ele>
        <time>2019-06-01T08:39:37Z</time>
      </trkpt>
      <trkpt lat="44.41478" lon="5.44252">
        <ele>721.3</ele>
        <time>2019-06-01T08:39:43Z</time>
      </trkpt>
      <trkpt lat="44.41487" lon="5.44256">
        <ele>721.4</ele>
        <time>2019-06-01T08:39:50Z</time>
      </trkpt>
      <trkpt lat="44.41496" lon="5.44261">
        <ele>722</ele>
        <time>2019-06-01T08:39:58Z</time>
      </trkpt>
      <trkpt lat="44.41504" lon="5.44269">
        <ele>722.4</ele>
        <time>2019-06-01T08:40:06Z</time>
      </trkpt>
      <trkpt lat="44.41511" lon="5.44277">
        <ele>722.8</ele>
        <time>2019-06-01T08:40:12Z</time>
      </trkpt>
      <trkpt lat="44.41519" lon="5.44286">
        <ele>723.3</ele>
        <time>2019-06-01T08:40:19Z</time>
      </trkpt>
      <trkpt lat="44.41529" lon="5.44288">
        <ele>724.1</ele>
        <time>2019-06-01T08:40:28Z</time>
      </trkpt>
      <trkpt lat="44.41537" lon="5.44281">
        <ele>724.6</ele>
        <time>2019-06-01T08:40:35Z</time>
      </trkpt>
      <trkpt lat="44.41543" lon="5.44272">
        <ele>725.2</ele>
        <time>2019-06-01T08:40:42Z</time>
      </trkpt>
      <trkpt lat="44.41551" lon="5.44265">
        <ele>726</ele>
        <time>2019-06-01T08:40:49Z</time>
      </trkpt>
      <trkpt lat="44.41561" lon="5.44266">
        <ele>727</ele>
        <time>2019-06-01T08:40:57Z</time>
      </trkpt>
      <trkpt lat="44.4157" lon="5.44265">
        <ele>727.8</ele>
        <time>2019-06-01T08:41:04Z</time>
      </trkpt>
      <trkpt lat="44.41579" lon="5.44261">
        <ele>728.9</ele>
        <time>2019-06-01T08:41:12Z</time>
      </trkpt>
      <trkpt lat="44.41588" lon="5.44256">
        <ele>730.7</ele>
        <time>2019-06-01T08:41:20Z</time>
      </trkpt>
      <trkpt lat="44.41596" lon="5.4425">
        <ele>732.1</ele>
        <time>2019-06-01T08:41:27Z</time>
      </trkpt>
      <trkpt lat="44.41605" lon="5.44248">
        <ele>733.5</ele>
        <time>2019-06-01T08:41:34Z</time>
      </trkpt>
      <trkpt lat="44.41614" lon="5.44247">
        <ele>734.8</ele>
        <time>2019-06-01T08:41:40Z</time>
      </trkpt>
      <trkpt lat="44.41624" lon="5.44246">
        <ele>735.7</ele>
        <time>2019-06-01T08:41:46Z</time>
      </trkpt>
      <trkpt lat="44.41634" lon="5.44245">
        <ele>736.7</ele>
        <time>2019-06-01T08:41:53Z</time>
      </trkpt>
      <trkpt lat="44.41642" lon="5.44241">
        <ele>737.9</ele>
        <time>2019-06-01T08:41:59Z</time>
      </trkpt>
      <trkpt lat="44.41649" lon="5.44232">
        <ele>738.9</ele>
        <time>2019-06-01T08:42:06Z</time>
      </trkpt>
      <trkpt lat="44.41654" lon="5.44221">
        <ele>739.9</ele>
        <time>2019-06-01T08:42:13Z</time>
      </trkpt>
      <trkpt lat="44.4166" lon="5.44211">
        <ele>741.1</ele>
        <time>2019-06-01T08:42:20Z</time>
      </trkpt>
      <trkpt lat="44.41666" lon="5.44199">
        <ele>741.8</ele>
        <time>2019-06-01T08:42:28Z</time>
      </trkpt>
      <trkpt lat="44.41672" lon="5.44188">
        <ele>742.9</ele>
        <time>2019-06-01T08:42:36Z</time>
      </trkpt>
      <trkpt lat="44.41677" lon="5.44177">
        <ele>743.9</ele>
        <time>2019-06-01T08:42:43Z</time>
      </trkpt>
      <trkpt lat="44.41682" lon="5.44166">
        <ele>744.9</ele>
        <time>2019-06-01T08:42:50Z</time>
      </trkpt>
      <trkpt lat="44.41686" lon="5.44155">
        <ele>745.6</ele>
        <time>2019-06-01T08:42:57Z</time>
      </trkpt>
      <trkpt lat="44.41691" lon="5.44144">
        <ele>746.5</ele>
        <time>2019-06-01T08:43:04Z</time>
      </trkpt>
      <trkpt lat="44.41696" lon="5.44132">
        <ele>747.4</ele>
        <time>2019-06-01T08:43:12Z</time>
      </trkpt>
      <trkpt lat="44.417" lon="5.44119">
        <ele>748.6</ele>
        <time>2019-06-01T08:43:21Z</time>
      </trkpt>
      <trkpt lat="44.41705" lon="5.44108">
        <ele>749.2</ele>
        <time>2019-06-01T08:43:29Z</time>
      </trkpt>
      <trkpt lat="44.41711" lon="5.44098">
        <ele>750.1</ele>
        <time>2019-06-01T08:43:37Z</time>
      </trkpt>
      <trkpt lat="44.41717" lon="5.44087">
        <ele>751</ele>
        <time>2019-06-01T08:43:44Z</time>
      </trkpt>
      <trkpt lat="44.41723" lon="5.44076">
        <ele>751.9</ele>
        <time>2019-06-01T08:43:51Z</time>
      </trkpt>
      <trkpt lat="44.4173" lon="5.44067">
        <ele>752.8</ele>
        <time>2019-06-01T08:43:59Z</time>
      </trkpt>
      <trkpt lat="44.41738" lon="5.44059">
        <ele>753.2</ele>
        <time>2019-06-01T08:44:06Z</time>
      </trkpt>
      <trkpt lat="44.41745" lon="5.44051">
        <ele>753.6</ele>
        <time>2019-06-01T08:44:13Z</time>
      </trkpt>
      <trkpt lat="44.41748" lon="5.44039">
        <ele>754</ele>
        <time>2019-06-01T08:44:20Z</time>
      </trkpt>
      <trkpt lat="44.41751" lon="5.44025">
        <ele>754.6</ele>
        <time>2019-06-01T08:44:27Z</time>
      </trkpt>
      <trkpt lat="44.41754" lon="5.44013">
        <ele>755.2</ele>
        <time>2019-06-01T08:44:34Z</time>
      </trkpt>
      <trkpt lat="44.41758" lon="5.44001">
        <ele>755.6</ele>
        <time>2019-06-01T08:44:41Z</time>
      </trkpt>
      <trkpt lat="44.41763" lon="5.4399">
        <ele>756.2</ele>
        <time>2019-06-01T08:44:48Z</time>
      </trkpt>
      <trkpt lat="44.41769" lon="5.43981">
        <ele>756.9</ele>
        <time>2019-06-01T08:44:55Z</time>
      </trkpt>
      <trkpt lat="44.41775" lon="5.4397">
        <ele>757.5</ele>
        <time>2019-06-01T08:45:02Z</time>
      </trkpt>
      <trkpt lat="44.41779" lon="5.43957">
        <ele>757.9</ele>
        <time>2019-06-01T08:45:09Z</time>
      </trkpt>
      <trkpt lat="44.41784" lon="5.43945">
        <ele>758.3</ele>
        <time>2019-06-01T08:45:16Z</time>
      </trkpt>
      <trkpt lat="44.4179" lon="5.43932">
        <ele>758.9</ele>
        <time>2019-06-01T08:45:23Z</time>
      </trkpt>
      <trkpt lat="44.41794" lon="5.43921">
        <ele>759.5</ele>
        <time>2019-06-01T08:45:30Z</time>
      </trkpt>
      <trkpt lat="44.41799" lon="5.43908">
        <ele>760.3</ele>
        <time>2019-06-01T08:45:37Z</time>
      </trkpt>
      <trkpt lat="44.41804" lon="5.43896">
        <ele>761.2</ele>
        <time>2019-06-01T08:45:44Z</time>
      </trkpt>
      <trkpt lat="44.4181" lon="5.43887">
        <ele>762.6</ele>
        <time>2019-06-01T08:45:57Z</time>
      </trkpt>
      <trkpt lat="44.4181" lon="5.43874">
        <ele>763.4</ele>
        <time>2019-06-01T08:46:06Z</time>
      </trkpt>
      <trkpt lat="44.41814" lon="5.43861">
        <ele>764.1</ele>
        <time>2019-06-01T08:46:14Z</time>
      </trkpt>
      <trkpt lat="44.41819" lon="5.4385">
        <ele>764.5</ele>
        <time>2019-06-01T08:46:21Z</time>
      </trkpt>
      <trkpt lat="44.41826" lon="5.43841">
        <ele>764.9</ele>
        <time>2019-06-01T08:46:28Z</time>
      </trkpt>
      <trkpt lat="44.41834" lon="5.43833">
        <ele>765.2</ele>
        <time>2019-06-01T08:46:37Z</time>
      </trkpt>
      <trkpt lat="44.41843" lon="5.43827">
        <ele>765.3</ele>
        <time>2019-06-01T08:46:45Z</time>
      </trkpt>
      <trkpt lat="44.41853" lon="5.43824">
        <ele>765.7</ele>
        <time>2019-06-01T08:46:54Z</time>
      </trkpt>
      <trkpt lat="44.41863" lon="5.43821">
        <ele>766.2</ele>
        <time>2019-06-01T08:47:02Z</time>
      </trkpt>
      <trkpt lat="44.41872" lon="5.4382">
        <ele>766.9</ele>
        <time>2019-06-01T08:47:10Z</time>
      </trkpt>
      <trkpt lat="44.41882" lon="5.43818">
        <ele>767.8</ele>
        <time>2019-06-01T08:47:18Z</time>
      </trkpt>
      <trkpt lat="44.41892" lon="5.43816">
        <ele>768.4</ele>
        <time>2019-06-01T08:47:25Z</time>
      </trkpt>
      <trkpt lat="44.41902" lon="5.43813">
        <ele>769.2</ele>
        <time>2019-06-01T08:47:32Z</time>
      </trkpt>
      <trkpt lat="44.41905" lon="5.43801">
        <ele>769.9</ele>
        <time>2019-06-01T08:47:41Z</time>
      </trkpt>
      <trkpt lat="44.41899" lon="5.4379">
        <ele>770.3</ele>
        <time>2019-06-01T08:47:48Z</time>
      </trkpt>
      <trkpt lat="44.41891" lon="5.43781">
        <ele>770.9</ele>
        <time>2019-06-01T08:47:55Z</time>
      </trkpt>
      <trkpt lat="44.41883" lon="5.43775">
        <ele>771.9</ele>
        <time>2019-06-01T08:48:03Z</time>
      </trkpt>
      <trkpt lat="44.41874" lon="5.4377">
        <ele>772.8</ele>
        <time>2019-06-01T08:48:12Z</time>
      </trkpt>
      <trkpt lat="44.41865" lon="5.43767">
        <ele>773.8</ele>
        <time>2019-06-01T08:48:20Z</time>
      </trkpt>
      <trkpt lat="44.41856" lon="5.43764">
        <ele>774.5</ele>
        <time>2019-06-01T08:48:28Z</time>
      </trkpt>
      <trkpt lat="44.41847" lon="5.43763">
        <ele>775.4</ele>
        <time>2019-06-01T08:48:36Z</time>
      </trkpt>
      <trkpt lat="44.41838" lon="5.43763">
        <ele>776.3</ele>
        <time>2019-06-01T08:48:43Z</time>
      </trkpt>
      <trkpt lat="44.41828" lon="5.43761">
        <ele>777.1</ele>
        <time>2019-06-01T08:48:50Z</time>
      </trkpt>
      <trkpt lat="44.41818" lon="5.4376">
        <ele>777.7</ele>
        <time>2019-06-01T08:48:56Z</time>
      </trkpt>
      <trkpt lat="44.4181" lon="5.43755">
        <ele>778.3</ele>
        <time>2019-06-01T08:49:03Z</time>
      </trkpt>
      <trkpt lat="44.41804" lon="5.43743">
        <ele>779.1</ele>
        <time>2019-06-01T08:49:11Z</time>
      </trkpt>
      <trkpt lat="44.41801" lon="5.43731">
        <ele>779.8</ele>
        <time>2019-06-01T08:49:19Z</time>
      </trkpt>
      <trkpt lat="44.41792" lon="5.43735">
        <ele>781.1</ele>
        <time>2019-06-01T08:49:30Z</time>
      </trkpt>
      <trkpt lat="44.41783" lon="5.43739">
        <ele>782.3</ele>
        <time>2019-06-01T08:49:39Z</time>
      </trkpt>
      <trkpt lat="44.41773" lon="5.43739">
        <ele>782.9</ele>
        <time>2019-06-01T08:49:48Z</time>
      </trkpt>
      <trkpt lat="44.41764" lon="5.43743">
        <ele>783.5</ele>
        <time>2019-06-01T08:49:55Z</time>
      </trkpt>
      <trkpt lat="44.41755" lon="5.43748">
        <ele>784.2</ele>
        <time>2019-06-01T08:50:02Z</time>
      </trkpt>
      <trkpt lat="44.41745" lon="5.4375">
        <ele>784.9</ele>
        <time>2019-06-01T08:50:09Z</time>
      </trkpt>
      <trkpt lat="44.41735" lon="5.4375">
        <ele>785.5</ele>
        <time>2019-06-01T08:50:16Z</time>
      </trkpt>
      <trkpt lat="44.41726" lon="5.43752">
        <ele>786.2</ele>
        <time>2019-06-01T08:50:23Z</time>
      </trkpt>
      <trkpt lat="44.41716" lon="5.43753">
        <ele>786.9</ele>
        <time>2019-06-01T08:50:32Z</time>
      </trkpt>
      <trkpt lat="44.41707" lon="5.43755">
        <ele>787.8</ele>
        <time>2019-06-01T08:50:39Z</time>
      </trkpt>
      <trkpt lat="44.41698" lon="5.43757">
        <ele>788.7</ele>
        <time>2019-06-01T08:50:46Z</time>
      </trkpt>
      <trkpt lat="44.41688" lon="5.43758">
        <ele>789.6</ele>
        <time>2019-06-01T08:50:53Z</time>
      </trkpt>
      <trkpt lat="44.41679" lon="5.43761">
        <ele>790.5</ele>
        <time>2019-06-01T08:51:01Z</time>
      </trkpt>
      <trkpt lat="44.41669" lon="5.43763">
        <ele>791.6</ele>
        <time>2019-06-01T08:51:09Z</time>
      </trkpt>
      <trkpt lat="44.4166" lon="5.43765">
        <ele>793</ele>
        <time>2019-06-01T08:51:18Z</time>
      </trkpt>
      <trkpt lat="44.41651" lon="5.43767">
        <ele>793.9</ele>
        <time>2019-06-01T08:51:26Z</time>
      </trkpt>
      <trkpt lat="44.41641" lon="5.43768">
        <ele>794.8</ele>
        <time>2019-06-01T08:51:33Z</time>
      </trkpt>
      <trkpt lat="44.41632" lon="5.4377">
        <ele>795.6</ele>
        <time>2019-06-01T08:51:40Z</time>
      </trkpt>
      <trkpt lat="44.41622" lon="5.43771">
        <ele>796.3</ele>
        <time>2019-06-01T08:51:48Z</time>
      </trkpt>
      <trkpt lat="44.41612" lon="5.4377">
        <ele>796.9</ele>
        <time>2019-06-01T08:51:54Z</time>
      </trkpt>
      <trkpt lat="44.41602" lon="5.4377">
        <ele>797.8</ele>
        <time>2019-06-01T08:52:00Z</time>
      </trkpt>
      <trkpt lat="44.41593" lon="5.43769">
        <ele>798.7</ele>
        <time>2019-06-01T08:52:06Z</time>
      </trkpt>
      <trkpt lat="44.41583" lon="5.43769">
        <ele>799.6</ele>
        <time>2019-06-01T08:52:13Z</time>
      </trkpt>
      <trkpt lat="44.41574" lon="5.43768">
        <ele>800.5</ele>
        <time>2019-06-01T08:52:21Z</time>
      </trkpt>
      <trkpt lat="44.41564" lon="5.43768">
        <ele>801.4</ele>
        <time>2019-06-01T08:52:29Z</time>
      </trkpt>
      <trkpt lat="44.41555" lon="5.43772">
        <ele>802.9</ele>
        <time>2019-06-01T08:52:37Z</time>
      </trkpt>
      <trkpt lat="44.41546" lon="5.4378">
        <ele>803.8</ele>
        <time>2019-06-01T08:52:44Z</time>
      </trkpt>
      <trkpt lat="44.41538" lon="5.43787">
        <ele>804.8</ele>
        <time>2019-06-01T08:52:51Z</time>
      </trkpt>
      <trkpt lat="44.41529" lon="5.43793">
        <ele>806.2</ele>
        <time>2019-06-01T08:52:58Z</time>
      </trkpt>
      <trkpt lat="44.4152" lon="5.43798">
        <ele>807</ele>
        <time>2019-06-01T08:53:04Z</time>
      </trkpt>
      <trkpt lat="44.41512" lon="5.43803">
        <ele>807.7</ele>
        <time>2019-06-01T08:53:10Z</time>
      </trkpt>
      <trkpt lat="44.41503" lon="5.43808">
        <ele>808.4</ele>
        <time>2019-06-01T08:53:17Z</time>
      </trkpt>
      <trkpt lat="44.41493" lon="5.43814">
        <ele>809</ele>
        <time>2019-06-01T08:53:24Z</time>
      </trkpt>
      <trkpt lat="44.41486" lon="5.43824">
        <ele>809.6</ele>
        <time>2019-06-01T08:53:31Z</time>
      </trkpt>
      <trkpt lat="44.41477" lon="5.4383">
        <ele>810.3</ele>
        <time>2019-06-01T08:53:38Z</time>
      </trkpt>
      <trkpt lat="44.4148" lon="5.43817">
        <ele>811.3</ele>
        <time>2019-06-01T08:53:56Z</time>
      </trkpt>
      <trkpt lat="44.41487" lon="5.43809">
        <ele>812.3</ele>
        <time>2019-06-01T08:54:06Z</time>
      </trkpt>
      <trkpt lat="44.41496" lon="5.43802">
        <ele>813</ele>
        <time>2019-06-01T08:54:14Z</time>
      </trkpt>
      <trkpt lat="44.41504" lon="5.43795">
        <ele>813.7</ele>
        <time>2019-06-01T08:54:21Z</time>
      </trkpt>
      <trkpt lat="44.41511" lon="5.43786">
        <ele>814.7</ele>
        <time>2019-06-01T08:54:28Z</time>
      </trkpt>
      <trkpt lat="44.41518" lon="5.43775">
        <ele>815.4</ele>
        <time>2019-06-01T08:54:34Z</time>
      </trkpt>
      <trkpt lat="44.41523" lon="5.43764">
        <ele>816.4</ele>
        <time>2019-06-01T08:54:40Z</time>
      </trkpt>
      <trkpt lat="44.41527" lon="5.43752">
        <ele>817.4</ele>
        <time>2019-06-01T08:54:47Z</time>
      </trkpt>
      <trkpt lat="44.4153" lon="5.43739">
        <ele>818.3</ele>
        <time>2019-06-01T08:54:54Z</time>
      </trkpt>
      <trkpt lat="44.41531" lon="5.43727">
        <ele>819.4</ele>
        <time>2019-06-01T08:55:01Z</time>
      </trkpt>
      <trkpt lat="44.4153" lon="5.43713">
        <ele>820.1</ele>
        <time>2019-06-01T08:55:09Z</time>
      </trkpt>
      <trkpt lat="44.41534" lon="5.43701">
        <ele>820.8</ele>
        <time>2019-06-01T08:55:16Z</time>
      </trkpt>
      <trkpt lat="44.4154" lon="5.4369">
        <ele>821.6</ele>
        <time>2019-06-01T08:55:25Z</time>
      </trkpt>
      <trkpt lat="44.4155" lon="5.43685">
        <ele>822.5</ele>
        <time>2019-06-01T08:55:32Z</time>
      </trkpt>
      <trkpt lat="44.4156" lon="5.43684">
        <ele>823.2</ele>
        <time>2019-06-01T08:55:38Z</time>
      </trkpt>
      <trkpt lat="44.41569" lon="5.43682">
        <ele>824.1</ele>
        <time>2019-06-01T08:55:45Z</time>
      </trkpt>
      <trkpt lat="44.41578" lon="5.43679">
        <ele>825</ele>
        <time>2019-06-01T08:55:53Z</time>
      </trkpt>
      <trkpt lat="44.41586" lon="5.43673">
        <ele>825.9</ele>
        <time>2019-06-01T08:55:59Z</time>
      </trkpt>
      <trkpt lat="44.41594" lon="5.43666">
        <ele>826.4</ele>
        <time>2019-06-01T08:56:06Z</time>
      </trkpt>
      <trkpt lat="44.41601" lon="5.43656">
        <ele>827</ele>
        <time>2019-06-01T08:56:14Z</time>
      </trkpt>
      <trkpt lat="44.41608" lon="5.43647">
        <ele>827.4</ele>
        <time>2019-06-01T08:56:20Z</time>
      </trkpt>
      <trkpt lat="44.41614" lon="5.43638">
        <ele>827.8</ele>
        <time>2019-06-01T08:56:27Z</time>
      </trkpt>
      <trkpt lat="44.41621" lon="5.4363">
        <ele>828.7</ele>
        <time>2019-06-01T08:56:34Z</time>
      </trkpt>
      <trkpt lat="44.41629" lon="5.4362">
        <ele>829.8</ele>
        <time>2019-06-01T08:56:42Z</time>
      </trkpt>
      <trkpt lat="44.41635" lon="5.43609">
        <ele>831.3</ele>
        <time>2019-06-01T08:56:50Z</time>
      </trkpt>
      <trkpt lat="44.4164" lon="5.43595">
        <ele>832.2</ele>
        <time>2019-06-01T08:56:56Z</time>
      </trkpt>
      <trkpt lat="44.41646" lon="5.43585">
        <ele>832.9</ele>
        <time>2019-06-01T08:57:01Z</time>
      </trkpt>
      <trkpt lat="44.41654" lon="5.43579">
        <ele>834.5</ele>
        <time>2019-06-01T08:57:08Z</time>
      </trkpt>
      <trkpt lat="44.41662" lon="5.43573">
        <ele>836.2</ele>
        <time>2019-06-01T08:57:16Z</time>
      </trkpt>
      <trkpt lat="44.4167" lon="5.43565">
        <ele>837.7</ele>
        <time>2019-06-01T08:57:24Z</time>
      </trkpt>
      <trkpt lat="44.41676" lon="5.43556">
        <ele>839.1</ele>
        <time>2019-06-01T08:57:32Z</time>
      </trkpt>
      <trkpt lat="44.41682" lon="5.43546">
        <ele>840.2</ele>
        <time>2019-06-01T08:57:39Z</time>
      </trkpt>
      <trkpt lat="44.41688" lon="5.43537">
        <ele>841.5</ele>
        <time>2019-06-01T08:57:45Z</time>
      </trkpt>
      <trkpt lat="44.41693" lon="5.43525">
        <ele>842.3</ele>
        <time>2019-06-01T08:57:52Z</time>
      </trkpt>
      <trkpt lat="44.41699" lon="5.43515">
        <ele>843.7</ele>
        <time>2019-06-01T08:57:59Z</time>
      </trkpt>
      <trkpt lat="44.41707" lon="5.43508">
        <ele>846.4</ele>
        <time>2019-06-01T08:58:16Z</time>
      </trkpt>
      <trkpt lat="44.41713" lon="5.43498">
        <ele>847.2</ele>
        <time>2019-06-01T08:58:26Z</time>
      </trkpt>
      <trkpt lat="44.41718" lon="5.43487">
        <ele>847.9</ele>
        <time>2019-06-01T08:58:35Z</time>
      </trkpt>
      <trkpt lat="44.41722" lon="5.43475">
        <ele>848.3</ele>
        <time>2019-06-01T08:58:42Z</time>
      </trkpt>
      <trkpt lat="44.41724" lon="5.43461">
        <ele>848.8</ele>
        <time>2019-06-01T08:58:49Z</time>
      </trkpt>
      <trkpt lat="44.4173" lon="5.43451">
        <ele>849.3</ele>
        <time>2019-06-01T08:58:56Z</time>
      </trkpt>
      <trkpt lat="44.41737" lon="5.43441">
        <ele>850.3</ele>
        <time>2019-06-01T08:59:04Z</time>
      </trkpt>
      <trkpt lat="44.41743" lon="5.43431">
        <ele>851.3</ele>
        <time>2019-06-01T08:59:12Z</time>
      </trkpt>
      <trkpt lat="44.41748" lon="5.43419">
        <ele>852.5</ele>
        <time>2019-06-01T08:59:21Z</time>
      </trkpt>
      <trkpt lat="44.41754" lon="5.43408">
        <ele>853.3</ele>
        <time>2019-06-01T08:59:29Z</time>
      </trkpt>
      <trkpt lat="44.4176" lon="5.43399">
        <ele>853.8</ele>
        <time>2019-06-01T08:59:36Z</time>
      </trkpt>
      <trkpt lat="44.41766" lon="5.43388">
        <ele>854.4</ele>
        <time>2019-06-01T08:59:43Z</time>
      </trkpt>
      <trkpt lat="44.41771" lon="5.43376">
        <ele>854.9</ele>
        <time>2019-06-01T08:59:50Z</time>
      </trkpt>
      <trkpt lat="44.41777" lon="5.43366">
        <ele>855.5</ele>
        <time>2019-06-01T08:59:57Z</time>
      </trkpt>
      <trkpt lat="44.41783" lon="5.43356">
        <ele>856.5</ele>
        <time>2019-06-01T09:00:05Z</time>
      </trkpt>
      <trkpt lat="44.41789" lon="5.43346">
        <ele>857.7</ele>
        <time>2019-06-01T09:00:14Z</time>
      </trkpt>
      <trkpt lat="44.41796" lon="5.43336">
        <ele>859</ele>
        <time>2019-06-01T09:00:24Z</time>
      </trkpt>
      <trkpt lat="44.41804" lon="5.43331">
        <ele>860.2</ele>
        <time>2019-06-01T09:00:32Z</time>
      </trkpt>
      <trkpt lat="44.41814" lon="5.43328">
        <ele>861.3</ele>
        <time>2019-06-01T09:00:40Z</time>
      </trkpt>
      <trkpt lat="44.41823" lon="5.43328">
        <ele>862.2</ele>
        <time>2019-06-01T09:00:47Z</time>
      </trkpt>
      <trkpt lat="44.41832" lon="5.43329">
        <ele>863.4</ele>
        <time>2019-06-01T09:00:54Z</time>
      </trkpt>
      <trkpt lat="44.41842" lon="5.43328">
        <ele>864.3</ele>
        <time>2019-06-01T09:01:02Z</time>
      </trkpt>
      <trkpt lat="44.41851" lon="5.43332">
        <ele>865.3</ele>
        <time>2019-06-01T09:01:10Z</time>
      </trkpt>
      <trkpt lat="44.41857" lon="5.43342">
        <ele>866.7</ele>
        <time>2019-06-01T09:01:19Z</time>
      </trkpt>
      <trkpt lat="44.41863" lon="5.43353">
        <ele>868.2</ele>
        <time>2019-06-01T09:01:27Z</time>
      </trkpt>
      <trkpt lat="44.41866" lon="5.43365">
        <ele>869.8</ele>
        <time>2019-06-01T09:01:46Z</time>
      </trkpt>
      <trkpt lat="44.4187" lon="5.43377">
        <ele>870.5</ele>
        <time>2019-06-01T09:01:54Z</time>
      </trkpt>
      <trkpt lat="44.41874" lon="5.43388">
        <ele>871.2</ele>
        <time>2019-06-01T09:02:02Z</time>
      </trkpt>
      <trkpt lat="44.4188" lon="5.434">
        <ele>872.1</ele>
        <time>2019-06-01T09:02:11Z</time>
      </trkpt>
      <trkpt lat="44.41888" lon="5.43407">
        <ele>872.9</ele>
        <time>2019-06-01T09:02:20Z</time>
      </trkpt>
      <trkpt lat="44.41896" lon="5.43414">
        <ele>873.5</ele>
        <time>2019-06-01T09:02:29Z</time>
      </trkpt>
      <trkpt lat="44.41904" lon="5.43421">
        <ele>874.3</ele>
        <time>2019-06-01T09:02:38Z</time>
      </trkpt>
      <trkpt lat="44.41913" lon="5.43427">
        <ele>875.1</ele>
        <time>2019-06-01T09:02:48Z</time>
      </trkpt>
      <trkpt lat="44.41922" lon="5.43433">
        <ele>876.1</ele>
        <time>2019-06-01T09:02:57Z</time>
      </trkpt>
      <trkpt lat="44.4193" lon="5.43441">
        <ele>876.8</ele>
        <time>2019-06-01T09:03:05Z</time>
      </trkpt>
      <trkpt lat="44.41938" lon="5.43449">
        <ele>877.9</ele>
        <time>2019-06-01T09:03:13Z</time>
      </trkpt>
      <trkpt lat="44.41945" lon="5.43458">
        <ele>878.7</ele>
        <time>2019-06-01T09:03:21Z</time>
      </trkpt>
      <trkpt lat="44.41952" lon="5.43467">
        <ele>880.3</ele>
        <time>2019-06-01T09:03:29Z</time>
      </trkpt>
      <trkpt lat="44.41957" lon="5.43477">
        <ele>881.5</ele>
        <time>2019-06-01T09:03:36Z</time>
      </trkpt>
      <trkpt lat="44.41966" lon="5.43474">
        <ele>883.5</ele>
        <time>2019-06-01T09:04:10Z</time>
      </trkpt>
      <trkpt lat="44.41968" lon="5.43461">
        <ele>884.4</ele>
        <time>2019-06-01T09:04:18Z</time>
      </trkpt>
      <trkpt lat="44.41969" lon="5.43448">
        <ele>886.2</ele>
        <time>2019-06-01T09:04:38Z</time>
      </trkpt>
      <trkpt lat="44.41968" lon="5.43435">
        <ele>887.8</ele>
        <time>2019-06-01T09:05:59Z</time>
      </trkpt>
      <trkpt lat="44.41963" lon="5.43424">
        <ele>887.7</ele>
        <time>2019-06-01T09:06:12Z</time>
      </trkpt>
      <trkpt lat="44.41958" lon="5.43413">
        <ele>888</ele>
        <time>2019-06-01T09:06:21Z</time>
      </trkpt>
      <trkpt lat="44.41953" lon="5.43401">
        <ele>888.9</ele>
        <time>2019-06-01T09:06:30Z</time>
      </trkpt>
      <trkpt lat="44.41947" lon="5.4339">
        <ele>889.9</ele>
        <time>2019-06-01T09:06:39Z</time>
      </trkpt>
      <trkpt lat="44.4194" lon="5.4338">
        <ele>890.8</ele>
        <time>2019-06-01T09:06:47Z</time>
      </trkpt>
      <trkpt lat="44.41933" lon="5.4337">
        <ele>891.7</ele>
        <time>2019-06-01T09:06:55Z</time>
      </trkpt>
      <trkpt lat="44.41928" lon="5.4336">
        <ele>892.4</ele>
        <time>2019-06-01T09:07:02Z</time>
      </trkpt>
      <trkpt lat="44.41922" lon="5.43348">
        <ele>893</ele>
        <time>2019-06-01T09:07:10Z</time>
      </trkpt>
      <trkpt lat="44.41919" lon="5.43335">
        <ele>893.7</ele>
        <time>2019-06-01T09:07:18Z</time>
      </trkpt>
      <trkpt lat="44.41917" lon="5.43321">
        <ele>894.8</ele>
        <time>2019-06-01T09:07:25Z</time>
      </trkpt>
      <trkpt lat="44.41917" lon="5.43308">
        <ele>895.7</ele>
        <time>2019-06-01T09:07:32Z</time>
      </trkpt>
      <trkpt lat="44.41915" lon="5.43295">
        <ele>896.7</ele>
        <time>2019-06-01T09:07:39Z</time>
      </trkpt>
      <trkpt lat="44.41913" lon="5.43283">
        <ele>897.6</ele>
        <time>2019-06-01T09:07:46Z</time>
      </trkpt>
      <trkpt lat="44.4191" lon="5.43269">
        <ele>898.7</ele>
        <time>2019-06-01T09:07:54Z</time>
      </trkpt>
      <trkpt lat="44.41908" lon="5.43256">
        <ele>899.7</ele>
        <time>2019-06-01T09:08:02Z</time>
      </trkpt>
      <trkpt lat="44.41905" lon="5.43243">
        <ele>900.6</ele>
        <time>2019-06-01T09:08:10Z</time>
      </trkpt>
      <trkpt lat="44.41901" lon="5.4323">
        <ele>901.8</ele>
        <time>2019-06-01T09:08:19Z</time>
      </trkpt>
      <trkpt lat="44.41897" lon="5.43219">
        <ele>903</ele>
        <time>2019-06-01T09:08:28Z</time>
      </trkpt>
      <trkpt lat="44.41892" lon="5.43207">
        <ele>904</ele>
        <time>2019-06-01T09:08:37Z</time>
      </trkpt>
      <trkpt lat="44.41884" lon="5.43201">
        <ele>904.8</ele>
        <time>2019-06-01T09:08:46Z</time>
      </trkpt>
      <trkpt lat="44.41876" lon="5.43192">
        <ele>905.2</ele>
        <time>2019-06-01T09:08:53Z</time>
      </trkpt>
      <trkpt lat="44.41884" lon="5.43185">
        <ele>906.1</ele>
        <time>2019-06-01T09:09:04Z</time>
      </trkpt>
      <trkpt lat="44.41894" lon="5.43188">
        <ele>907</ele>
        <time>2019-06-01T09:09:13Z</time>
      </trkpt>
      <trkpt lat="44.41901" lon="5.43196">
        <ele>907.5</ele>
        <time>2019-06-01T09:09:21Z</time>
      </trkpt>
      <trkpt lat="44.41909" lon="5.43201">
        <ele>908.5</ele>
        <time>2019-06-01T09:09:29Z</time>
      </trkpt>
      <trkpt lat="44.41917" lon="5.43193">
        <ele>909.5</ele>
        <time>2019-06-01T09:09:38Z</time>
      </trkpt>
      <trkpt lat="44.41918" lon="5.4318">
        <ele>910.9</ele>
        <time>2019-06-01T09:10:00Z</time>
      </trkpt>
      <trkpt lat="44.41916" lon="5.43167">
        <ele>912.1</ele>
        <time>2019-06-01T09:10:10Z</time>
      </trkpt>
      <trkpt lat="44.4191" lon="5.43157">
        <ele>913.8</ele>
        <time>2019-06-01T09:10:20Z</time>
      </trkpt>
      <trkpt lat="44.41906" lon="5.43144">
        <ele>915.6</ele>
        <time>2019-06-01T09:10:29Z</time>
      </trkpt>
      <trkpt lat="44.41904" lon="5.43131">
        <ele>917.1</ele>
        <time>2019-06-01T09:10:37Z</time>
      </trkpt>
      <trkpt lat="44.41901" lon="5.43119">
        <ele>918.4</ele>
        <time>2019-06-01T09:10:44Z</time>
      </trkpt>
      <trkpt lat="44.419" lon="5.43106">
        <ele>920.3</ele>
        <time>2019-06-01T09:10:52Z</time>
      </trkpt>
      <trkpt lat="44.41898" lon="5.43093">
        <ele>922.6</ele>
        <time>2019-06-01T09:11:00Z</time>
      </trkpt>
      <trkpt lat="44.41897" lon="5.4308">
        <ele>924.5</ele>
        <time>2019-06-01T09:11:08Z</time>
      </trkpt>
      <trkpt lat="44.41899" lon="5.43067">
        <ele>926.1</ele>
        <time>2019-06-01T09:11:16Z</time>
      </trkpt>
      <trkpt lat="44.41901" lon="5.43055">
        <ele>927.2</ele>
        <time>2019-06-01T09:11:25Z</time>
      </trkpt>
      <trkpt lat="44.41903" lon="5.43043">
        <ele>928.3</ele>
        <time>2019-06-01T09:11:34Z</time>
      </trkpt>
      <trkpt lat="44.41907" lon="5.4303">
        <ele>929.5</ele>
        <time>2019-06-01T09:11:44Z</time>
      </trkpt>
      <trkpt lat="44.41909" lon="5.43018">
        <ele>931.4</ele>
        <time>2019-06-01T09:11:52Z</time>
      </trkpt>
      <trkpt lat="44.41912" lon="5.43005">
        <ele>933.7</ele>
        <time>2019-06-01T09:12:03Z</time>
      </trkpt>
      <trkpt lat="44.41914" lon="5.42992">
        <ele>938.3</ele>
        <time>2019-06-01T09:12:31Z</time>
      </trkpt>
      <trkpt lat="44.41919" lon="5.4298">
        <ele>940</ele>
        <time>2019-06-01T09:12:43Z</time>
      </trkpt>
      <trkpt lat="44.41925" lon="5.4297">
        <ele>941.8</ele>
        <time>2019-06-01T09:12:52Z</time>
      </trkpt>
      <trkpt lat="44.41929" lon="5.42956">
        <ele>943.9</ele>
        <time>2019-06-01T09:13:01Z</time>
      </trkpt>
      <trkpt lat="44.41929" lon="5.42943">
        <ele>945.3</ele>
        <time>2019-06-01T09:13:08Z</time>
      </trkpt>
      <trkpt lat="44.41931" lon="5.4293">
        <ele>946.8</ele>
        <time>2019-06-01T09:13:15Z</time>
      </trkpt>
      <trkpt lat="44.41935" lon="5.42919">
        <ele>948.3</ele>
        <time>2019-06-01T09:13:22Z</time>
      </trkpt>
      <trkpt lat="44.41937" lon="5.42905">
        <ele>950</ele>
        <time>2019-06-01T09:13:30Z</time>
      </trkpt>
      <trkpt lat="44.4194" lon="5.42891">
        <ele>951.3</ele>
        <time>2019-06-01T09:13:38Z</time>
      </trkpt>
      <trkpt lat="44.41945" lon="5.4288">
        <ele>952</ele>
        <time>2019-06-01T09:13:48Z</time>
      </trkpt>
      <trkpt lat="44.41953" lon="5.42873">
        <ele>952.1</ele>
        <time>2019-06-01T09:14:03Z</time>
      </trkpt>
      <trkpt lat="44.41961" lon="5.42879">
        <ele>953</ele>
        <time>2019-06-01T09:14:19Z</time>
      </trkpt>
      <trkpt lat="44.41968" lon="5.42887">
        <ele>954.8</ele>
        <time>2019-06-01T09:14:31Z</time>
      </trkpt>
      <trkpt lat="44.41976" lon="5.42894">
        <ele>957.7</ele>
        <time>2019-06-01T09:14:43Z</time>
      </trkpt>
      <trkpt lat="44.41984" lon="5.429">
        <ele>960.6</ele>
        <time>2019-06-01T09:14:53Z</time>
      </trkpt>
      <trkpt lat="44.41993" lon="5.42907">
        <ele>963.5</ele>
        <time>2019-06-01T09:15:03Z</time>
      </trkpt>
      <trkpt lat="44.42001" lon="5.42914">
        <ele>965.6</ele>
        <time>2019-06-01T09:15:12Z</time>
      </trkpt>
      <trkpt lat="44.42009" lon="5.42922">
        <ele>968</ele>
        <time>2019-06-01T09:15:21Z</time>
      </trkpt>
      <trkpt lat="44.42015" lon="5.42931">
        <ele>969.3</ele>
        <time>2019-06-01T09:15:29Z</time>
      </trkpt>
      <trkpt lat="44.42024" lon="5.42935">
        <ele>970.9</ele>
        <time>2019-06-01T09:15:38Z</time>
      </trkpt>
      <trkpt lat="44.42033" lon="5.42938">
        <ele>972.6</ele>
        <time>2019-06-01T09:15:48Z</time>
      </trkpt>
      <trkpt lat="44.42042" lon="5.42942">
        <ele>975.8</ele>
        <time>2019-06-01T09:16:01Z</time>
      </trkpt>
      <trkpt lat="44.42052" lon="5.42944">
        <ele>977.3</ele>
        <time>2019-06-01T09:16:11Z</time>
      </trkpt>
      <trkpt lat="44.42061" lon="5.42942">
        <ele>979.6</ele>
        <time>2019-06-01T09:16:23Z</time>
      </trkpt>
      <trkpt lat="44.42063" lon="5.42929">
        <ele>982.4</ele>
        <time>2019-06-01T09:16:35Z</time>
      </trkpt>
      <trkpt lat="44.42065" lon="5.42916">
        <ele>985.3</ele>
        <time>2019-06-01T09:16:45Z</time>
      </trkpt>
      <trkpt lat="44.42068" lon="5.42903">
        <ele>988.6</ele>
        <time>2019-06-01T09:16:56Z</time>
      </trkpt>
      <trkpt lat="44.4207" lon="5.4289">
        <ele>996.2</ele>
        <time>2019-06-01T09:17:32Z</time>
      </trkpt>
      <trkpt lat="44.42072" lon="5.42877">
        <ele>997.8</ele>
        <time>2019-06-01T09:17:43Z</time>
      </trkpt>
      <trkpt lat="44.42075" lon="5.42864">
        <ele>1000.6</ele>
        <time>2019-06-01T09:17:53Z</time>
      </trkpt>
      <trkpt lat="44.4208" lon="5.42853">
        <ele>1003.3</ele>
        <time>2019-06-01T09:18:02Z</time>
      </trkpt>
      <trkpt lat="44.42083" lon="5.4284">
        <ele>1006.9</ele>
        <time>2019-06-01T09:18:11Z</time>
      </trkpt>
      <trkpt lat="44.42086" lon="5.42828">
        <ele>1010.7</ele>
        <time>2019-06-01T09:18:21Z</time>
      </trkpt>
      <trkpt lat="44.42092" lon="5.42818">
        <ele>1014.2</ele>
        <time>2019-06-01T09:18:31Z</time>
      </trkpt>
      <trkpt lat="44.42096" lon="5.42806">
        <ele>1017.4</ele>
        <time>2019-06-01T09:18:41Z</time>
      </trkpt>
      <trkpt lat="44.42097" lon="5.42792">
        <ele>1020.1</ele>
        <time>2019-06-01T09:18:51Z</time>
      </trkpt>
      <trkpt lat="44.42103" lon="5.42783">
        <ele>1027.1</ele>
        <time>2019-06-01T09:20:05Z</time>
      </trkpt>
      <trkpt lat="44.42108" lon="5.42772">
        <ele>1026.5</ele>
        <time>2019-06-01T09:20:58Z</time>
      </trkpt>
      <trkpt lat="44.42106" lon="5.42759">
        <ele>1027.1</ele>
        <time>2019-06-01T09:21:08Z</time>
      </trkpt>
      <trkpt lat="44.42103" lon="5.42746">
        <ele>1028.8</ele>
        <time>2019-06-01T09:21:18Z</time>
      </trkpt>
      <trkpt lat="44.42095" lon="5.42738">
        <ele>1030.5</ele>
        <time>2019-06-01T09:21:28Z</time>
      </trkpt>
      <trkpt lat="44.42087" lon="5.42731">
        <ele>1031.7</ele>
        <time>2019-06-01T09:21:36Z</time>
      </trkpt>
      <trkpt lat="44.42083" lon="5.42719">
        <ele>1032.9</ele>
        <time>2019-06-01T09:21:44Z</time>
      </trkpt>
      <trkpt lat="44.42078" lon="5.42707">
        <ele>1034.1</ele>
        <time>2019-06-01T09:21:53Z</time>
      </trkpt>
      <trkpt lat="44.42074" lon="5.42694">
        <ele>1035.1</ele>
        <time>2019-06-01T09:22:01Z</time>
      </trkpt>
      <trkpt lat="44.4207" lon="5.42682">
        <ele>1035.9</ele>
        <time>2019-06-01T09:22:09Z</time>
      </trkpt>
      <trkpt lat="44.42068" lon="5.42668">
        <ele>1036.8</ele>
        <time>2019-06-01T09:22:17Z</time>
      </trkpt>
      <trkpt lat="44.42066" lon="5.42655">
        <ele>1038.4</ele>
        <time>2019-06-01T09:22:25Z</time>
      </trkpt>
      <trkpt lat="44.42061" lon="5.42643">
        <ele>1039.6</ele>
        <time>2019-06-01T09:22:34Z</time>
      </trkpt>
      <trkpt lat="44.42055" lon="5.42632">
        <ele>1040.3</ele>
        <time>2019-06-01T09:22:42Z</time>
      </trkpt>
      <trkpt lat="44.42053" lon="5.42619">
        <ele>1041.6</ele>
        <time>2019-06-01T09:22:50Z</time>
      </trkpt>
      <trkpt lat="44.42051" lon="5.42604">
        <ele>1042.5</ele>
        <time>2019-06-01T09:22:58Z</time>
      </trkpt>
      <trkpt lat="44.42046" lon="5.42593">
        <ele>1043.4</ele>
        <time>2019-06-01T09:23:05Z</time>
      </trkpt>
      <trkpt lat="44.42044" lon="5.4258">
        <ele>1044.5</ele>
        <time>2019-06-01T09:23:13Z</time>
      </trkpt>
      <trkpt lat="44.42042" lon="5.42568">
        <ele>1045.8</ele>
        <time>2019-06-01T09:23:21Z</time>
      </trkpt>
      <trkpt lat="44.42038" lon="5.42555">
        <ele>1046.9</ele>
        <time>2019-06-01T09:23:29Z</time>
      </trkpt>
      <trkpt lat="44.42035" lon="5.42543">
        <ele>1047.6</ele>
        <time>2019-06-01T09:23:36Z</time>
      </trkpt>
      <trkpt lat="44.42031" lon="5.42531">
        <ele>1048.3</ele>
        <time>2019-06-01T09:23:44Z</time>
      </trkpt>
      <trkpt lat="44.42025" lon="5.4252">
        <ele>1049.2</ele>
        <time>2019-06-01T09:23:53Z</time>
      </trkpt>
      <trkpt lat="44.4202" lon="5.42508">
        <ele>1049.6</ele>
        <time>2019-06-01T09:24:01Z</time>
      </trkpt>
      <trkpt lat="44.42016" lon="5.42496">
        <ele>1050.1</ele>
        <time>2019-06-01T09:24:09Z</time>
      </trkpt>
      <trkpt lat="44.42012" lon="5.42483">
        <ele>1050.3</ele>
        <time>2019-06-01T09:24:17Z</time>
      </trkpt>
      <trkpt lat="44.42007" lon="5.42473">
        <ele>1050.5</ele>
        <time>2019-06-01T09:24:25Z</time>
      </trkpt>
      <trkpt lat="44.42005" lon="5.4246">
        <ele>1051.3</ele>
        <time>2019-06-01T09:24:33Z</time>
      </trkpt>
      <trkpt lat="44.42001" lon="5.42447">
        <ele>1052</ele>
        <time>2019-06-01T09:24:41Z</time>
      </trkpt>
      <trkpt lat="44.41998" lon="5.42434">
        <ele>1052.9</ele>
        <time>2019-06-01T09:24:49Z</time>
      </trkpt>
      <trkpt lat="44.41995" lon="5.42422">
        <ele>1053.8</ele>
        <time>2019-06-01T09:24:56Z</time>
      </trkpt>
      <trkpt lat="44.41992" lon="5.42409">
        <ele>1055.1</ele>
        <time>2019-06-01T09:25:04Z</time>
      </trkpt>
      <trkpt lat="44.41988" lon="5.42396">
        <ele>1056.4</ele>
        <time>2019-06-01T09:25:13Z</time>
      </trkpt>
      <trkpt lat="44.41985" lon="5.42384">
        <ele>1058.1</ele>
        <time>2019-06-01T09:25:22Z</time>
      </trkpt>
      <trkpt lat="44.41981" lon="5.42372">
        <ele>1059.4</ele>
        <time>2019-06-01T09:25:30Z</time>
      </trkpt>
      <trkpt lat="44.41974" lon="5.42361">
        <ele>1060.2</ele>
        <time>2019-06-01T09:25:38Z</time>
      </trkpt>
      <trkpt lat="44.4197" lon="5.4235">
        <ele>1060.9</ele>
        <time>2019-06-01T09:25:45Z</time>
      </trkpt>
      <trkpt lat="44.41971" lon="5.42336">
        <ele>1062</ele>
        <time>2019-06-01T09:25:53Z</time>
      </trkpt>
      <trkpt lat="44.4197" lon="5.42323">
        <ele>1063.3</ele>
        <time>2019-06-01T09:26:01Z</time>
      </trkpt>
      <trkpt lat="44.41965" lon="5.42312">
        <ele>1064.6</ele>
        <time>2019-06-01T09:26:10Z</time>
      </trkpt>
      <trkpt lat="44.4196" lon="5.423">
        <ele>1065.5</ele>
        <time>2019-06-01T09:26:19Z</time>
      </trkpt>
      <trkpt lat="44.41956" lon="5.42288">
        <ele>1065.9</ele>
        <time>2019-06-01T09:26:26Z</time>
      </trkpt>
      <trkpt lat="44.41952" lon="5.42276">
        <ele>1066.3</ele>
        <time>2019-06-01T09:26:34Z</time>
      </trkpt>
      <trkpt lat="44.41949" lon="5.42263">
        <ele>1066.9</ele>
        <time>2019-06-01T09:26:41Z</time>
      </trkpt>
      <trkpt lat="44.41948" lon="5.42249">
        <ele>1067.1</ele>
        <time>2019-06-01T09:26:48Z</time>
      </trkpt>
      <trkpt lat="44.41946" lon="5.42235">
        <ele>1066.7</ele>
        <time>2019-06-01T09:26:55Z</time>
      </trkpt>
      <trkpt lat="44.41944" lon="5.42222">
        <ele>1066.7</ele>
        <time>2019-06-01T09:27:02Z</time>
      </trkpt>
      <trkpt lat="44.41941" lon="5.42209">
        <ele>1066.7</ele>
        <time>2019-06-01T09:27:11Z</time>
      </trkpt>
      <trkpt lat="44.41937" lon="5.42196">
        <ele>1066.6</ele>
        <time>2019-06-01T09:27:20Z</time>
      </trkpt>
      <trkpt lat="44.41934" lon="5.42184">
        <ele>1066.5</ele>
        <time>2019-06-01T09:27:29Z</time>
      </trkpt>
      <trkpt lat="44.41931" lon="5.42171">
        <ele>1066</ele>
        <time>2019-06-01T09:27:39Z</time>
      </trkpt>
      <trkpt lat="44.41927" lon="5.42159">
        <ele>1065.6</ele>
        <time>2019-06-01T09:27:49Z</time>
      </trkpt>
      <trkpt lat="44.41922" lon="5.42147">
        <ele>1066.1</ele>
        <time>2019-06-01T09:27:57Z</time>
      </trkpt>
      <trkpt lat="44.41919" lon="5.42134">
        <ele>1066.3</ele>
        <time>2019-06-01T09:28:04Z</time>
      </trkpt>
      <trkpt lat="44.41918" lon="5.4212">
        <ele>1066.4</ele>
        <time>2019-06-01T09:28:13Z</time>
      </trkpt>
      <trkpt lat="44.41917" lon="5.42108">
        <ele>1066.4</ele>
        <time>2019-06-01T09:28:22Z</time>
      </trkpt>
      <trkpt lat="44.41915" lon="5.42093">
        <ele>1066.3</ele>
        <time>2019-06-01T09:28:29Z</time>
      </trkpt>
      <trkpt lat="44.41913" lon="5.42081">
        <ele>1066.3</ele>
        <time>2019-06-01T09:28:35Z</time>
      </trkpt>
      <trkpt lat="44.41909" lon="5.42068">
        <ele>1066.3</ele>
        <time>2019-06-01T09:28:42Z</time>
      </trkpt>
      <trkpt lat="44.41906" lon="5.42055">
        <ele>1066.5</ele>
        <time>2019-06-01T09:28:49Z</time>
      </trkpt>
      <trkpt lat="44.41902" lon="5.42044">
        <ele>1066.7</ele>
        <time>2019-06-01T09:28:56Z</time>
      </trkpt>
      <trkpt lat="44.41898" lon="5.42032">
        <ele>1066.9</ele>
        <time>2019-06-01T09:29:04Z</time>
      </trkpt>
      <trkpt lat="44.41892" lon="5.4202">
        <ele>1067.1</ele>
        <time>2019-06-01T09:29:12Z</time>
      </trkpt>
      <trkpt lat="44.41889" lon="5.42007">
        <ele>1067.3</ele>
        <time>2019-06-01T09:29:19Z</time>
      </trkpt>
      <trkpt lat="44.41884" lon="5.41996">
        <ele>1067.6</ele>
        <time>2019-06-01T09:29:26Z</time>
      </trkpt>
      <trkpt lat="44.41878" lon="5.41986">
        <ele>1068.1</ele>
        <time>2019-06-01T09:29:34Z</time>
      </trkpt>
      <trkpt lat="44.41871" lon="5.41978">
        <ele>1068.6</ele>
        <time>2019-06-01T09:29:42Z</time>
      </trkpt>
      <trkpt lat="44.41864" lon="5.41969">
        <ele>1069.4</ele>
        <time>2019-06-01T09:29:51Z</time>
      </trkpt>
      <trkpt lat="44.41858" lon="5.41958">
        <ele>1070.1</ele>
        <time>2019-06-01T09:29:59Z</time>
      </trkpt>
      <trkpt lat="44.41853" lon="5.41946">
        <ele>1071.1</ele>
        <time>2019-06-01T09:30:06Z</time>
      </trkpt>
      <trkpt lat="44.41848" lon="5.41935">
        <ele>1071.6</ele>
        <time>2019-06-01T09:30:13Z</time>
      </trkpt>
      <trkpt lat="44.41842" lon="5.41925">
        <ele>1072.3</ele>
        <time>2019-06-01T09:30:23Z</time>
      </trkpt>
      <trkpt lat="44.41835" lon="5.41916">
        <ele>1073.6</ele>
        <time>2019-06-01T09:30:31Z</time>
      </trkpt>
      <trkpt lat="44.41828" lon="5.41906">
        <ele>1074.9</ele>
        <time>2019-06-01T09:30:39Z</time>
      </trkpt>
      <trkpt lat="44.41822" lon="5.41895">
        <ele>1075.8</ele>
        <time>2019-06-01T09:30:47Z</time>
      </trkpt>
      <trkpt lat="44.41814" lon="5.41886">
        <ele>1076.9</ele>
        <time>2019-06-01T09:30:56Z</time>
      </trkpt>
      <trkpt lat="44.41806" lon="5.41881">
        <ele>1077.7</ele>
        <time>2019-06-01T09:31:03Z</time>
      </trkpt>
      <trkpt lat="44.41797" lon="5.41878">
        <ele>1078.5</ele>
        <time>2019-06-01T09:31:10Z</time>
      </trkpt>
      <trkpt lat="44.41787" lon="5.41878">
        <ele>1079.5</ele>
        <time>2019-06-01T09:31:18Z</time>
      </trkpt>
      <trkpt lat="44.41778" lon="5.41873">
        <ele>1080.3</ele>
        <time>2019-06-01T09:31:25Z</time>
      </trkpt>
      <trkpt lat="44.4177" lon="5.41866">
        <ele>1081.2</ele>
        <time>2019-06-01T09:31:32Z</time>
      </trkpt>
      <trkpt lat="44.41763" lon="5.41857">
        <ele>1082.3</ele>
        <time>2019-06-01T09:31:39Z</time>
      </trkpt>
      <trkpt lat="44.41754" lon="5.41852">
        <ele>1083.3</ele>
        <time>2019-06-01T09:31:49Z</time>
      </trkpt>
      <trkpt lat="44.41745" lon="5.41849">
        <ele>1083.9</ele>
        <time>2019-06-01T09:31:56Z</time>
      </trkpt>
      <trkpt lat="44.41736" lon="5.41847">
        <ele>1084.4</ele>
        <time>2019-06-01T09:32:03Z</time>
      </trkpt>
      <trkpt lat="44.41726" lon="5.41848">
        <ele>1085</ele>
        <time>2019-06-01T09:32:11Z</time>
      </trkpt>
      <trkpt lat="44.41716" lon="5.41848">
        <ele>1085.8</ele>
        <time>2019-06-01T09:32:19Z</time>
      </trkpt>
      <trkpt lat="44.41707" lon="5.4185">
        <ele>1086.5</ele>
        <time>2019-06-01T09:32:45Z</time>
      </trkpt>
      <trkpt lat="44.4171" lon="5.41862">
        <ele>1087.3</ele>
        <time>2019-06-01T09:33:02Z</time>
      </trkpt>
      <trkpt lat="44.4171" lon="5.41849">
        <ele>1087</ele>
        <time>2019-06-01T09:33:47Z</time>
      </trkpt>
      <trkpt lat="44.4171" lon="5.41836">
        <ele>1087</ele>
        <time>2019-06-01T09:33:55Z</time>
      </trkpt>
      <trkpt lat="44.41709" lon="5.41823">
        <ele>1086.7</ele>
        <time>2019-06-01T09:34:02Z</time>
      </trkpt>
      <trkpt lat="44.41707" lon="5.4181">
        <ele>1085.8</ele>
        <time>2019-06-01T09:34:09Z</time>
      </trkpt>
      <trkpt lat="44.41705" lon="5.41798">
        <ele>1084.7</ele>
        <time>2019-06-01T09:34:17Z</time>
      </trkpt>
      <trkpt lat="44.41704" lon="5.41785">
        <ele>1079.6</ele>
        <time>2019-06-01T09:35:09Z</time>
      </trkpt>
      <trkpt lat="44.41708" lon="5.41773">
        <ele>1079.4</ele>
        <time>2019-06-01T09:35:18Z</time>
      </trkpt>
      <trkpt lat="44.41703" lon="5.41763">
        <ele>1078.3</ele>
        <time>2019-06-01T09:35:31Z</time>
      </trkpt>
      <trkpt lat="44.4171" lon="5.41753">
        <ele>1077.1</ele>
        <time>2019-06-01T09:35:41Z</time>
      </trkpt>
      <trkpt lat="44.41718" lon="5.41747">
        <ele>1076.4</ele>
        <time>2019-06-01T09:35:50Z</time>
      </trkpt>
      <trkpt lat="44.41725" lon="5.41737">
        <ele>1075.8</ele>
        <time>2019-06-01T09:35:59Z</time>
      </trkpt>
      <trkpt lat="44.41734" lon="5.41734">
        <ele>1075.1</ele>
        <time>2019-06-01T09:36:07Z</time>
      </trkpt>
      <trkpt lat="44.41743" lon="5.4173">
        <ele>1074.5</ele>
        <time>2019-06-01T09:36:16Z</time>
      </trkpt>
      <trkpt lat="44.41735" lon="5.41738">
        <ele>1072.6</ele>
        <time>2019-06-01T09:37:34Z</time>
      </trkpt>
      <trkpt lat="44.41726" lon="5.41732">
        <ele>1074</ele>
        <time>2019-06-01T09:40:22Z</time>
      </trkpt>
      <trkpt lat="44.41723" lon="5.41719">
        <ele>1075.3</ele>
        <time>2019-06-01T09:40:42Z</time>
      </trkpt>
      <trkpt lat="44.41721" lon="5.41707">
        <ele>1075.7</ele>
        <time>2019-06-01T09:40:50Z</time>
      </trkpt>
      <trkpt lat="44.41718" lon="5.41694">
        <ele>1076.4</ele>
        <time>2019-06-01T09:40:59Z</time>
      </trkpt>
      <trkpt lat="44.41714" lon="5.41683">
        <ele>1077.2</ele>
        <time>2019-06-01T09:41:08Z</time>
      </trkpt>
      <trkpt lat="44.41708" lon="5.41674">
        <ele>1077.8</ele>
        <time>2019-06-01T09:41:17Z</time>
      </trkpt>
      <trkpt lat="44.41702" lon="5.41662">
        <ele>1078.8</ele>
        <time>2019-06-01T09:41:27Z</time>
      </trkpt>
      <trkpt lat="44.41696" lon="5.41652">
        <ele>1080.2</ele>
        <time>2019-06-01T09:41:38Z</time>
      </trkpt>
      <trkpt lat="44.41692" lon="5.41641">
        <ele>1081.2</ele>
        <time>2019-06-01T09:41:46Z</time>
      </trkpt>
      <trkpt lat="44.41687" lon="5.41629">
        <ele>1082.1</ele>
        <time>2019-06-01T09:41:56Z</time>
      </trkpt>
      <trkpt lat="44.41683" lon="5.41616">
        <ele>1083.2</ele>
        <time>2019-06-01T09:42:06Z</time>
      </trkpt>
      <trkpt lat="44.41679" lon="5.41604">
        <ele>1084.3</ele>
        <time>2019-06-01T09:42:15Z</time>
      </trkpt>
      <trkpt lat="44.41674" lon="5.41593">
        <ele>1085.4</ele>
        <time>2019-06-01T09:42:24Z</time>
      </trkpt>
      <trkpt lat="44.41671" lon="5.41581">
        <ele>1087</ele>
        <time>2019-06-01T09:42:33Z</time>
      </trkpt>
      <trkpt lat="44.41665" lon="5.41569">
        <ele>1088.2</ele>
        <time>2019-06-01T09:42:43Z</time>
      </trkpt>
      <trkpt lat="44.41663" lon="5.41556">
        <ele>1088.9</ele>
        <time>2019-06-01T09:42:52Z</time>
      </trkpt>
      <trkpt lat="44.41657" lon="5.41545">
        <ele>1090.7</ele>
        <time>2019-06-01T09:43:02Z</time>
      </trkpt>
      <trkpt lat="44.41652" lon="5.41534">
        <ele>1091.9</ele>
        <time>2019-06-01T09:43:12Z</time>
      </trkpt>
      <trkpt lat="44.41653" lon="5.41521">
        <ele>1092.6</ele>
        <time>2019-06-01T09:43:21Z</time>
      </trkpt>
      <trkpt lat="44.41657" lon="5.41508">
        <ele>1093.5</ele>
        <time>2019-06-01T09:43:30Z</time>
      </trkpt>
      <trkpt lat="44.4166" lon="5.41496">
        <ele>1094.6</ele>
        <time>2019-06-01T09:43:40Z</time>
      </trkpt>
      <trkpt lat="44.41661" lon="5.41482">
        <ele>1095.3</ele>
        <time>2019-06-01T09:43:50Z</time>
      </trkpt>
      <trkpt lat="44.41662" lon="5.41469">
        <ele>1096</ele>
        <time>2019-06-01T09:43:59Z</time>
      </trkpt>
      <trkpt lat="44.41662" lon="5.41456">
        <ele>1096.4</ele>
        <time>2019-06-01T09:44:09Z</time>
      </trkpt>
      <trkpt lat="44.41656" lon="5.41445">
        <ele>1097.7</ele>
        <time>2019-06-01T09:44:45Z</time>
      </trkpt>
      <trkpt lat="44.41651" lon="5.41435">
        <ele>1098.1</ele>
        <time>2019-06-01T09:45:11Z</time>
      </trkpt>
      <trkpt lat="44.41643" lon="5.41428">
        <ele>1098.6</ele>
        <time>2019-06-01T09:46:57Z</time>
      </trkpt>
      <trkpt lat="44.41638" lon="5.41417">
        <ele>1098.8</ele>
        <time>2019-06-01T09:47:05Z</time>
      </trkpt>
      <trkpt lat="44.41634" lon="5.41405">
        <ele>1099.2</ele>
        <time>2019-06-01T09:47:18Z</time>
      </trkpt>
      <trkpt lat="44.41642" lon="5.41413">
        <ele>1097.8</ele>
        <time>2019-06-01T09:48:40Z</time>
      </trkpt>
      <trkpt lat="44.41651" lon="5.41417">
        <ele>1097.6</ele>
        <time>2019-06-01T09:48:49Z</time>
      </trkpt>
      <trkpt lat="44.41661" lon="5.41421">
        <ele>1097.5</ele>
        <time>2019-06-01T09:48:58Z</time>
      </trkpt>
      <trkpt lat="44.41671" lon="5.41422">
        <ele>1097.5</ele>
        <time>2019-06-01T09:49:06Z</time>
      </trkpt>
      <trkpt lat="44.4168" lon="5.41425">
        <ele>1097.4</ele>
        <time>2019-06-01T09:49:15Z</time>
      </trkpt>
      <trkpt lat="44.41689" lon="5.41429">
        <ele>1097.4</ele>
        <time>2019-06-01T09:49:24Z</time>
      </trkpt>
      <trkpt lat="44.41698" lon="5.41433">
        <ele>1097.6</ele>
        <time>2019-06-01T09:49:35Z</time>
      </trkpt>
      <trkpt lat="44.41707" lon="5.41431">
        <ele>1098</ele>
        <time>2019-06-01T09:49:48Z</time>
      </trkpt>
      <trkpt lat="44.41716" lon="5.41434">
        <ele>1099</ele>
        <time>2019-06-01T09:50:21Z</time>
      </trkpt>
      <trkpt lat="44.41725" lon="5.41439">
        <ele>1099.4</ele>
        <time>2019-06-01T09:50:29Z</time>
      </trkpt>
      <trkpt lat="44.41734" lon="5.41443">
        <ele>1100.3</ele>
        <time>2019-06-01T09:50:37Z</time>
      </trkpt>
      <trkpt lat="44.41743" lon="5.41447">
        <ele>1101</ele>
        <time>2019-06-01T09:50:45Z</time>
      </trkpt>
      <trkpt lat="44.41752" lon="5.41452">
        <ele>1102</ele>
        <time>2019-06-01T09:50:54Z</time>
      </trkpt>
      <trkpt lat="44.41761" lon="5.41456">
        <ele>1103.3</ele>
        <time>2019-06-01T09:51:02Z</time>
      </trkpt>
      <trkpt lat="44.41771" lon="5.4146">
        <ele>1104.9</ele>
        <time>2019-06-01T09:51:10Z</time>
      </trkpt>
      <trkpt lat="44.4178" lon="5.41462">
        <ele>1106.5</ele>
        <time>2019-06-01T09:51:18Z</time>
      </trkpt>
      <trkpt lat="44.41789" lon="5.41465">
        <ele>1108</ele>
        <time>2019-06-01T09:51:26Z</time>
      </trkpt>
      <trkpt lat="44.41798" lon="5.41471">
        <ele>1109.9</ele>
        <time>2019-06-01T09:51:34Z</time>
      </trkpt>
      <trkpt lat="44.41807" lon="5.41476">
        <ele>1111.3</ele>
        <time>2019-06-01T09:51:42Z</time>
      </trkpt>
      <trkpt lat="44.41816" lon="5.4148">
        <ele>1112.6</ele>
        <time>2019-06-01T09:51:50Z</time>
      </trkpt>
      <trkpt lat="44.41825" lon="5.41484">
        <ele>1114.3</ele>
        <time>2019-06-01T09:51:58Z</time>
      </trkpt>
      <trkpt lat="44.41833" lon="5.41489">
        <ele>1115.5</ele>
        <time>2019-06-01T09:52:06Z</time>
      </trkpt>
      <trkpt lat="44.41842" lon="5.41495">
        <ele>1116.7</ele>
        <time>2019-06-01T09:52:14Z</time>
      </trkpt>
      <trkpt lat="44.4185" lon="5.415">
        <ele>1118.4</ele>
        <time>2019-06-01T09:52:23Z</time>
      </trkpt>
      <trkpt lat="44.41859" lon="5.41504">
        <ele>1119.9</ele>
        <time>2019-06-01T09:52:31Z</time>
      </trkpt>
      <trkpt lat="44.41868" lon="5.41508">
        <ele>1121.3</ele>
        <time>2019-06-01T09:52:39Z</time>
      </trkpt>
      <trkpt lat="44.41877" lon="5.41512">
        <ele>1123.4</ele>
        <time>2019-06-01T09:52:47Z</time>
      </trkpt>
      <trkpt lat="44.41887" lon="5.41515">
        <ele>1124.8</ele>
        <time>2019-06-01T09:52:56Z</time>
      </trkpt>
      <trkpt lat="44.41896" lon="5.4152">
        <ele>1126.7</ele>
        <time>2019-06-01T09:53:05Z</time>
      </trkpt>
      <trkpt lat="44.41905" lon="5.41524">
        <ele>1128.6</ele>
        <time>2019-06-01T09:53:14Z</time>
      </trkpt>
      <trkpt lat="44.41914" lon="5.41529">
        <ele>1130.7</ele>
        <time>2019-06-01T09:53:23Z</time>
      </trkpt>
      <trkpt lat="44.41923" lon="5.41532">
        <ele>1132.6</ele>
        <time>2019-06-01T09:53:32Z</time>
      </trkpt>
      <trkpt lat="44.41932" lon="5.41536">
        <ele>1134.8</ele>
        <time>2019-06-01T09:53:41Z</time>
      </trkpt>
      <trkpt lat="44.41941" lon="5.4154">
        <ele>1136.8</ele>
        <time>2019-06-01T09:53:50Z</time>
      </trkpt>
      <trkpt lat="44.4195" lon="5.41544">
        <ele>1138.8</ele>
        <time>2019-06-01T09:53:59Z</time>
      </trkpt>
      <trkpt lat="44.4196" lon="5.41549">
        <ele>1141.3</ele>
        <time>2019-06-01T09:54:08Z</time>
      </trkpt>
      <trkpt lat="44.41969" lon="5.41554">
        <ele>1143</ele>
        <time>2019-06-01T09:54:17Z</time>
      </trkpt>
      <trkpt lat="44.41978" lon="5.41559">
        <ele>1144.5</ele>
        <time>2019-06-01T09:54:26Z</time>
      </trkpt>
      <trkpt lat="44.41987" lon="5.41565">
        <ele>1146.5</ele>
        <time>2019-06-01T09:54:35Z</time>
      </trkpt>
      <trkpt lat="44.41996" lon="5.41567">
        <ele>1148.5</ele>
        <time>2019-06-01T09:54:44Z</time>
      </trkpt>
      <trkpt lat="44.42006" lon="5.4157">
        <ele>1150.9</ele>
        <time>2019-06-01T09:54:54Z</time>
      </trkpt>
      <trkpt lat="44.42015" lon="5.41573">
        <ele>1153.1</ele>
        <time>2019-06-01T09:55:03Z</time>
      </trkpt>
      <trkpt lat="44.42025" lon="5.41577">
        <ele>1155.6</ele>
        <time>2019-06-01T09:55:12Z</time>
      </trkpt>
      <trkpt lat="44.42034" lon="5.41581">
        <ele>1158</ele>
        <time>2019-06-01T09:55:21Z</time>
      </trkpt>
      <trkpt lat="44.42043" lon="5.41585">
        <ele>1160.3</ele>
        <time>2019-06-01T09:55:30Z</time>
      </trkpt>
      <trkpt lat="44.42052" lon="5.41589">
        <ele>1163.5</ele>
        <time>2019-06-01T09:55:39Z</time>
      </trkpt>
      <trkpt lat="44.42061" lon="5.41596">
        <ele>1165.8</ele>
        <time>2019-06-01T09:55:48Z</time>
      </trkpt>
      <trkpt lat="44.42069" lon="5.41601">
        <ele>1168.1</ele>
        <time>2019-06-01T09:55:57Z</time>
      </trkpt>
      <trkpt lat="44.42078" lon="5.41606">
        <ele>1170.3</ele>
        <time>2019-06-01T09:56:06Z</time>
      </trkpt>
      <trkpt lat="44.42087" lon="5.41611">
        <ele>1172.8</ele>
        <time>2019-06-01T09:56:15Z</time>
      </trkpt>
      <trkpt lat="44.42096" lon="5.41615">
        <ele>1175.1</ele>
        <time>2019-06-01T09:56:24Z</time>
      </trkpt>
      <trkpt lat="44.42105" lon="5.4162">
        <ele>1178.4</ele>
        <time>2019-06-01T09:56:35Z</time>
      </trkpt>
      <trkpt lat="44.42114" lon="5.41625">
        <ele>1181.3</ele>
        <time>2019-06-01T09:56:45Z</time>
      </trkpt>
      <trkpt lat="44.42123" lon="5.41629">
        <ele>1184.9</ele>
        <time>2019-06-01T09:56:56Z</time>
      </trkpt>
      <trkpt lat="44.42131" lon="5.41635">
        <ele>1188.1</ele>
        <time>2019-06-01T09:57:08Z</time>
      </trkpt>
      <trkpt lat="44.4214" lon="5.41639">
        <ele>1193.6</ele>
        <time>2019-06-01T09:59:13Z</time>
      </trkpt>
      <trkpt lat="44.42149" lon="5.41642">
        <ele>1194.6</ele>
        <time>2019-06-01T09:59:26Z</time>
      </trkpt>
      <trkpt lat="44.42157" lon="5.41648">
        <ele>1198.6</ele>
        <time>2019-06-01T09:59:57Z</time>
      </trkpt>
      <trkpt lat="44.42165" lon="5.41654">
        <ele>1200.4</ele>
        <time>2019-06-01T10:00:09Z</time>
      </trkpt>
      <trkpt lat="44.42175" lon="5.41657">
        <ele>1204.7</ele>
        <time>2019-06-01T10:00:32Z</time>
      </trkpt>
      <trkpt lat="44.42183" lon="5.41663">
        <ele>1207.2</ele>
        <time>2019-06-01T10:00:44Z</time>
      </trkpt>
      <trkpt lat="44.42192" lon="5.41667">
        <ele>1211.6</ele>
        <time>2019-06-01T10:01:04Z</time>
      </trkpt>
      <trkpt lat="44.42201" lon="5.41672">
        <ele>1213.9</ele>
        <time>2019-06-01T10:01:16Z</time>
      </trkpt>
      <trkpt lat="44.42209" lon="5.41676">
        <ele>1221.3</ele>
        <time>2019-06-01T10:03:06Z</time>
      </trkpt>
      <trkpt lat="44.42218" lon="5.41682">
        <ele>1222.3</ele>
        <time>2019-06-01T10:03:18Z</time>
      </trkpt>
      <trkpt lat="44.42227" lon="5.41686">
        <ele>1224.8</ele>
        <time>2019-06-01T10:03:29Z</time>
      </trkpt>
      <trkpt lat="44.42236" lon="5.4169">
        <ele>1228.3</ele>
        <time>2019-06-01T10:03:45Z</time>
      </trkpt>
      <trkpt lat="44.42244" lon="5.41695">
        <ele>1231.3</ele>
        <time>2019-06-01T10:03:57Z</time>
      </trkpt>
      <trkpt lat="44.42253" lon="5.41699">
        <ele>1234.1</ele>
        <time>2019-06-01T10:04:10Z</time>
      </trkpt>
      <trkpt lat="44.42262" lon="5.41704">
        <ele>1237.3</ele>
        <time>2019-06-01T10:04:23Z</time>
      </trkpt>
      <trkpt lat="44.42271" lon="5.41703">
        <ele>1242.1</ele>
        <time>2019-06-01T10:05:34Z</time>
      </trkpt>
      <trkpt lat="44.42278" lon="5.41711">
        <ele>1243.6</ele>
        <time>2019-06-01T10:06:56Z</time>
      </trkpt>
      <trkpt lat="44.42287" lon="5.41716">
        <ele>1245.3</ele>
        <time>2019-06-01T10:07:10Z</time>
      </trkpt>
      <trkpt lat="44.42295" lon="5.41721">
        <ele>1248.6</ele>
        <time>2019-06-01T10:07:27Z</time>
      </trkpt>
      <trkpt lat="44.42304" lon="5.41727">
        <ele>1251.8</ele>
        <time>2019-06-01T10:07:41Z</time>
      </trkpt>
      <trkpt lat="44.42312" lon="5.41731">
        <ele>1255.1</ele>
        <time>2019-06-01T10:07:55Z</time>
      </trkpt>
      <trkpt lat="44.42321" lon="5.41736">
        <ele>1258.4</ele>
        <time>2019-06-01T10:08:10Z</time>
      </trkpt>
      <trkpt lat="44.4233" lon="5.41739">
        <ele>1261.3</ele>
        <time>2019-06-01T10:08:23Z</time>
      </trkpt>
      <trkpt lat="44.42339" lon="5.41744">
        <ele>1267.2</ele>
        <time>2019-06-01T10:10:26Z</time>
      </trkpt>
      <trkpt lat="44.42347" lon="5.4175">
        <ele>1268.3</ele>
        <time>2019-06-01T10:10:37Z</time>
      </trkpt>
      <trkpt lat="44.42355" lon="5.41757">
        <ele>1270.1</ele>
        <time>2019-06-01T10:10:48Z</time>
      </trkpt>
      <trkpt lat="44.42363" lon="5.41764">
        <ele>1272.5</ele>
        <time>2019-06-01T10:11:01Z</time>
      </trkpt>
      <trkpt lat="44.42372" lon="5.41766">
        <ele>1276.4</ele>
        <time>2019-06-01T10:11:16Z</time>
      </trkpt>
      <trkpt lat="44.42381" lon="5.41771">
        <ele>1278.7</ele>
        <time>2019-06-01T10:11:28Z</time>
      </trkpt>
      <trkpt lat="44.42389" lon="5.41777">
        <ele>1281.4</ele>
        <time>2019-06-01T10:11:40Z</time>
      </trkpt>
      <trkpt lat="44.42397" lon="5.41783">
        <ele>1284.4</ele>
        <time>2019-06-01T10:11:52Z</time>
      </trkpt>
      <trkpt lat="44.42405" lon="5.4179">
        <ele>1287</ele>
        <time>2019-06-01T10:12:04Z</time>
      </trkpt>
      <trkpt lat="44.42413" lon="5.41796">
        <ele>1290.7</ele>
        <time>2019-06-01T10:12:17Z</time>
      </trkpt>
      <trkpt lat="44.42422" lon="5.41801">
        <ele>1294.1</ele>
        <time>2019-06-01T10:12:30Z</time>
      </trkpt>
      <trkpt lat="44.42428" lon="5.41811">
        <ele>1295.9</ele>
        <time>2019-06-01T10:12:41Z</time>
      </trkpt>
      <trkpt lat="44.42435" lon="5.41819">
        <ele>1297.4</ele>
        <time>2019-06-01T10:12:53Z</time>
      </trkpt>
      <trkpt lat="44.42444" lon="5.41825">
        <ele>1301.8</ele>
        <time>2019-06-01T10:13:20Z</time>
      </trkpt>
      <trkpt lat="44.42452" lon="5.41831">
        <ele>1303.3</ele>
        <time>2019-06-01T10:13:31Z</time>
      </trkpt>
      <trkpt lat="44.4246" lon="5.41837">
        <ele>1306</ele>
        <time>2019-06-01T10:13:42Z</time>
      </trkpt>
      <trkpt lat="44.42467" lon="5.41845">
        <ele>1309</ele>
        <time>2019-06-01T10:13:55Z</time>
      </trkpt>
      <trkpt lat="44.42476" lon="5.41841">
        <ele>1311.9</ele>
        <time>2019-06-01T10:14:09Z</time>
      </trkpt>
      <trkpt lat="44.42485" lon="5.41839">
        <ele>1315.6</ele>
        <time>2019-06-01T10:14:27Z</time>
      </trkpt>
      <trkpt lat="44.42492" lon="5.41831">
        <ele>1321.1</ele>
        <time>2019-06-01T10:17:11Z</time>
      </trkpt>
      <trkpt lat="44.42484" lon="5.41823">
        <ele>1321.2</ele>
        <time>2019-06-01T10:19:43Z</time>
      </trkpt>
      <trkpt lat="44.42482" lon="5.4181">
        <ele>1321.4</ele>
        <time>2019-06-01T10:19:52Z</time>
      </trkpt>
      <trkpt lat="44.42481" lon="5.41796">
        <ele>1322.5</ele>
        <time>2019-06-01T10:20:02Z</time>
      </trkpt>
      <trkpt lat="44.42478" lon="5.41783">
        <ele>1323.5</ele>
        <time>2019-06-01T10:20:11Z</time>
      </trkpt>
      <trkpt lat="44.42475" lon="5.4177">
        <ele>1324.4</ele>
        <time>2019-06-01T10:20:19Z</time>
      </trkpt>
      <trkpt lat="44.42471" lon="5.41759">
        <ele>1324.8</ele>
        <time>2019-06-01T10:20:28Z</time>
      </trkpt>
      <trkpt lat="44.42468" lon="5.41746">
        <ele>1324.9</ele>
        <time>2019-06-01T10:20:44Z</time>
      </trkpt>
      <trkpt lat="44.42464" lon="5.41734">
        <ele>1324.9</ele>
        <time>2019-06-01T10:20:57Z</time>
      </trkpt>
      <trkpt lat="44.42458" lon="5.41724">
        <ele>1323.5</ele>
        <time>2019-06-01T10:21:26Z</time>
      </trkpt>
      <trkpt lat="44.42449" lon="5.4172">
        <ele>1322.2</ele>
        <time>2019-06-01T10:21:41Z</time>
      </trkpt>
      <trkpt lat="44.42444" lon="5.41709">
        <ele>1321.1</ele>
        <time>2019-06-01T10:21:50Z</time>
      </trkpt>
      <trkpt lat="44.42439" lon="5.41697">
        <ele>1320.5</ele>
        <time>2019-06-01T10:21:59Z</time>
      </trkpt>
      <trkpt lat="44.42437" lon="5.41683">
        <ele>1319.7</ele>
        <time>2019-06-01T10:22:19Z</time>
      </trkpt>
      <trkpt lat="44.42432" lon="5.41671">
        <ele>1319.5</ele>
        <time>2019-06-01T10:22:29Z</time>
      </trkpt>
      <trkpt lat="44.42427" lon="5.41659">
        <ele>1319.3</ele>
        <time>2019-06-01T10:22:38Z</time>
      </trkpt>
      <trkpt lat="44.42423" lon="5.41647">
        <ele>1319</ele>
        <time>2019-06-01T10:22:47Z</time>
      </trkpt>
      <trkpt lat="44.42419" lon="5.41635">
        <ele>1318.7</ele>
        <time>2019-06-01T10:22:57Z</time>
      </trkpt>
      <trkpt lat="44.42415" lon="5.41623">
        <ele>1318.9</ele>
        <time>2019-06-01T10:23:06Z</time>
      </trkpt>
      <trkpt lat="44.42413" lon="5.4161">
        <ele>1318.9</ele>
        <time>2019-06-01T10:23:17Z</time>
      </trkpt>
      <trkpt lat="44.42411" lon="5.41597">
        <ele>1318.8</ele>
        <time>2019-06-01T10:23:30Z</time>
      </trkpt>
      <trkpt lat="44.42407" lon="5.41585">
        <ele>1319.4</ele>
        <time>2019-06-01T10:23:40Z</time>
      </trkpt>
      <trkpt lat="44.42403" lon="5.41573">
        <ele>1319.8</ele>
        <time>2019-06-01T10:23:51Z</time>
      </trkpt>
      <trkpt lat="44.42395" lon="5.41565">
        <ele>1319.7</ele>
        <time>2019-06-01T10:24:03Z</time>
      </trkpt>
      <trkpt lat="44.42389" lon="5.41556">
        <ele>1318.7</ele>
        <time>2019-06-01T10:24:13Z</time>
      </trkpt>
      <trkpt lat="44.42389" lon="5.41543">
        <ele>1317.1</ele>
        <time>2019-06-01T10:28:25Z</time>
      </trkpt>
      <trkpt lat="44.42395" lon="5.41553">
        <ele>1317</ele>
        <time>2019-06-01T10:29:50Z</time>
      </trkpt>
      <trkpt lat="44.42388" lon="5.41561">
        <ele>1317.4</ele>
        <time>2019-06-01T10:41:19Z</time>
      </trkpt>
      <trkpt lat="44.42396" lon="5.41557">
        <ele>1321.8</ele>
        <time>2019-06-01T10:57:15Z</time>
      </trkpt>
      <trkpt lat="44.4239" lon="5.41566">
        <ele>1334.4</ele>
        <time>2019-06-01T11:28:43Z</time>
      </trkpt>
      <trkpt lat="44.42384" lon="5.41576">
        <ele>1334.6</ele>
        <time>2019-06-01T11:33:45Z</time>
      </trkpt>
      <trkpt lat="44.42391" lon="5.41567">
        <ele>1334.9</ele>
        <time>2019-06-01T11:35:12Z</time>
      </trkpt>
      <trkpt lat="44.42394" lon="5.41555">
        <ele>1335</ele>
        <time>2019-06-01T11:37:14Z</time>
      </trkpt>
      <trkpt lat="44.4239" lon="5.41566">
        <ele>1334.6</ele>
        <time>2019-06-01T11:42:44Z</time>
      </trkpt>
      <trkpt lat="44.42385" lon="5.41579">
        <ele>1332.5</ele>
        <time>2019-06-01T11:43:03Z</time>
      </trkpt>
      <trkpt lat="44.4239" lon="5.41591">
        <ele>1330.9</ele>
        <time>2019-06-01T11:43:16Z</time>
      </trkpt>
      <trkpt lat="44.42395" lon="5.41603">
        <ele>1330.4</ele>
        <time>2019-06-01T11:43:26Z</time>
      </trkpt>
      <trkpt lat="44.42398" lon="5.41614">
        <ele>1330</ele>
        <time>2019-06-01T11:43:36Z</time>
      </trkpt>
      <trkpt lat="44.42404" lon="5.41625">
        <ele>1329.9</ele>
        <time>2019-06-01T11:43:45Z</time>
      </trkpt>
      <trkpt lat="44.42408" lon="5.41637">
        <ele>1330</ele>
        <time>2019-06-01T11:43:55Z</time>
      </trkpt>
      <trkpt lat="44.42412" lon="5.41649">
        <ele>1330.1</ele>
        <time>2019-06-01T11:44:05Z</time>
      </trkpt>
      <trkpt lat="44.42414" lon="5.41661">
        <ele>1330.1</ele>
        <time>2019-06-01T11:44:14Z</time>
      </trkpt>
      <trkpt lat="44.42418" lon="5.41673">
        <ele>1330.1</ele>
        <time>2019-06-01T11:44:24Z</time>
      </trkpt>
      <trkpt lat="44.42421" lon="5.41685">
        <ele>1330.6</ele>
        <time>2019-06-01T11:44:36Z</time>
      </trkpt>
      <trkpt lat="44.42426" lon="5.41697">
        <ele>1330.5</ele>
        <time>2019-06-01T11:44:47Z</time>
      </trkpt>
      <trkpt lat="44.42431" lon="5.41709">
        <ele>1330.5</ele>
        <time>2019-06-01T11:44:57Z</time>
      </trkpt>
      <trkpt lat="44.42437" lon="5.4172">
        <ele>1330.4</ele>
        <time>2019-06-01T11:45:08Z</time>
      </trkpt>
      <trkpt lat="44.42442" lon="5.41731">
        <ele>1330.8</ele>
        <time>2019-06-01T11:45:19Z</time>
      </trkpt>
      <trkpt lat="44.42448" lon="5.41741">
        <ele>1331.4</ele>
        <time>2019-06-01T11:45:31Z</time>
      </trkpt>
      <trkpt lat="44.42453" lon="5.41752">
        <ele>1332.1</ele>
        <time>2019-06-01T11:45:42Z</time>
      </trkpt>
      <trkpt lat="44.42458" lon="5.41764">
        <ele>1332.9</ele>
        <time>2019-06-01T11:45:53Z</time>
      </trkpt>
      <trkpt lat="44.42463" lon="5.41775">
        <ele>1333.7</ele>
        <time>2019-06-01T11:46:04Z</time>
      </trkpt>
      <trkpt lat="44.42468" lon="5.41786">
        <ele>1334.4</ele>
        <time>2019-06-01T11:46:13Z</time>
      </trkpt>
      <trkpt lat="44.42473" lon="5.41796">
        <ele>1334.8</ele>
        <time>2019-06-01T11:46:22Z</time>
      </trkpt>
      <trkpt lat="44.42478" lon="5.41808">
        <ele>1335.3</ele>
        <time>2019-06-01T11:46:32Z</time>
      </trkpt>
      <trkpt lat="44.42483" lon="5.4182">
        <ele>1336.3</ele>
        <time>2019-06-01T11:46:43Z</time>
      </trkpt>
      <trkpt lat="44.42486" lon="5.41832">
        <ele>1337.2</ele>
        <time>2019-06-01T11:47:28Z</time>
      </trkpt>
      <trkpt lat="44.42479" lon="5.41841">
        <ele>1336.3</ele>
        <time>2019-06-01T11:48:31Z</time>
      </trkpt>
      <trkpt lat="44.4247" lon="5.41842">
        <ele>1333.6</ele>
        <time>2019-06-01T11:48:54Z</time>
      </trkpt>
      <trkpt lat="44.4246" lon="5.41839">
        <ele>1331.5</ele>
        <time>2019-06-01T11:49:08Z</time>
      </trkpt>
      <trkpt lat="44.42452" lon="5.41834">
        <ele>1329.1</ele>
        <time>2019-06-01T11:49:22Z</time>
      </trkpt>
      <trkpt lat="44.42443" lon="5.4183">
        <ele>1326.4</ele>
        <time>2019-06-01T11:49:41Z</time>
      </trkpt>
      <trkpt lat="44.42434" lon="5.41827">
        <ele>1323.8</ele>
        <time>2019-06-01T11:49:57Z</time>
      </trkpt>
      <trkpt lat="44.42427" lon="5.4182">
        <ele>1321.9</ele>
        <time>2019-06-01T11:50:08Z</time>
      </trkpt>
      <trkpt lat="44.42421" lon="5.41809">
        <ele>1319.2</ele>
        <time>2019-06-01T11:50:25Z</time>
      </trkpt>
      <trkpt lat="44.42413" lon="5.41803">
        <ele>1317.8</ele>
        <time>2019-06-01T11:50:40Z</time>
      </trkpt>
      <trkpt lat="44.42405" lon="5.41798">
        <ele>1315.6</ele>
        <time>2019-06-01T11:50:55Z</time>
      </trkpt>
      <trkpt lat="44.42397" lon="5.4179">
        <ele>1312.9</ele>
        <time>2019-06-01T11:51:14Z</time>
      </trkpt>
      <trkpt lat="44.42389" lon="5.41784">
        <ele>1310.7</ele>
        <time>2019-06-01T11:51:29Z</time>
      </trkpt>
      <trkpt lat="44.42381" lon="5.41779">
        <ele>1307.3</ele>
        <time>2019-06-01T11:51:49Z</time>
      </trkpt>
      <trkpt lat="44.42372" lon="5.41775">
        <ele>1303.9</ele>
        <time>2019-06-01T11:52:14Z</time>
      </trkpt>
      <trkpt lat="44.42363" lon="5.41771">
        <ele>1301.4</ele>
        <time>2019-06-01T11:52:32Z</time>
      </trkpt>
      <trkpt lat="44.42355" lon="5.41766">
        <ele>1298.5</ele>
        <time>2019-06-01T11:52:50Z</time>
      </trkpt>
      <trkpt lat="44.42347" lon="5.4176">
        <ele>1295.4</ele>
        <time>2019-06-01T11:53:07Z</time>
      </trkpt>
      <trkpt lat="44.42339" lon="5.41755">
        <ele>1292.3</ele>
        <time>2019-06-01T11:53:26Z</time>
      </trkpt>
      <trkpt lat="44.4233" lon="5.4175">
        <ele>1289</ele>
        <time>2019-06-01T11:53:50Z</time>
      </trkpt>
      <trkpt lat="44.42322" lon="5.41745">
        <ele>1287.3</ele>
        <time>2019-06-01T11:54:08Z</time>
      </trkpt>
      <trkpt lat="44.42312" lon="5.4174">
        <ele>1283.1</ele>
        <time>2019-06-01T11:54:40Z</time>
      </trkpt>
      <trkpt lat="44.42304" lon="5.41736">
        <ele>1280.7</ele>
        <time>2019-06-01T11:54:55Z</time>
      </trkpt>
      <trkpt lat="44.42295" lon="5.41731">
        <ele>1277.7</ele>
        <time>2019-06-01T11:55:12Z</time>
      </trkpt>
      <trkpt lat="44.42287" lon="5.41725">
        <ele>1274.1</ele>
        <time>2019-06-01T11:55:37Z</time>
      </trkpt>
      <trkpt lat="44.42278" lon="5.41719">
        <ele>1271.6</ele>
        <time>2019-06-01T11:55:53Z</time>
      </trkpt>
      <trkpt lat="44.42269" lon="5.41715">
        <ele>1267.7</ele>
        <time>2019-06-01T11:56:18Z</time>
      </trkpt>
      <trkpt lat="44.42261" lon="5.41711">
        <ele>1265.2</ele>
        <time>2019-06-01T11:56:34Z</time>
      </trkpt>
      <trkpt lat="44.42252" lon="5.41706">
        <ele>1262.4</ele>
        <time>2019-06-01T11:56:52Z</time>
      </trkpt>
      <trkpt lat="44.42243" lon="5.41701">
        <ele>1259.3</ele>
        <time>2019-06-01T11:57:15Z</time>
      </trkpt>
      <trkpt lat="44.42235" lon="5.41696">
        <ele>1256.2</ele>
        <time>2019-06-01T11:57:34Z</time>
      </trkpt>
      <trkpt lat="44.42225" lon="5.41693">
        <ele>1252.7</ele>
        <time>2019-06-01T11:58:01Z</time>
      </trkpt>
      <trkpt lat="44.42217" lon="5.41688">
        <ele>1249.7</ele>
        <time>2019-06-01T11:58:22Z</time>
      </trkpt>
      <trkpt lat="44.42208" lon="5.41684">
        <ele>1246.3</ele>
        <time>2019-06-01T11:58:44Z</time>
      </trkpt>
      <trkpt lat="44.42199" lon="5.41679">
        <ele>1243.1</ele>
        <time>2019-06-01T11:59:04Z</time>
      </trkpt>
      <trkpt lat="44.4219" lon="5.41675">
        <ele>1240</ele>
        <time>2019-06-01T11:59:27Z</time>
      </trkpt>
      <trkpt lat="44.42181" lon="5.41671">
        <ele>1235.7</ele>
        <time>2019-06-01T11:59:54Z</time>
      </trkpt>
      <trkpt lat="44.42173" lon="5.41667">
        <ele>1233.2</ele>
        <time>2019-06-01T12:00:12Z</time>
      </trkpt>
      <trkpt lat="44.42164" lon="5.41662">
        <ele>1229.8</ele>
        <time>2019-06-01T12:00:38Z</time>
      </trkpt>
      <trkpt lat="44.42155" lon="5.41657">
        <ele>1226.5</ele>
        <time>2019-06-01T12:00:58Z</time>
      </trkpt>
      <trkpt lat="44.42146" lon="5.41653">
        <ele>1222.9</ele>
        <time>2019-06-01T12:01:23Z</time>
      </trkpt>
      <trkpt lat="44.42138" lon="5.41648">
        <ele>1220.8</ele>
        <time>2019-06-01T12:01:40Z</time>
      </trkpt>
      <trkpt lat="44.42129" lon="5.41643">
        <ele>1218.4</ele>
        <time>2019-06-01T12:01:57Z</time>
      </trkpt>
      <trkpt lat="44.42121" lon="5.41636">
        <ele>1215.1</ele>
        <time>2019-06-01T12:02:21Z</time>
      </trkpt>
      <trkpt lat="44.42112" lon="5.41633">
        <ele>1211.7</ele>
        <time>2019-06-01T12:02:43Z</time>
      </trkpt>
      <trkpt lat="44.42103" lon="5.41631">
        <ele>1207.9</ele>
        <time>2019-06-01T12:03:09Z</time>
      </trkpt>
      <trkpt lat="44.42094" lon="5.41625">
        <ele>1206</ele>
        <time>2019-06-01T12:03:24Z</time>
      </trkpt>
      <trkpt lat="44.42086" lon="5.41619">
        <ele>1202.6</ele>
        <time>2019-06-01T12:03:53Z</time>
      </trkpt>
      <trkpt lat="44.42077" lon="5.41617">
        <ele>1200.8</ele>
        <time>2019-06-01T12:04:03Z</time>
      </trkpt>
      <trkpt lat="44.42068" lon="5.41611">
        <ele>1199.1</ele>
        <time>2019-06-01T12:04:14Z</time>
      </trkpt>
      <trkpt lat="44.42059" lon="5.41605">
        <ele>1196.3</ele>
        <time>2019-06-01T12:04:27Z</time>
      </trkpt>
      <trkpt lat="44.4205" lon="5.41599">
        <ele>1192</ele>
        <time>2019-06-01T12:04:53Z</time>
      </trkpt>
      <trkpt lat="44.42041" lon="5.41595">
        <ele>1190.3</ele>
        <time>2019-06-01T12:05:03Z</time>
      </trkpt>
      <trkpt lat="44.42032" lon="5.41592">
        <ele>1188</ele>
        <time>2019-06-01T12:05:14Z</time>
      </trkpt>
      <trkpt lat="44.42023" lon="5.41588">
        <ele>1184.9</ele>
        <time>2019-06-01T12:05:37Z</time>
      </trkpt>
      <trkpt lat="44.42014" lon="5.41583">
        <ele>1183.7</ele>
        <time>2019-06-01T12:05:44Z</time>
      </trkpt>
      <trkpt lat="44.42005" lon="5.4158">
        <ele>1181.6</ele>
        <time>2019-06-01T12:05:54Z</time>
      </trkpt>
      <trkpt lat="44.41995" lon="5.41577">
        <ele>1179.6</ele>
        <time>2019-06-01T12:06:02Z</time>
      </trkpt>
      <trkpt lat="44.41987" lon="5.41574">
        <ele>1177.5</ele>
        <time>2019-06-01T12:06:10Z</time>
      </trkpt>
      <trkpt lat="44.41978" lon="5.41568">
        <ele>1175.3</ele>
        <time>2019-06-01T12:06:18Z</time>
      </trkpt>
      <trkpt lat="44.41969" lon="5.41565">
        <ele>1173.2</ele>
        <time>2019-06-01T12:06:27Z</time>
      </trkpt>
      <trkpt lat="44.41959" lon="5.41561">
        <ele>1170.8</ele>
        <time>2019-06-01T12:06:36Z</time>
      </trkpt>
      <trkpt lat="44.4195" lon="5.41556">
        <ele>1169.1</ele>
        <time>2019-06-01T12:06:44Z</time>
      </trkpt>
      <trkpt lat="44.41941" lon="5.41552">
        <ele>1167.5</ele>
        <time>2019-06-01T12:06:52Z</time>
      </trkpt>
      <trkpt lat="44.41932" lon="5.41548">
        <ele>1165.6</ele>
        <time>2019-06-01T12:07:00Z</time>
      </trkpt>
      <trkpt lat="44.41923" lon="5.41544">
        <ele>1163.7</ele>
        <time>2019-06-01T12:07:08Z</time>
      </trkpt>
      <trkpt lat="44.41914" lon="5.41541">
        <ele>1161.8</ele>
        <time>2019-06-01T12:07:16Z</time>
      </trkpt>
      <trkpt lat="44.41905" lon="5.41536">
        <ele>1159.6</ele>
        <time>2019-06-01T12:07:25Z</time>
      </trkpt>
      <trkpt lat="44.41895" lon="5.41531">
        <ele>1157.4</ele>
        <time>2019-06-01T12:07:35Z</time>
      </trkpt>
      <trkpt lat="44.41886" lon="5.41527">
        <ele>1155.4</ele>
        <time>2019-06-01T12:07:44Z</time>
      </trkpt>
      <trkpt lat="44.41877" lon="5.41522">
        <ele>1153.1</ele>
        <time>2019-06-01T12:07:53Z</time>
      </trkpt>
      <trkpt lat="44.41868" lon="5.41518">
        <ele>1151.3</ele>
        <time>2019-06-01T12:08:02Z</time>
      </trkpt>
      <trkpt lat="44.41858" lon="5.41514">
        <ele>1149.5</ele>
        <time>2019-06-01T12:08:11Z</time>
      </trkpt>
      <trkpt lat="44.4185" lon="5.41508">
        <ele>1147.8</ele>
        <time>2019-06-01T12:08:19Z</time>
      </trkpt>
      <trkpt lat="44.41841" lon="5.41504">
        <ele>1145.9</ele>
        <time>2019-06-01T12:08:27Z</time>
      </trkpt>
      <trkpt lat="44.41832" lon="5.41499">
        <ele>1144.5</ele>
        <time>2019-06-01T12:08:35Z</time>
      </trkpt>
      <trkpt lat="44.41823" lon="5.41495">
        <ele>1143.2</ele>
        <time>2019-06-01T12:08:43Z</time>
      </trkpt>
      <trkpt lat="44.41815" lon="5.4149">
        <ele>1141.6</ele>
        <time>2019-06-01T12:08:51Z</time>
      </trkpt>
      <trkpt lat="44.41806" lon="5.41486">
        <ele>1140.2</ele>
        <time>2019-06-01T12:08:59Z</time>
      </trkpt>
      <trkpt lat="44.41797" lon="5.41482">
        <ele>1138.8</ele>
        <time>2019-06-01T12:09:07Z</time>
      </trkpt>
      <trkpt lat="44.41788" lon="5.41476">
        <ele>1137.5</ele>
        <time>2019-06-01T12:09:15Z</time>
      </trkpt>
      <trkpt lat="44.41779" lon="5.41472">
        <ele>1136.1</ele>
        <time>2019-06-01T12:09:24Z</time>
      </trkpt>
      <trkpt lat="44.4177" lon="5.41469">
        <ele>1134.4</ele>
        <time>2019-06-01T12:09:33Z</time>
      </trkpt>
      <trkpt lat="44.4176" lon="5.41465">
        <ele>1133</ele>
        <time>2019-06-01T12:09:41Z</time>
      </trkpt>
      <trkpt lat="44.41752" lon="5.41461">
        <ele>1131.1</ele>
        <time>2019-06-01T12:09:49Z</time>
      </trkpt>
      <trkpt lat="44.41743" lon="5.41456">
        <ele>1129.5</ele>
        <time>2019-06-01T12:09:58Z</time>
      </trkpt>
      <trkpt lat="44.41734" lon="5.41452">
        <ele>1126.7</ele>
        <time>2019-06-01T12:10:16Z</time>
      </trkpt>
      <trkpt lat="44.41725" lon="5.41447">
        <ele>1125.6</ele>
        <time>2019-06-01T12:10:24Z</time>
      </trkpt>
      <trkpt lat="44.41715" lon="5.41443">
        <ele>1124.7</ele>
        <time>2019-06-01T12:10:32Z</time>
      </trkpt>
      <trkpt lat="44.41706" lon="5.41442">
        <ele>1123.6</ele>
        <time>2019-06-01T12:10:40Z</time>
      </trkpt>
      <trkpt lat="44.41697" lon="5.41447">
        <ele>1122.3</ele>
        <time>2019-06-01T12:10:50Z</time>
      </trkpt>
      <trkpt lat="44.41688" lon="5.41449">
        <ele>1120.9</ele>
        <time>2019-06-01T12:10:59Z</time>
      </trkpt>
      <trkpt lat="44.41682" lon="5.4146">
        <ele>1119.8</ele>
        <time>2019-06-01T12:11:08Z</time>
      </trkpt>
      <trkpt lat="44.41681" lon="5.41473">
        <ele>1118.6</ele>
        <time>2019-06-01T12:11:16Z</time>
      </trkpt>
      <trkpt lat="44.41682" lon="5.41487">
        <ele>1117.7</ele>
        <time>2019-06-01T12:11:24Z</time>
      </trkpt>
      <trkpt lat="44.41684" lon="5.415">
        <ele>1116.6</ele>
        <time>2019-06-01T12:11:32Z</time>
      </trkpt>
      <trkpt lat="44.41684" lon="5.41513">
        <ele>1115.7</ele>
        <time>2019-06-01T12:11:39Z</time>
      </trkpt>
      <trkpt lat="44.41684" lon="5.41526">
        <ele>1114.6</ele>
        <time>2019-06-01T12:11:47Z</time>
      </trkpt>
      <trkpt lat="44.41686" lon="5.4154">
        <ele>1113.5</ele>
        <time>2019-06-01T12:11:56Z</time>
      </trkpt>
      <trkpt lat="44.41688" lon="5.41553">
        <ele>1111.9</ele>
        <time>2019-06-01T12:12:04Z</time>
      </trkpt>
      <trkpt lat="44.41689" lon="5.41566">
        <ele>1110.4</ele>
        <time>2019-06-01T12:12:12Z</time>
      </trkpt>
      <trkpt lat="44.41691" lon="5.4158">
        <ele>1109</ele>
        <time>2019-06-01T12:12:20Z</time>
      </trkpt>
      <trkpt lat="44.41692" lon="5.41593">
        <ele>1108</ele>
        <time>2019-06-01T12:12:27Z</time>
      </trkpt>
      <trkpt lat="44.41694" lon="5.41607">
        <ele>1107.1</ele>
        <time>2019-06-01T12:12:35Z</time>
      </trkpt>
      <trkpt lat="44.41697" lon="5.4162">
        <ele>1106.1</ele>
        <time>2019-06-01T12:12:43Z</time>
      </trkpt>
      <trkpt lat="44.41698" lon="5.41633">
        <ele>1105.3</ele>
        <time>2019-06-01T12:12:50Z</time>
      </trkpt>
      <trkpt lat="44.41702" lon="5.41646">
        <ele>1104.3</ele>
        <time>2019-06-01T12:12:58Z</time>
      </trkpt>
      <trkpt lat="44.41705" lon="5.41659">
        <ele>1103.6</ele>
        <time>2019-06-01T12:13:06Z</time>
      </trkpt>
      <trkpt lat="44.4171" lon="5.4167">
        <ele>1102.6</ele>
        <time>2019-06-01T12:13:13Z</time>
      </trkpt>
      <trkpt lat="44.41714" lon="5.41683">
        <ele>1101.8</ele>
        <time>2019-06-01T12:13:21Z</time>
      </trkpt>
      <trkpt lat="44.41718" lon="5.41695">
        <ele>1101</ele>
        <time>2019-06-01T12:13:29Z</time>
      </trkpt>
      <trkpt lat="44.41724" lon="5.41706">
        <ele>1099.9</ele>
        <time>2019-06-01T12:13:37Z</time>
      </trkpt>
      <trkpt lat="44.41729" lon="5.41718">
        <ele>1098.5</ele>
        <time>2019-06-01T12:13:48Z</time>
      </trkpt>
      <trkpt lat="44.41737" lon="5.41725">
        <ele>1097.2</ele>
        <time>2019-06-01T12:13:58Z</time>
      </trkpt>
      <trkpt lat="44.41746" lon="5.4173">
        <ele>1095.5</ele>
        <time>2019-06-01T12:14:08Z</time>
      </trkpt>
      <trkpt lat="44.41741" lon="5.41719">
        <ele>1093.1</ele>
        <time>2019-06-01T12:18:23Z</time>
      </trkpt>
      <trkpt lat="44.41732" lon="5.41717">
        <ele>1093.5</ele>
        <time>2019-06-01T12:19:23Z</time>
      </trkpt>
      <trkpt lat="44.41726" lon="5.41708">
        <ele>1094.4</ele>
        <time>2019-06-01T12:19:30Z</time>
      </trkpt>
      <trkpt lat="44.41719" lon="5.41698">
        <ele>1095.3</ele>
        <time>2019-06-01T12:19:38Z</time>
      </trkpt>
      <trkpt lat="44.41715" lon="5.41686">
        <ele>1096.1</ele>
        <time>2019-06-01T12:19:46Z</time>
      </trkpt>
      <trkpt lat="44.41712" lon="5.41673">
        <ele>1097.1</ele>
        <time>2019-06-01T12:19:54Z</time>
      </trkpt>
      <trkpt lat="44.41707" lon="5.41662">
        <ele>1098.1</ele>
        <time>2019-06-01T12:20:02Z</time>
      </trkpt>
      <trkpt lat="44.41701" lon="5.41651">
        <ele>1099</ele>
        <time>2019-06-01T12:20:10Z</time>
      </trkpt>
      <trkpt lat="44.41696" lon="5.41639">
        <ele>1100.2</ele>
        <time>2019-06-01T12:20:19Z</time>
      </trkpt>
      <trkpt lat="44.41693" lon="5.41627">
        <ele>1101.3</ele>
        <time>2019-06-01T12:20:27Z</time>
      </trkpt>
      <trkpt lat="44.4169" lon="5.41614">
        <ele>1102.5</ele>
        <time>2019-06-01T12:20:35Z</time>
      </trkpt>
      <trkpt lat="44.41688" lon="5.41601">
        <ele>1103.3</ele>
        <time>2019-06-01T12:20:43Z</time>
      </trkpt>
      <trkpt lat="44.41687" lon="5.41588">
        <ele>1103.8</ele>
        <time>2019-06-01T12:20:50Z</time>
      </trkpt>
      <trkpt lat="44.41686" lon="5.41574">
        <ele>1104.5</ele>
        <time>2019-06-01T12:20:58Z</time>
      </trkpt>
      <trkpt lat="44.41685" lon="5.41561">
        <ele>1105.4</ele>
        <time>2019-06-01T12:21:06Z</time>
      </trkpt>
      <trkpt lat="44.41683" lon="5.41548">
        <ele>1106.2</ele>
        <time>2019-06-01T12:21:13Z</time>
      </trkpt>
      <trkpt lat="44.41686" lon="5.41535">
        <ele>1107.4</ele>
        <time>2019-06-01T12:21:21Z</time>
      </trkpt>
      <trkpt lat="44.41689" lon="5.41522">
        <ele>1108.8</ele>
        <time>2019-06-01T12:21:29Z</time>
      </trkpt>
      <trkpt lat="44.41685" lon="5.4151">
        <ele>1110</ele>
        <time>2019-06-01T12:21:37Z</time>
      </trkpt>
      <trkpt lat="44.41678" lon="5.41501">
        <ele>1111.3</ele>
        <time>2019-06-01T12:21:45Z</time>
      </trkpt>
      <trkpt lat="44.41674" lon="5.41489">
        <ele>1112.9</ele>
        <time>2019-06-01T12:21:53Z</time>
      </trkpt>
      <trkpt lat="44.41671" lon="5.41476">
        <ele>1114</ele>
        <time>2019-06-01T12:22:01Z</time>
      </trkpt>
      <trkpt lat="44.4167" lon="5.41463">
        <ele>1115.2</ele>
        <time>2019-06-01T12:22:09Z</time>
      </trkpt>
      <trkpt lat="44.41669" lon="5.41449">
        <ele>1116.2</ele>
        <time>2019-06-01T12:22:17Z</time>
      </trkpt>
      <trkpt lat="44.41666" lon="5.41435">
        <ele>1117.3</ele>
        <time>2019-06-01T12:22:25Z</time>
      </trkpt>
      <trkpt lat="44.41667" lon="5.41421">
        <ele>1118</ele>
        <time>2019-06-01T12:22:33Z</time>
      </trkpt>
      <trkpt lat="44.41666" lon="5.41407">
        <ele>1118.6</ele>
        <time>2019-06-01T12:22:41Z</time>
      </trkpt>
      <trkpt lat="44.41662" lon="5.41395">
        <ele>1118.8</ele>
        <time>2019-06-01T12:22:48Z</time>
      </trkpt>
      <trkpt lat="44.41656" lon="5.41385">
        <ele>1119.2</ele>
        <time>2019-06-01T12:22:55Z</time>
      </trkpt>
      <trkpt lat="44.41654" lon="5.41372">
        <ele>1119.4</ele>
        <time>2019-06-01T12:23:03Z</time>
      </trkpt>
      <trkpt lat="44.41654" lon="5.41357">
        <ele>1119.4</ele>
        <time>2019-06-01T12:23:11Z</time>
      </trkpt>
      <trkpt lat="44.41652" lon="5.41345">
        <ele>1119.2</ele>
        <time>2019-06-01T12:23:18Z</time>
      </trkpt>
      <trkpt lat="44.41646" lon="5.41335">
        <ele>1118.9</ele>
        <time>2019-06-01T12:23:25Z</time>
      </trkpt>
      <trkpt lat="44.41639" lon="5.41326">
        <ele>1118.5</ele>
        <time>2019-06-01T12:23:33Z</time>
      </trkpt>
      <trkpt lat="44.41631" lon="5.41319">
        <ele>1117.8</ele>
        <time>2019-06-01T12:23:41Z</time>
      </trkpt>
      <trkpt lat="44.41622" lon="5.41319">
        <ele>1116.8</ele>
        <time>2019-06-01T12:23:50Z</time>
      </trkpt>
      <trkpt lat="44.41613" lon="5.41324">
        <ele>1115.6</ele>
        <time>2019-06-01T12:23:59Z</time>
      </trkpt>
      <trkpt lat="44.41604" lon="5.41329">
        <ele>1114.6</ele>
        <time>2019-06-01T12:24:08Z</time>
      </trkpt>
      <trkpt lat="44.41595" lon="5.41335">
        <ele>1113.9</ele>
        <time>2019-06-01T12:24:16Z</time>
      </trkpt>
      <trkpt lat="44.41587" lon="5.41341">
        <ele>1113.2</ele>
        <time>2019-06-01T12:24:25Z</time>
      </trkpt>
      <trkpt lat="44.41578" lon="5.41346">
        <ele>1112.4</ele>
        <time>2019-06-01T12:24:33Z</time>
      </trkpt>
      <trkpt lat="44.4157" lon="5.41352">
        <ele>1111.1</ele>
        <time>2019-06-01T12:24:42Z</time>
      </trkpt>
      <trkpt lat="44.41562" lon="5.41359">
        <ele>1109.6</ele>
        <time>2019-06-01T12:24:50Z</time>
      </trkpt>
      <trkpt lat="44.41554" lon="5.41366">
        <ele>1108.4</ele>
        <time>2019-06-01T12:24:58Z</time>
      </trkpt>
      <trkpt lat="44.41545" lon="5.4137">
        <ele>1107.4</ele>
        <time>2019-06-01T12:25:10Z</time>
      </trkpt>
      <trkpt lat="44.41536" lon="5.41367">
        <ele>1106.3</ele>
        <time>2019-06-01T12:25:20Z</time>
      </trkpt>
      <trkpt lat="44.41527" lon="5.41361">
        <ele>1105.2</ele>
        <time>2019-06-01T12:25:30Z</time>
      </trkpt>
      <trkpt lat="44.4152" lon="5.41353">
        <ele>1103.8</ele>
        <time>2019-06-01T12:25:39Z</time>
      </trkpt>
      <trkpt lat="44.41513" lon="5.41345">
        <ele>1102.6</ele>
        <time>2019-06-01T12:25:48Z</time>
      </trkpt>
      <trkpt lat="44.41504" lon="5.41339">
        <ele>1101.4</ele>
        <time>2019-06-01T12:25:56Z</time>
      </trkpt>
      <trkpt lat="44.41497" lon="5.41332">
        <ele>1100.6</ele>
        <time>2019-06-01T12:26:03Z</time>
      </trkpt>
      <trkpt lat="44.41489" lon="5.41324">
        <ele>1099.3</ele>
        <time>2019-06-01T12:26:11Z</time>
      </trkpt>
      <trkpt lat="44.4148" lon="5.41316">
        <ele>1098.2</ele>
        <time>2019-06-01T12:26:20Z</time>
      </trkpt>
      <trkpt lat="44.41473" lon="5.41308">
        <ele>1097.4</ele>
        <time>2019-06-01T12:26:28Z</time>
      </trkpt>
      <trkpt lat="44.41467" lon="5.41298">
        <ele>1096.3</ele>
        <time>2019-06-01T12:26:37Z</time>
      </trkpt>
      <trkpt lat="44.4146" lon="5.41289">
        <ele>1095.1</ele>
        <time>2019-06-01T12:26:44Z</time>
      </trkpt>
      <trkpt lat="44.41452" lon="5.41281">
        <ele>1093.5</ele>
        <time>2019-06-01T12:26:54Z</time>
      </trkpt>
      <trkpt lat="44.41445" lon="5.41274">
        <ele>1092.5</ele>
        <time>2019-06-01T12:27:01Z</time>
      </trkpt>
      <trkpt lat="44.41437" lon="5.41266">
        <ele>1091.5</ele>
        <time>2019-06-01T12:27:09Z</time>
      </trkpt>
      <trkpt lat="44.4143" lon="5.41258">
        <ele>1090.4</ele>
        <time>2019-06-01T12:27:17Z</time>
      </trkpt>
      <trkpt lat="44.41421" lon="5.41251">
        <ele>1089.1</ele>
        <time>2019-06-01T12:27:26Z</time>
      </trkpt>
      <trkpt lat="44.41413" lon="5.41245">
        <ele>1087.8</ele>
        <time>2019-06-01T12:27:35Z</time>
      </trkpt>
      <trkpt lat="44.41404" lon="5.41239">
        <ele>1086.6</ele>
        <time>2019-06-01T12:27:43Z</time>
      </trkpt>
      <trkpt lat="44.41396" lon="5.41232">
        <ele>1085.8</ele>
        <time>2019-06-01T12:27:51Z</time>
      </trkpt>
      <trkpt lat="44.41389" lon="5.41225">
        <ele>1084.6</ele>
        <time>2019-06-01T12:28:00Z</time>
      </trkpt>
      <trkpt lat="44.41381" lon="5.41216">
        <ele>1083.1</ele>
        <time>2019-06-01T12:28:09Z</time>
      </trkpt>
      <trkpt lat="44.41373" lon="5.41208">
        <ele>1082</ele>
        <time>2019-06-01T12:28:17Z</time>
      </trkpt>
      <trkpt lat="44.41365" lon="5.41199">
        <ele>1080.6</ele>
        <time>2019-06-01T12:28:25Z</time>
      </trkpt>
      <trkpt lat="44.41357" lon="5.41191">
        <ele>1079.3</ele>
        <time>2019-06-01T12:28:34Z</time>
      </trkpt>
      <trkpt lat="44.41349" lon="5.41183">
        <ele>1078</ele>
        <time>2019-06-01T12:28:42Z</time>
      </trkpt>
      <trkpt lat="44.41342" lon="5.41174">
        <ele>1077</ele>
        <time>2019-06-01T12:28:50Z</time>
      </trkpt>
      <trkpt lat="44.41335" lon="5.41165">
        <ele>1076.2</ele>
        <time>2019-06-01T12:28:58Z</time>
      </trkpt>
      <trkpt lat="44.4133" lon="5.41155">
        <ele>1075.2</ele>
        <time>2019-06-01T12:29:06Z</time>
      </trkpt>
      <trkpt lat="44.41324" lon="5.41145">
        <ele>1074.3</ele>
        <time>2019-06-01T12:29:14Z</time>
      </trkpt>
      <trkpt lat="44.41318" lon="5.41135">
        <ele>1073.1</ele>
        <time>2019-06-01T12:29:23Z</time>
      </trkpt>
      <trkpt lat="44.41311" lon="5.41127">
        <ele>1071.8</ele>
        <time>2019-06-01T12:29:32Z</time>
      </trkpt>
      <trkpt lat="44.41304" lon="5.41116">
        <ele>1070.1</ele>
        <time>2019-06-01T12:29:40Z</time>
      </trkpt>
      <trkpt lat="44.41298" lon="5.41105">
        <ele>1069</ele>
        <time>2019-06-01T12:29:48Z</time>
      </trkpt>
      <trkpt lat="44.41293" lon="5.41095">
        <ele>1067.9</ele>
        <time>2019-06-01T12:29:55Z</time>
      </trkpt>
      <trkpt lat="44.41287" lon="5.41084">
        <ele>1066.9</ele>
        <time>2019-06-01T12:30:03Z</time>
      </trkpt>
      <trkpt lat="44.41281" lon="5.41075">
        <ele>1065.8</ele>
        <time>2019-06-01T12:30:11Z</time>
      </trkpt>
      <trkpt lat="44.41274" lon="5.41066">
        <ele>1064.6</ele>
        <time>2019-06-01T12:30:20Z</time>
      </trkpt>
      <trkpt lat="44.41267" lon="5.41058">
        <ele>1063.7</ele>
        <time>2019-06-01T12:30:28Z</time>
      </trkpt>
      <trkpt lat="44.41259" lon="5.41049">
        <ele>1062.3</ele>
        <time>2019-06-01T12:30:36Z</time>
      </trkpt>
      <trkpt lat="44.41252" lon="5.41041">
        <ele>1060.8</ele>
        <time>2019-06-01T12:30:45Z</time>
      </trkpt>
      <trkpt lat="44.41245" lon="5.41032">
        <ele>1059.6</ele>
        <time>2019-06-01T12:30:54Z</time>
      </trkpt>
      <trkpt lat="44.41238" lon="5.41023">
        <ele>1058.1</ele>
        <time>2019-06-01T12:31:02Z</time>
      </trkpt>
      <trkpt lat="44.4123" lon="5.41016">
        <ele>1056.7</ele>
        <time>2019-06-01T12:31:12Z</time>
      </trkpt>
      <trkpt lat="44.41221" lon="5.41014">
        <ele>1055.6</ele>
        <time>2019-06-01T12:31:20Z</time>
      </trkpt>
      <trkpt lat="44.41211" lon="5.41012">
        <ele>1054.2</ele>
        <time>2019-06-01T12:31:28Z</time>
      </trkpt>
      <trkpt lat="44.41203" lon="5.41008">
        <ele>1052.9</ele>
        <time>2019-06-01T12:31:36Z</time>
      </trkpt>
      <trkpt lat="44.41194" lon="5.41001">
        <ele>1051.7</ele>
        <time>2019-06-01T12:31:43Z</time>
      </trkpt>
      <trkpt lat="44.41187" lon="5.40993">
        <ele>1050.9</ele>
        <time>2019-06-01T12:31:50Z</time>
      </trkpt>
      <trkpt lat="44.41179" lon="5.40986">
        <ele>1050</ele>
        <time>2019-06-01T12:31:57Z</time>
      </trkpt>
      <trkpt lat="44.41174" lon="5.40975">
        <ele>1048.7</ele>
        <time>2019-06-01T12:32:04Z</time>
      </trkpt>
      <trkpt lat="44.4117" lon="5.40964">
        <ele>1047.4</ele>
        <time>2019-06-01T12:32:12Z</time>
      </trkpt>
      <trkpt lat="44.41167" lon="5.40951">
        <ele>1046.4</ele>
        <time>2019-06-01T12:32:21Z</time>
      </trkpt>
      <trkpt lat="44.41163" lon="5.4094">
        <ele>1045.4</ele>
        <time>2019-06-01T12:32:30Z</time>
      </trkpt>
      <trkpt lat="44.41158" lon="5.40929">
        <ele>1044.2</ele>
        <time>2019-06-01T12:32:40Z</time>
      </trkpt>
      <trkpt lat="44.41152" lon="5.40918">
        <ele>1042.8</ele>
        <time>2019-06-01T12:32:49Z</time>
      </trkpt>
      <trkpt lat="44.41146" lon="5.40906">
        <ele>1041.9</ele>
        <time>2019-06-01T12:32:57Z</time>
      </trkpt>
      <trkpt lat="44.41139" lon="5.40898">
        <ele>1040.9</ele>
        <time>2019-06-01T12:33:05Z</time>
      </trkpt>
      <trkpt lat="44.41132" lon="5.40888">
        <ele>1039.9</ele>
        <time>2019-06-01T12:33:13Z</time>
      </trkpt>
      <trkpt lat="44.41126" lon="5.40877">
        <ele>1038.6</ele>
        <time>2019-06-01T12:33:22Z</time>
      </trkpt>
      <trkpt lat="44.4112" lon="5.40867">
        <ele>1037.4</ele>
        <time>2019-06-01T12:33:31Z</time>
      </trkpt>
      <trkpt lat="44.41112" lon="5.40859">
        <ele>1036.4</ele>
        <time>2019-06-01T12:33:39Z</time>
      </trkpt>
      <trkpt lat="44.41105" lon="5.4085">
        <ele>1035.5</ele>
        <time>2019-06-01T12:33:47Z</time>
      </trkpt>
      <trkpt lat="44.41096" lon="5.40843">
        <ele>1034.4</ele>
        <time>2019-06-01T12:33:55Z</time>
      </trkpt>
      <trkpt lat="44.41088" lon="5.40836">
        <ele>1033.1</ele>
        <time>2019-06-01T12:34:03Z</time>
      </trkpt>
      <trkpt lat="44.41081" lon="5.40826">
        <ele>1031.9</ele>
        <time>2019-06-01T12:34:11Z</time>
      </trkpt>
      <trkpt lat="44.41074" lon="5.40817">
        <ele>1030.9</ele>
        <time>2019-06-01T12:34:17Z</time>
      </trkpt>
      <trkpt lat="44.41067" lon="5.40808">
        <ele>1029.8</ele>
        <time>2019-06-01T12:34:24Z</time>
      </trkpt>
      <trkpt lat="44.41059" lon="5.40799">
        <ele>1028.5</ele>
        <time>2019-06-01T12:34:32Z</time>
      </trkpt>
      <trkpt lat="44.41052" lon="5.40789">
        <ele>1027.3</ele>
        <time>2019-06-01T12:34:40Z</time>
      </trkpt>
      <trkpt lat="44.41046" lon="5.40778">
        <ele>1026.3</ele>
        <time>2019-06-01T12:34:48Z</time>
      </trkpt>
      <trkpt lat="44.41041" lon="5.40768">
        <ele>1025.5</ele>
        <time>2019-06-01T12:34:55Z</time>
      </trkpt>
      <trkpt lat="44.41034" lon="5.40757">
        <ele>1024.7</ele>
        <time>2019-06-01T12:35:03Z</time>
      </trkpt>
      <trkpt lat="44.41028" lon="5.40747">
        <ele>1023.9</ele>
        <time>2019-06-01T12:35:10Z</time>
      </trkpt>
      <trkpt lat="44.41021" lon="5.40739">
        <ele>1023.2</ele>
        <time>2019-06-01T12:35:18Z</time>
      </trkpt>
      <trkpt lat="44.41013" lon="5.40732">
        <ele>1022.1</ele>
        <time>2019-06-01T12:35:26Z</time>
      </trkpt>
      <trkpt lat="44.41006" lon="5.40723">
        <ele>1020.9</ele>
        <time>2019-06-01T12:35:34Z</time>
      </trkpt>
      <trkpt lat="44.40998" lon="5.40714">
        <ele>1020</ele>
        <time>2019-06-01T12:35:42Z</time>
      </trkpt>
      <trkpt lat="44.4099" lon="5.40706">
        <ele>1019.2</ele>
        <time>2019-06-01T12:35:50Z</time>
      </trkpt>
      <trkpt lat="44.40982" lon="5.40698">
        <ele>1017.9</ele>
        <time>2019-06-01T12:35:58Z</time>
      </trkpt>
      <trkpt lat="44.40976" lon="5.40689">
        <ele>1016.9</ele>
        <time>2019-06-01T12:36:05Z</time>
      </trkpt>
      <trkpt lat="44.4097" lon="5.40679">
        <ele>1016.1</ele>
        <time>2019-06-01T12:36:12Z</time>
      </trkpt>
      <trkpt lat="44.40964" lon="5.40667">
        <ele>1015.3</ele>
        <time>2019-06-01T12:36:19Z</time>
      </trkpt>
      <trkpt lat="44.40958" lon="5.40656">
        <ele>1014.1</ele>
        <time>2019-06-01T12:36:27Z</time>
      </trkpt>
      <trkpt lat="44.40953" lon="5.40644">
        <ele>1013</ele>
        <time>2019-06-01T12:36:35Z</time>
      </trkpt>
      <trkpt lat="44.4095" lon="5.40631">
        <ele>1012.1</ele>
        <time>2019-06-01T12:36:43Z</time>
      </trkpt>
      <trkpt lat="44.40948" lon="5.40619">
        <ele>1010.7</ele>
        <time>2019-06-01T12:36:51Z</time>
      </trkpt>
      <trkpt lat="44.40945" lon="5.40606">
        <ele>1009.4</ele>
        <time>2019-06-01T12:37:00Z</time>
      </trkpt>
      <trkpt lat="44.40941" lon="5.40594">
        <ele>1007.7</ele>
        <time>2019-06-01T12:37:09Z</time>
      </trkpt>
      <trkpt lat="44.40937" lon="5.40581">
        <ele>1006.4</ele>
        <time>2019-06-01T12:37:18Z</time>
      </trkpt>
      <trkpt lat="44.40932" lon="5.4057">
        <ele>1005.1</ele>
        <time>2019-06-01T12:37:26Z</time>
      </trkpt>
      <trkpt lat="44.40928" lon="5.40558">
        <ele>1004.2</ele>
        <time>2019-06-01T12:37:34Z</time>
      </trkpt>
      <trkpt lat="44.40923" lon="5.40545">
        <ele>1003</ele>
        <time>2019-06-01T12:37:43Z</time>
      </trkpt>
      <trkpt lat="44.40921" lon="5.40532">
        <ele>1001.4</ele>
        <time>2019-06-01T12:37:51Z</time>
      </trkpt>
      <trkpt lat="44.40917" lon="5.4052">
        <ele>999.6</ele>
        <time>2019-06-01T12:38:00Z</time>
      </trkpt>
      <trkpt lat="44.40913" lon="5.40508">
        <ele>998.6</ele>
        <time>2019-06-01T12:38:08Z</time>
      </trkpt>
      <trkpt lat="44.40908" lon="5.40496">
        <ele>997.3</ele>
        <time>2019-06-01T12:38:18Z</time>
      </trkpt>
      <trkpt lat="44.40904" lon="5.40484">
        <ele>996.5</ele>
        <time>2019-06-01T12:38:26Z</time>
      </trkpt>
      <trkpt lat="44.40901" lon="5.40472">
        <ele>995</ele>
        <time>2019-06-01T12:38:35Z</time>
      </trkpt>
      <trkpt lat="44.40898" lon="5.40459">
        <ele>993.7</ele>
        <time>2019-06-01T12:38:43Z</time>
      </trkpt>
      <trkpt lat="44.40895" lon="5.40447">
        <ele>992.8</ele>
        <time>2019-06-01T12:38:51Z</time>
      </trkpt>
      <trkpt lat="44.40892" lon="5.40434">
        <ele>991.7</ele>
        <time>2019-06-01T12:38:59Z</time>
      </trkpt>
      <trkpt lat="44.40889" lon="5.40422">
        <ele>990.8</ele>
        <time>2019-06-01T12:39:07Z</time>
      </trkpt>
      <trkpt lat="44.40886" lon="5.4041">
        <ele>989.9</ele>
        <time>2019-06-01T12:39:14Z</time>
      </trkpt>
      <trkpt lat="44.40883" lon="5.40397">
        <ele>989</ele>
        <time>2019-06-01T12:39:23Z</time>
      </trkpt>
      <trkpt lat="44.4088" lon="5.40384">
        <ele>988</ele>
        <time>2019-06-01T12:39:31Z</time>
      </trkpt>
      <trkpt lat="44.40877" lon="5.40371">
        <ele>986.7</ele>
        <time>2019-06-01T12:39:39Z</time>
      </trkpt>
      <trkpt lat="44.40875" lon="5.40359">
        <ele>986</ele>
        <time>2019-06-01T12:39:46Z</time>
      </trkpt>
      <trkpt lat="44.40872" lon="5.40345">
        <ele>985.2</ele>
        <time>2019-06-01T12:39:53Z</time>
      </trkpt>
      <trkpt lat="44.4087" lon="5.40332">
        <ele>984.3</ele>
        <time>2019-06-01T12:40:01Z</time>
      </trkpt>
      <trkpt lat="44.40867" lon="5.4032">
        <ele>982.9</ele>
        <time>2019-06-01T12:40:09Z</time>
      </trkpt>
      <trkpt lat="44.40865" lon="5.40308">
        <ele>981.7</ele>
        <time>2019-06-01T12:40:17Z</time>
      </trkpt>
      <trkpt lat="44.40862" lon="5.40296">
        <ele>980.4</ele>
        <time>2019-06-01T12:40:26Z</time>
      </trkpt>
      <trkpt lat="44.40861" lon="5.40282">
        <ele>979.3</ele>
        <time>2019-06-01T12:40:34Z</time>
      </trkpt>
      <trkpt lat="44.40857" lon="5.40271">
        <ele>978.3</ele>
        <time>2019-06-01T12:40:41Z</time>
      </trkpt>
      <trkpt lat="44.40855" lon="5.40257">
        <ele>977.1</ele>
        <time>2019-06-01T12:40:49Z</time>
      </trkpt>
      <trkpt lat="44.40852" lon="5.40245">
        <ele>975.8</ele>
        <time>2019-06-01T12:40:56Z</time>
      </trkpt>
      <trkpt lat="44.4085" lon="5.40232">
        <ele>974.5</ele>
        <time>2019-06-01T12:41:04Z</time>
      </trkpt>
      <trkpt lat="44.40846" lon="5.4022">
        <ele>973.6</ele>
        <time>2019-06-01T12:41:12Z</time>
      </trkpt>
      <trkpt lat="44.40842" lon="5.40207">
        <ele>972.2</ele>
        <time>2019-06-01T12:41:21Z</time>
      </trkpt>
      <trkpt lat="44.40838" lon="5.40196">
        <ele>970.2</ele>
        <time>2019-06-01T12:41:41Z</time>
      </trkpt>
      <trkpt lat="44.40835" lon="5.40184">
        <ele>969.8</ele>
        <time>2019-06-01T12:41:50Z</time>
      </trkpt>
      <trkpt lat="44.40831" lon="5.40172">
        <ele>969.4</ele>
        <time>2019-06-01T12:41:59Z</time>
      </trkpt>
      <trkpt lat="44.40827" lon="5.4016">
        <ele>969</ele>
        <time>2019-06-01T12:42:08Z</time>
      </trkpt>
      <trkpt lat="44.40823" lon="5.40149">
        <ele>967.8</ele>
        <time>2019-06-01T12:42:16Z</time>
      </trkpt>
      <trkpt lat="44.4082" lon="5.40136">
        <ele>966.7</ele>
        <time>2019-06-01T12:42:25Z</time>
      </trkpt>
      <trkpt lat="44.40817" lon="5.40124">
        <ele>965.8</ele>
        <time>2019-06-01T12:42:32Z</time>
      </trkpt>
      <trkpt lat="44.40814" lon="5.4011">
        <ele>965</ele>
        <time>2019-06-01T12:42:39Z</time>
      </trkpt>
      <trkpt lat="44.40812" lon="5.40098">
        <ele>964.3</ele>
        <time>2019-06-01T12:42:45Z</time>
      </trkpt>
      <trkpt lat="44.40809" lon="5.40083">
        <ele>963.7</ele>
        <time>2019-06-01T12:42:52Z</time>
      </trkpt>
      <trkpt lat="44.40806" lon="5.40069">
        <ele>963.2</ele>
        <time>2019-06-01T12:42:59Z</time>
      </trkpt>
      <trkpt lat="44.40804" lon="5.40055">
        <ele>962.7</ele>
        <time>2019-06-01T12:43:07Z</time>
      </trkpt>
      <trkpt lat="44.40803" lon="5.40042">
        <ele>962</ele>
        <time>2019-06-01T12:43:15Z</time>
      </trkpt>
      <trkpt lat="44.40802" lon="5.40028">
        <ele>961.3</ele>
        <time>2019-06-01T12:43:23Z</time>
      </trkpt>
      <trkpt lat="44.408" lon="5.40014">
        <ele>960.2</ele>
        <time>2019-06-01T12:43:32Z</time>
      </trkpt>
      <trkpt lat="44.40799" lon="5.4">
        <ele>959.4</ele>
        <time>2019-06-01T12:43:40Z</time>
      </trkpt>
      <trkpt lat="44.408" lon="5.39987">
        <ele>958.6</ele>
        <time>2019-06-01T12:43:47Z</time>
      </trkpt>
      <trkpt lat="44.40799" lon="5.39974">
        <ele>957.5</ele>
        <time>2019-06-01T12:43:54Z</time>
      </trkpt>
      <trkpt lat="44.408" lon="5.39961">
        <ele>956.7</ele>
        <time>2019-06-01T12:44:02Z</time>
      </trkpt>
      <trkpt lat="44.40801" lon="5.39948">
        <ele>955.9</ele>
        <time>2019-06-01T12:44:09Z</time>
      </trkpt>
      <trkpt lat="44.40803" lon="5.39936">
        <ele>955.2</ele>
        <time>2019-06-01T12:44:15Z</time>
      </trkpt>
      <trkpt lat="44.40803" lon="5.39921">
        <ele>954.5</ele>
        <time>2019-06-01T12:44:22Z</time>
      </trkpt>
      <trkpt lat="44.40803" lon="5.39907">
        <ele>953.6</ele>
        <time>2019-06-01T12:44:29Z</time>
      </trkpt>
      <trkpt lat="44.40803" lon="5.39895">
        <ele>952.8</ele>
        <time>2019-06-01T12:44:36Z</time>
      </trkpt>
      <trkpt lat="44.40804" lon="5.39881">
        <ele>951.9</ele>
        <time>2019-06-01T12:44:43Z</time>
      </trkpt>
      <trkpt lat="44.40807" lon="5.39869">
        <ele>951</ele>
        <time>2019-06-01T12:44:49Z</time>
      </trkpt>
      <trkpt lat="44.40807" lon="5.39855">
        <ele>949.9</ele>
        <time>2019-06-01T12:44:56Z</time>
      </trkpt>
      <trkpt lat="44.40801" lon="5.39843">
        <ele>948.7</ele>
        <time>2019-06-01T12:45:03Z</time>
      </trkpt>
      <trkpt lat="44.40797" lon="5.39831">
        <ele>947.5</ele>
        <time>2019-06-01T12:45:10Z</time>
      </trkpt>
      <trkpt lat="44.40794" lon="5.39819">
        <ele>946.5</ele>
        <time>2019-06-01T12:45:18Z</time>
      </trkpt>
      <trkpt lat="44.40788" lon="5.39809">
        <ele>944.9</ele>
        <time>2019-06-01T12:45:27Z</time>
      </trkpt>
      <trkpt lat="44.40781" lon="5.39801">
        <ele>943.5</ele>
        <time>2019-06-01T12:45:38Z</time>
      </trkpt>
      <trkpt lat="44.40773" lon="5.39796">
        <ele>941.8</ele>
        <time>2019-06-01T12:45:48Z</time>
      </trkpt>
      <trkpt lat="44.40768" lon="5.39785">
        <ele>939</ele>
        <time>2019-06-01T12:46:14Z</time>
      </trkpt>
      <trkpt lat="44.40759" lon="5.39787">
        <ele>937.8</ele>
        <time>2019-06-01T12:46:41Z</time>
      </trkpt>
      <trkpt lat="44.40749" lon="5.39791">
        <ele>937.5</ele>
        <time>2019-06-01T12:46:49Z</time>
      </trkpt>
      <trkpt lat="44.4074" lon="5.39794">
        <ele>936.9</ele>
        <time>2019-06-01T12:46:56Z</time>
      </trkpt>
      <trkpt lat="44.4073" lon="5.39796">
        <ele>936</ele>
        <time>2019-06-01T12:47:04Z</time>
      </trkpt>
      <trkpt lat="44.4072" lon="5.39798">
        <ele>934.9</ele>
        <time>2019-06-01T12:47:12Z</time>
      </trkpt>
      <trkpt lat="44.4071" lon="5.39799">
        <ele>934.3</ele>
        <time>2019-06-01T12:47:20Z</time>
      </trkpt>
      <trkpt lat="44.407" lon="5.39802">
        <ele>933.7</ele>
        <time>2019-06-01T12:47:28Z</time>
      </trkpt>
      <trkpt lat="44.40691" lon="5.39803">
        <ele>932.7</ele>
        <time>2019-06-01T12:47:36Z</time>
      </trkpt>
      <trkpt lat="44.40682" lon="5.39805">
        <ele>931.8</ele>
        <time>2019-06-01T12:47:44Z</time>
      </trkpt>
      <trkpt lat="44.40672" lon="5.39806">
        <ele>930.5</ele>
        <time>2019-06-01T12:47:53Z</time>
      </trkpt>
      <trkpt lat="44.40663" lon="5.39808">
        <ele>929.3</ele>
        <time>2019-06-01T12:48:02Z</time>
      </trkpt>
      <trkpt lat="44.40653" lon="5.3981">
        <ele>928.5</ele>
        <time>2019-06-01T12:48:10Z</time>
      </trkpt>
      <trkpt lat="44.40644" lon="5.3981">
        <ele>927.5</ele>
        <time>2019-06-01T12:48:18Z</time>
      </trkpt>
      <trkpt lat="44.40634" lon="5.39808">
        <ele>926.7</ele>
        <time>2019-06-01T12:48:25Z</time>
      </trkpt>
      <trkpt lat="44.40624" lon="5.39807">
        <ele>925.9</ele>
        <time>2019-06-01T12:48:31Z</time>
      </trkpt>
      <trkpt lat="44.40615" lon="5.39805">
        <ele>925.1</ele>
        <time>2019-06-01T12:48:37Z</time>
      </trkpt>
      <trkpt lat="44.40606" lon="5.39801">
        <ele>924.3</ele>
        <time>2019-06-01T12:48:44Z</time>
      </trkpt>
      <trkpt lat="44.40597" lon="5.39798">
        <ele>923.4</ele>
        <time>2019-06-01T12:48:50Z</time>
      </trkpt>
      <trkpt lat="44.40587" lon="5.39796">
        <ele>922.7</ele>
        <time>2019-06-01T12:48:57Z</time>
      </trkpt>
      <trkpt lat="44.40577" lon="5.39793">
        <ele>921.6</ele>
        <time>2019-06-01T12:49:04Z</time>
      </trkpt>
      <trkpt lat="44.40567" lon="5.3979">
        <ele>920.6</ele>
        <time>2019-06-01T12:49:11Z</time>
      </trkpt>
      <trkpt lat="44.40559" lon="5.39786">
        <ele>919.2</ele>
        <time>2019-06-01T12:49:18Z</time>
      </trkpt>
      <trkpt lat="44.4055" lon="5.39782">
        <ele>918.3</ele>
        <time>2019-06-01T12:49:25Z</time>
      </trkpt>
      <trkpt lat="44.40541" lon="5.39778">
        <ele>917.7</ele>
        <time>2019-06-01T12:49:32Z</time>
      </trkpt>
      <trkpt lat="44.40532" lon="5.39774">
        <ele>916.8</ele>
        <time>2019-06-01T12:49:39Z</time>
      </trkpt>
      <trkpt lat="44.40523" lon="5.39771">
        <ele>916.1</ele>
        <time>2019-06-01T12:49:46Z</time>
      </trkpt>
      <trkpt lat="44.40514" lon="5.39766">
        <ele>915.1</ele>
        <time>2019-06-01T12:49:53Z</time>
      </trkpt>
      <trkpt lat="44.40505" lon="5.39764">
        <ele>914.2</ele>
        <time>2019-06-01T12:50:01Z</time>
      </trkpt>
      <trkpt lat="44.40496" lon="5.39758">
        <ele>913.6</ele>
        <time>2019-06-01T12:50:08Z</time>
      </trkpt>
      <trkpt lat="44.40487" lon="5.39753">
        <ele>912.7</ele>
        <time>2019-06-01T12:50:15Z</time>
      </trkpt>
      <trkpt lat="44.40479" lon="5.39748">
        <ele>912.1</ele>
        <time>2019-06-01T12:50:22Z</time>
      </trkpt>
      <trkpt lat="44.40471" lon="5.39741">
        <ele>911.3</ele>
        <time>2019-06-01T12:50:30Z</time>
      </trkpt>
      <trkpt lat="44.40462" lon="5.39736">
        <ele>910.4</ele>
        <time>2019-06-01T12:50:38Z</time>
      </trkpt>
      <trkpt lat="44.40452" lon="5.39732">
        <ele>909.4</ele>
        <time>2019-06-01T12:50:46Z</time>
      </trkpt>
      <trkpt lat="44.40442" lon="5.3973">
        <ele>908</ele>
        <time>2019-06-01T12:50:54Z</time>
      </trkpt>
      <trkpt lat="44.40433" lon="5.3973">
        <ele>907.3</ele>
        <time>2019-06-01T12:51:01Z</time>
      </trkpt>
      <trkpt lat="44.40423" lon="5.39732">
        <ele>906.4</ele>
        <time>2019-06-01T12:51:08Z</time>
      </trkpt>
      <trkpt lat="44.40413" lon="5.39735">
        <ele>905.4</ele>
        <time>2019-06-01T12:51:16Z</time>
      </trkpt>
      <trkpt lat="44.40403" lon="5.39738">
        <ele>903.9</ele>
        <time>2019-06-01T12:51:24Z</time>
      </trkpt>
      <trkpt lat="44.40394" lon="5.39741">
        <ele>902.8</ele>
        <time>2019-06-01T12:51:31Z</time>
      </trkpt>
      <trkpt lat="44.40385" lon="5.39746">
        <ele>902.1</ele>
        <time>2019-06-01T12:51:38Z</time>
      </trkpt>
      <trkpt lat="44.40376" lon="5.39749">
        <ele>901.5</ele>
        <time>2019-06-01T12:51:45Z</time>
      </trkpt>
      <trkpt lat="44.40367" lon="5.39751">
        <ele>900.9</ele>
        <time>2019-06-01T12:51:52Z</time>
      </trkpt>
      <trkpt lat="44.40358" lon="5.39753">
        <ele>900.4</ele>
        <time>2019-06-01T12:51:59Z</time>
      </trkpt>
      <trkpt lat="44.40349" lon="5.39757">
        <ele>899.7</ele>
        <time>2019-06-01T12:52:06Z</time>
      </trkpt>
      <trkpt lat="44.4034" lon="5.39763">
        <ele>898.5</ele>
        <time>2019-06-01T12:52:15Z</time>
      </trkpt>
      <trkpt lat="44.40331" lon="5.39769">
        <ele>897.3</ele>
        <time>2019-06-01T12:52:22Z</time>
      </trkpt>
      <trkpt lat="44.40322" lon="5.39776">
        <ele>896.3</ele>
        <time>2019-06-01T12:52:29Z</time>
      </trkpt>
      <trkpt lat="44.40313" lon="5.39781">
        <ele>895.5</ele>
        <time>2019-06-01T12:52:35Z</time>
      </trkpt>
      <trkpt lat="44.40305" lon="5.39786">
        <ele>894.8</ele>
        <time>2019-06-01T12:52:41Z</time>
      </trkpt>
      <trkpt lat="44.40302" lon="5.39774">
        <ele>892.8</ele>
        <time>2019-06-01T12:52:54Z</time>
      </trkpt>
      <trkpt lat="44.40308" lon="5.39764">
        <ele>891.7</ele>
        <time>2019-06-01T12:53:02Z</time>
      </trkpt>
      <trkpt lat="44.40313" lon="5.39754">
        <ele>890.8</ele>
        <time>2019-06-01T12:53:09Z</time>
      </trkpt>
      <trkpt lat="44.40319" lon="5.39742">
        <ele>890.2</ele>
        <time>2019-06-01T12:53:16Z</time>
      </trkpt>
      <trkpt lat="44.40326" lon="5.39734">
        <ele>889.7</ele>
        <time>2019-06-01T12:53:23Z</time>
      </trkpt>
      <trkpt lat="44.40336" lon="5.39729">
        <ele>889.4</ele>
        <time>2019-06-01T12:53:30Z</time>
      </trkpt>
      <trkpt lat="44.40345" lon="5.39728">
        <ele>889.3</ele>
        <time>2019-06-01T12:53:38Z</time>
      </trkpt>
      <trkpt lat="44.40354" lon="5.39727">
        <ele>889</ele>
        <time>2019-06-01T12:53:45Z</time>
      </trkpt>
      <trkpt lat="44.40364" lon="5.39724">
        <ele>888.8</ele>
        <time>2019-06-01T12:53:53Z</time>
      </trkpt>
      <trkpt lat="44.40372" lon="5.39718">
        <ele>888.6</ele>
        <time>2019-06-01T12:54:00Z</time>
      </trkpt>
      <trkpt lat="44.40381" lon="5.39712">
        <ele>888.3</ele>
        <time>2019-06-01T12:54:07Z</time>
      </trkpt>
      <trkpt lat="44.40389" lon="5.39705">
        <ele>888</ele>
        <time>2019-06-01T12:54:14Z</time>
      </trkpt>
      <trkpt lat="44.40397" lon="5.39696">
        <ele>887.7</ele>
        <time>2019-06-01T12:54:21Z</time>
      </trkpt>
      <trkpt lat="44.40403" lon="5.39687">
        <ele>887.1</ele>
        <time>2019-06-01T12:54:28Z</time>
      </trkpt>
      <trkpt lat="44.40408" lon="5.39676">
        <ele>886.5</ele>
        <time>2019-06-01T12:54:37Z</time>
      </trkpt>
      <trkpt lat="44.40413" lon="5.39665">
        <ele>885.7</ele>
        <time>2019-06-01T12:54:45Z</time>
      </trkpt>
      <trkpt lat="44.40417" lon="5.39652">
        <ele>884.9</ele>
        <time>2019-06-01T12:54:53Z</time>
      </trkpt>
      <trkpt lat="44.40421" lon="5.39639">
        <ele>883.9</ele>
        <time>2019-06-01T12:55:01Z</time>
      </trkpt>
      <trkpt lat="44.40426" lon="5.39629">
        <ele>882.9</ele>
        <time>2019-06-01T12:55:08Z</time>
      </trkpt>
      <trkpt lat="44.40432" lon="5.39618">
        <ele>882.4</ele>
        <time>2019-06-01T12:55:14Z</time>
      </trkpt>
      <trkpt lat="44.40438" lon="5.39607">
        <ele>881.7</ele>
        <time>2019-06-01T12:55:21Z</time>
      </trkpt>
      <trkpt lat="44.40444" lon="5.39597">
        <ele>881</ele>
        <time>2019-06-01T12:55:28Z</time>
      </trkpt>
      <trkpt lat="44.40443" lon="5.39584">
        <ele>880.6</ele>
        <time>2019-06-01T12:55:35Z</time>
      </trkpt>
      <trkpt lat="44.40433" lon="5.39582">
        <ele>879.7</ele>
        <time>2019-06-01T12:55:43Z</time>
      </trkpt>
      <trkpt lat="44.40423" lon="5.39583">
        <ele>878.7</ele>
        <time>2019-06-01T12:55:51Z</time>
      </trkpt>
      <trkpt lat="44.40415" lon="5.3959">
        <ele>877.3</ele>
        <time>2019-06-01T12:56:01Z</time>
      </trkpt>
      <trkpt lat="44.40408" lon="5.39598">
        <ele>876.3</ele>
        <time>2019-06-01T12:56:09Z</time>
      </trkpt>
      <trkpt lat="44.40401" lon="5.39609">
        <ele>875.5</ele>
        <time>2019-06-01T12:56:18Z</time>
      </trkpt>
      <trkpt lat="44.40396" lon="5.39619">
        <ele>874.8</ele>
        <time>2019-06-01T12:56:25Z</time>
      </trkpt>
      <trkpt lat="44.40389" lon="5.3963">
        <ele>874.1</ele>
        <time>2019-06-01T12:56:32Z</time>
      </trkpt>
      <trkpt lat="44.40383" lon="5.3964">
        <ele>873.4</ele>
        <time>2019-06-01T12:56:40Z</time>
      </trkpt>
      <trkpt lat="44.40376" lon="5.39649">
        <ele>872.5</ele>
        <time>2019-06-01T12:56:49Z</time>
      </trkpt>
      <trkpt lat="44.40367" lon="5.39657">
        <ele>871.9</ele>
        <time>2019-06-01T12:56:56Z</time>
      </trkpt>
      <trkpt lat="44.4036" lon="5.39664">
        <ele>871.3</ele>
        <time>2019-06-01T12:57:04Z</time>
      </trkpt>
      <trkpt lat="44.40351" lon="5.39665">
        <ele>870.4</ele>
        <time>2019-06-01T12:57:13Z</time>
      </trkpt>
      <trkpt lat="44.40341" lon="5.39665">
        <ele>870</ele>
        <time>2019-06-01T12:57:20Z</time>
      </trkpt>
      <trkpt lat="44.40331" lon="5.39664">
        <ele>869.6</ele>
        <time>2019-06-01T12:57:27Z</time>
      </trkpt>
      <trkpt lat="44.40321" lon="5.39662">
        <ele>869.2</ele>
        <time>2019-06-01T12:57:34Z</time>
      </trkpt>
      <trkpt lat="44.40312" lon="5.39662">
        <ele>868.5</ele>
        <time>2019-06-01T12:57:40Z</time>
      </trkpt>
      <trkpt lat="44.40303" lon="5.39661">
        <ele>868</ele>
        <time>2019-06-01T12:57:46Z</time>
      </trkpt>
      <trkpt lat="44.40293" lon="5.3966">
        <ele>867.7</ele>
        <time>2019-06-01T12:57:52Z</time>
      </trkpt>
      <trkpt lat="44.40284" lon="5.39656">
        <ele>867.7</ele>
        <time>2019-06-01T12:57:58Z</time>
      </trkpt>
      <trkpt lat="44.40275" lon="5.39657">
        <ele>867.8</ele>
        <time>2019-06-01T12:58:04Z</time>
      </trkpt>
      <trkpt lat="44.40266" lon="5.39661">
        <ele>867.7</ele>
        <time>2019-06-01T12:58:10Z</time>
      </trkpt>
      <trkpt lat="44.40258" lon="5.39668">
        <ele>867.8</ele>
        <time>2019-06-01T12:58:18Z</time>
      </trkpt>
      <trkpt lat="44.40251" lon="5.39678">
        <ele>867.9</ele>
        <time>2019-06-01T12:58:26Z</time>
      </trkpt>
      <trkpt lat="44.40244" lon="5.39687">
        <ele>867.9</ele>
        <time>2019-06-01T12:58:34Z</time>
      </trkpt>
      <trkpt lat="44.40235" lon="5.39694">
        <ele>867.8</ele>
        <time>2019-06-01T12:58:42Z</time>
      </trkpt>
      <trkpt lat="44.40227" lon="5.39699">
        <ele>867.6</ele>
        <time>2019-06-01T12:58:48Z</time>
      </trkpt>
      <trkpt lat="44.40219" lon="5.39706">
        <ele>867.3</ele>
        <time>2019-06-01T12:58:54Z</time>
      </trkpt>
      <trkpt lat="44.40212" lon="5.39716">
        <ele>866.9</ele>
        <time>2019-06-01T12:59:01Z</time>
      </trkpt>
      <trkpt lat="44.40204" lon="5.39725">
        <ele>866.3</ele>
        <time>2019-06-01T12:59:08Z</time>
      </trkpt>
      <trkpt lat="44.40197" lon="5.39734">
        <ele>865.7</ele>
        <time>2019-06-01T12:59:15Z</time>
      </trkpt>
      <trkpt lat="44.40191" lon="5.39743">
        <ele>865.3</ele>
        <time>2019-06-01T12:59:22Z</time>
      </trkpt>
      <trkpt lat="44.40184" lon="5.39753">
        <ele>865.1</ele>
        <time>2019-06-01T12:59:29Z</time>
      </trkpt>
      <trkpt lat="44.40176" lon="5.39762">
        <ele>864.6</ele>
        <time>2019-06-01T12:59:36Z</time>
      </trkpt>
      <trkpt lat="44.40168" lon="5.39771">
        <ele>863</ele>
        <time>2019-06-01T12:59:42Z</time>
      </trkpt>
      <trkpt lat="44.40158" lon="5.39771">
        <ele>862.9</ele>
        <time>2019-06-01T12:59:56Z</time>
      </trkpt>
      <trkpt lat="44.40157" lon="5.39757">
        <ele>861.3</ele>
        <time>2019-06-01T13:00:18Z</time>
      </trkpt>
      <trkpt lat="44.40154" lon="5.39744">
        <ele>861</ele>
        <time>2019-06-01T13:00:26Z</time>
      </trkpt>
      <trkpt lat="44.40154" lon="5.39731">
        <ele>860.9</ele>
        <time>2019-06-01T13:00:34Z</time>
      </trkpt>
      <trkpt lat="44.40153" lon="5.39717">
        <ele>860.8</ele>
        <time>2019-06-01T13:00:43Z</time>
      </trkpt>
      <trkpt lat="44.40153" lon="5.39704">
        <ele>860.6</ele>
        <time>2019-06-01T13:00:50Z</time>
      </trkpt>
      <trkpt lat="44.40154" lon="5.39691">
        <ele>860.5</ele>
        <time>2019-06-01T13:00:57Z</time>
      </trkpt>
      <trkpt lat="44.40155" lon="5.39678">
        <ele>860.4</ele>
        <time>2019-06-01T13:01:03Z</time>
      </trkpt>
      <trkpt lat="44.40157" lon="5.39665">
        <ele>859.9</ele>
        <time>2019-06-01T13:01:09Z</time>
      </trkpt>
      <trkpt lat="44.40158" lon="5.39653">
        <ele>859.4</ele>
        <time>2019-06-01T13:01:15Z</time>
      </trkpt>
      <trkpt lat="44.40161" lon="5.3964">
        <ele>858.9</ele>
        <time>2019-06-01T13:01:21Z</time>
      </trkpt>
      <trkpt lat="44.40164" lon="5.39626">
        <ele>858.5</ele>
        <time>2019-06-01T13:01:27Z</time>
      </trkpt>
      <trkpt lat="44.40167" lon="5.39614">
        <ele>858.3</ele>
        <time>2019-06-01T13:01:33Z</time>
      </trkpt>
      <trkpt lat="44.40171" lon="5.39602">
        <ele>857.8</ele>
        <time>2019-06-01T13:01:40Z</time>
      </trkpt>
      <trkpt lat="44.40177" lon="5.3959">
        <ele>857.5</ele>
        <time>2019-06-01T13:01:47Z</time>
      </trkpt>
      <trkpt lat="44.40179" lon="5.39577">
        <ele>857.1</ele>
        <time>2019-06-01T13:01:54Z</time>
      </trkpt>
      <trkpt lat="44.40182" lon="5.39565">
        <ele>856.6</ele>
        <time>2019-06-01T13:02:00Z</time>
      </trkpt>
      <trkpt lat="44.40185" lon="5.39552">
        <ele>856.2</ele>
        <time>2019-06-01T13:02:07Z</time>
      </trkpt>
      <trkpt lat="44.40188" lon="5.3954">
        <ele>856</ele>
        <time>2019-06-01T13:02:13Z</time>
      </trkpt>
      <trkpt lat="44.40191" lon="5.39526">
        <ele>855.4</ele>
        <time>2019-06-01T13:02:21Z</time>
      </trkpt>
      <trkpt lat="44.40195" lon="5.39514">
        <ele>855</ele>
        <time>2019-06-01T13:02:27Z</time>
      </trkpt>
      <trkpt lat="44.40198" lon="5.39501">
        <ele>854.6</ele>
        <time>2019-06-01T13:02:33Z</time>
      </trkpt>
      <trkpt lat="44.40202" lon="5.3949">
        <ele>854.2</ele>
        <time>2019-06-01T13:02:39Z</time>
      </trkpt>
      <trkpt lat="44.40207" lon="5.39479">
        <ele>854</ele>
        <time>2019-06-01T13:02:45Z</time>
      </trkpt>
      <trkpt lat="44.40211" lon="5.39467">
        <ele>853.8</ele>
        <time>2019-06-01T13:02:52Z</time>
      </trkpt>
      <trkpt lat="44.40213" lon="5.39454">
        <ele>853.3</ele>
        <time>2019-06-01T13:02:58Z</time>
      </trkpt>
      <trkpt lat="44.40217" lon="5.39442">
        <ele>852.9</ele>
        <time>2019-06-01T13:03:04Z</time>
      </trkpt>
      <trkpt lat="44.40221" lon="5.39431">
        <ele>852.5</ele>
        <time>2019-06-01T13:03:10Z</time>
      </trkpt>
      <trkpt lat="44.40226" lon="5.39419">
        <ele>852</ele>
        <time>2019-06-01T13:03:16Z</time>
      </trkpt>
      <trkpt lat="44.40231" lon="5.39408">
        <ele>851.4</ele>
        <time>2019-06-01T13:03:23Z</time>
      </trkpt>
      <trkpt lat="44.40236" lon="5.39396">
        <ele>851</ele>
        <time>2019-06-01T13:03:30Z</time>
      </trkpt>
      <trkpt lat="44.40242" lon="5.39385">
        <ele>850.1</ele>
        <time>2019-06-01T13:03:37Z</time>
      </trkpt>
      <trkpt lat="44.40248" lon="5.39374">
        <ele>849.1</ele>
        <time>2019-06-01T13:03:45Z</time>
      </trkpt>
      <trkpt lat="44.40255" lon="5.39365">
        <ele>848.4</ele>
        <time>2019-06-01T13:03:53Z</time>
      </trkpt>
      <trkpt lat="44.40263" lon="5.39356">
        <ele>847.7</ele>
        <time>2019-06-01T13:04:00Z</time>
      </trkpt>
      <trkpt lat="44.4027" lon="5.39346">
        <ele>847.2</ele>
        <time>2019-06-01T13:04:07Z</time>
      </trkpt>
      <trkpt lat="44.40277" lon="5.39338">
        <ele>846.9</ele>
        <time>2019-06-01T13:04:13Z</time>
      </trkpt>
      <trkpt lat="44.40283" lon="5.39329">
        <ele>846.7</ele>
        <time>2019-06-01T13:04:19Z</time>
      </trkpt>
      <trkpt lat="44.4029" lon="5.39319">
        <ele>846.6</ele>
        <time>2019-06-01T13:04:25Z</time>
      </trkpt>
      <trkpt lat="44.40295" lon="5.39308">
        <ele>846.2</ele>
        <time>2019-06-01T13:04:31Z</time>
      </trkpt>
      <trkpt lat="44.40298" lon="5.39296">
        <ele>845.8</ele>
        <time>2019-06-01T13:04:37Z</time>
      </trkpt>
      <trkpt lat="44.40302" lon="5.39284">
        <ele>845.2</ele>
        <time>2019-06-01T13:04:44Z</time>
      </trkpt>
      <trkpt lat="44.40299" lon="5.3927">
        <ele>844.1</ele>
        <time>2019-06-01T13:04:53Z</time>
      </trkpt>
      <trkpt lat="44.40292" lon="5.3926">
        <ele>843</ele>
        <time>2019-06-01T13:05:02Z</time>
      </trkpt>
      <trkpt lat="44.40285" lon="5.39251">
        <ele>842.3</ele>
        <time>2019-06-01T13:05:10Z</time>
      </trkpt>
      <trkpt lat="44.40278" lon="5.39241">
        <ele>841.5</ele>
        <time>2019-06-01T13:05:17Z</time>
      </trkpt>
      <trkpt lat="44.40271" lon="5.39231">
        <ele>840.9</ele>
        <time>2019-06-01T13:05:24Z</time>
      </trkpt>
      <trkpt lat="44.40263" lon="5.39221">
        <ele>840.3</ele>
        <time>2019-06-01T13:05:32Z</time>
      </trkpt>
      <trkpt lat="44.40259" lon="5.3921">
        <ele>839.8</ele>
        <time>2019-06-01T13:05:39Z</time>
      </trkpt>
      <trkpt lat="44.40253" lon="5.392">
        <ele>839.3</ele>
        <time>2019-06-01T13:05:45Z</time>
      </trkpt>
      <trkpt lat="44.40246" lon="5.3919">
        <ele>838.6</ele>
        <time>2019-06-01T13:05:51Z</time>
      </trkpt>
      <trkpt lat="44.40239" lon="5.3918">
        <ele>837.9</ele>
        <time>2019-06-01T13:05:58Z</time>
      </trkpt>
      <trkpt lat="44.40231" lon="5.39172">
        <ele>837.3</ele>
        <time>2019-06-01T13:06:06Z</time>
      </trkpt>
      <trkpt lat="44.40224" lon="5.39163">
        <ele>836.6</ele>
        <time>2019-06-01T13:06:14Z</time>
      </trkpt>
      <trkpt lat="44.40216" lon="5.39154">
        <ele>836.2</ele>
        <time>2019-06-01T13:06:21Z</time>
      </trkpt>
      <trkpt lat="44.40208" lon="5.39145">
        <ele>835.5</ele>
        <time>2019-06-01T13:06:28Z</time>
      </trkpt>
      <trkpt lat="44.40201" lon="5.39137">
        <ele>835.1</ele>
        <time>2019-06-01T13:06:34Z</time>
      </trkpt>
      <trkpt lat="44.40194" lon="5.39128">
        <ele>834.7</ele>
        <time>2019-06-01T13:06:41Z</time>
      </trkpt>
      <trkpt lat="44.40188" lon="5.39116">
        <ele>834.3</ele>
        <time>2019-06-01T13:06:48Z</time>
      </trkpt>
      <trkpt lat="44.40184" lon="5.39103">
        <ele>834.2</ele>
        <time>2019-06-01T13:06:55Z</time>
      </trkpt>
      <trkpt lat="44.40179" lon="5.39092">
        <ele>834</ele>
        <time>2019-06-01T13:07:02Z</time>
      </trkpt>
      <trkpt lat="44.40175" lon="5.39079">
        <ele>834</ele>
        <time>2019-06-01T13:07:08Z</time>
      </trkpt>
      <trkpt lat="44.40172" lon="5.39066">
        <ele>833.9</ele>
        <time>2019-06-01T13:07:14Z</time>
      </trkpt>
      <trkpt lat="44.40171" lon="5.39054">
        <ele>833.8</ele>
        <time>2019-06-01T13:07:20Z</time>
      </trkpt>
      <trkpt lat="44.40169" lon="5.3904">
        <ele>833.6</ele>
        <time>2019-06-01T13:07:27Z</time>
      </trkpt>
      <trkpt lat="44.40167" lon="5.39027">
        <ele>833.5</ele>
        <time>2019-06-01T13:07:33Z</time>
      </trkpt>
      <trkpt lat="44.40165" lon="5.39013">
        <ele>833.4</ele>
        <time>2019-06-01T13:07:41Z</time>
      </trkpt>
      <trkpt lat="44.40167" lon="5.38999">
        <ele>833.1</ele>
        <time>2019-06-01T13:07:49Z</time>
      </trkpt>
      <trkpt lat="44.40168" lon="5.38985">
        <ele>832.8</ele>
        <time>2019-06-01T13:07:55Z</time>
      </trkpt>
      <trkpt lat="44.40169" lon="5.38973">
        <ele>832.7</ele>
        <time>2019-06-01T13:08:01Z</time>
      </trkpt>
      <trkpt lat="44.4017" lon="5.38959">
        <ele>832.7</ele>
        <time>2019-06-01T13:08:07Z</time>
      </trkpt>
      <trkpt lat="44.40171" lon="5.38947">
        <ele>832.6</ele>
        <time>2019-06-01T13:08:13Z</time>
      </trkpt>
      <trkpt lat="44.4017" lon="5.38933">
        <ele>832.6</ele>
        <time>2019-06-01T13:08:20Z</time>
      </trkpt>
      <trkpt lat="44.40166" lon="5.38919">
        <ele>832.4</ele>
        <time>2019-06-01T13:08:27Z</time>
      </trkpt>
      <trkpt lat="44.4016" lon="5.38909">
        <ele>832.4</ele>
        <time>2019-06-01T13:08:34Z</time>
      </trkpt>
      <trkpt lat="44.40154" lon="5.38899">
        <ele>832.3</ele>
        <time>2019-06-01T13:08:40Z</time>
      </trkpt>
      <trkpt lat="44.40147" lon="5.3889">
        <ele>832.3</ele>
        <time>2019-06-01T13:08:46Z</time>
      </trkpt>
      <trkpt lat="44.40141" lon="5.38879">
        <ele>832.3</ele>
        <time>2019-06-01T13:08:52Z</time>
      </trkpt>
      <trkpt lat="44.40135" lon="5.38869">
        <ele>832.3</ele>
        <time>2019-06-01T13:08:58Z</time>
      </trkpt>
      <trkpt lat="44.40129" lon="5.38858">
        <ele>832.3</ele>
        <time>2019-06-01T13:09:04Z</time>
      </trkpt>
      <trkpt lat="44.40123" lon="5.38847">
        <ele>832.4</ele>
        <time>2019-06-01T13:09:10Z</time>
      </trkpt>
      <trkpt lat="44.40117" lon="5.38836">
        <ele>832.5</ele>
        <time>2019-06-01T13:09:16Z</time>
      </trkpt>
      <trkpt lat="44.40111" lon="5.38824">
        <ele>832.6</ele>
        <time>2019-06-01T13:09:23Z</time>
      </trkpt>
      <trkpt lat="44.40107" lon="5.38811">
        <ele>832.7</ele>
        <time>2019-06-01T13:09:32Z</time>
      </trkpt>
      <trkpt lat="44.40102" lon="5.38799">
        <ele>832.8</ele>
        <time>2019-06-01T13:09:40Z</time>
      </trkpt>
      <trkpt lat="44.40098" lon="5.38787">
        <ele>833</ele>
        <time>2019-06-01T13:09:48Z</time>
      </trkpt>
      <trkpt lat="44.40095" lon="5.38775">
        <ele>833.2</ele>
        <time>2019-06-01T13:09:56Z</time>
      </trkpt>
      <trkpt lat="44.40092" lon="5.38763">
        <ele>833.6</ele>
        <time>2019-06-01T13:10:03Z</time>
      </trkpt>
      <trkpt lat="44.40094" lon="5.38777">
        <ele>834.6</ele>
        <time>2019-06-01T13:10:36Z</time>
      </trkpt>
      <trkpt lat="44.40094" lon="5.38791">
        <ele>834.7</ele>
        <time>2019-06-01T13:10:44Z</time>
      </trkpt>
      <trkpt lat="44.40091" lon="5.38804">
        <ele>835.4</ele>
        <time>2019-06-01T13:10:52Z</time>
      </trkpt>
      <trkpt lat="44.40087" lon="5.38815">
        <ele>836.2</ele>
        <time>2019-06-01T13:11:00Z</time>
      </trkpt>
      <trkpt lat="44.40084" lon="5.38829">
        <ele>837.1</ele>
        <time>2019-06-01T13:11:08Z</time>
      </trkpt>
      <trkpt lat="44.40083" lon="5.38843">
        <ele>837.6</ele>
        <time>2019-06-01T13:11:15Z</time>
      </trkpt>
      <trkpt lat="44.40083" lon="5.38856">
        <ele>838.2</ele>
        <time>2019-06-01T13:11:21Z</time>
      </trkpt>
      <trkpt lat="44.40086" lon="5.38869">
        <ele>839</ele>
        <time>2019-06-01T13:11:30Z</time>
      </trkpt>
      <trkpt lat="44.40089" lon="5.38881">
        <ele>839.8</ele>
        <time>2019-06-01T13:11:37Z</time>
      </trkpt>
      <trkpt lat="44.4009" lon="5.38894">
        <ele>840.5</ele>
        <time>2019-06-01T13:11:44Z</time>
      </trkpt>
      <trkpt lat="44.40092" lon="5.38909">
        <ele>841.3</ele>
        <time>2019-06-01T13:11:51Z</time>
      </trkpt>
      <trkpt lat="44.40093" lon="5.38922">
        <ele>841.8</ele>
        <time>2019-06-01T13:11:57Z</time>
      </trkpt>
      <trkpt lat="44.40094" lon="5.38936">
        <ele>842.3</ele>
        <time>2019-06-01T13:12:04Z</time>
      </trkpt>
      <trkpt lat="44.40095" lon="5.38951">
        <ele>843</ele>
        <time>2019-06-01T13:12:11Z</time>
      </trkpt>
      <trkpt lat="44.40097" lon="5.38964">
        <ele>843.9</ele>
        <time>2019-06-01T13:12:18Z</time>
      </trkpt>
      <trkpt lat="44.40097" lon="5.38979">
        <ele>844.8</ele>
        <time>2019-06-01T13:12:25Z</time>
      </trkpt>
      <trkpt lat="44.40098" lon="5.38992">
        <ele>845.5</ele>
        <time>2019-06-01T13:12:32Z</time>
      </trkpt>
      <trkpt lat="44.40096" lon="5.39006">
        <ele>846.5</ele>
        <time>2019-06-01T13:12:40Z</time>
      </trkpt>
      <trkpt lat="44.40096" lon="5.39019">
        <ele>848.3</ele>
        <time>2019-06-01T13:12:50Z</time>
      </trkpt>
      <trkpt lat="44.40094" lon="5.39032">
        <ele>850.1</ele>
        <time>2019-06-01T13:12:58Z</time>
      </trkpt>
      <trkpt lat="44.40094" lon="5.39046">
        <ele>851.4</ele>
        <time>2019-06-01T13:13:05Z</time>
      </trkpt>
      <trkpt lat="44.40095" lon="5.39059">
        <ele>852.4</ele>
        <time>2019-06-01T13:13:11Z</time>
      </trkpt>
      <trkpt lat="44.40096" lon="5.39072">
        <ele>853.6</ele>
        <time>2019-06-01T13:13:19Z</time>
      </trkpt>
      <trkpt lat="44.40097" lon="5.39085">
        <ele>854.7</ele>
        <time>2019-06-01T13:13:26Z</time>
      </trkpt>
      <trkpt lat="44.40098" lon="5.39097">
        <ele>855.6</ele>
        <time>2019-06-01T13:13:33Z</time>
      </trkpt>
      <trkpt lat="44.401" lon="5.39111">
        <ele>856.7</ele>
        <time>2019-06-01T13:13:40Z</time>
      </trkpt>
      <trkpt lat="44.40104" lon="5.39124">
        <ele>858.2</ele>
        <time>2019-06-01T13:13:48Z</time>
      </trkpt>
      <trkpt lat="44.40107" lon="5.39137">
        <ele>859.4</ele>
        <time>2019-06-01T13:13:55Z</time>
      </trkpt>
      <trkpt lat="44.40108" lon="5.39151">
        <ele>861</ele>
        <time>2019-06-01T13:14:03Z</time>
      </trkpt>
      <trkpt lat="44.4011" lon="5.39163">
        <ele>862.6</ele>
        <time>2019-06-01T13:14:11Z</time>
      </trkpt>
      <trkpt lat="44.40113" lon="5.39176">
        <ele>864</ele>
        <time>2019-06-01T13:14:18Z</time>
      </trkpt>
      <trkpt lat="44.40116" lon="5.39189">
        <ele>865.9</ele>
        <time>2019-06-01T13:14:26Z</time>
      </trkpt>
      <trkpt lat="44.40118" lon="5.39202">
        <ele>868.2</ele>
        <time>2019-06-01T13:14:35Z</time>
      </trkpt>
      <trkpt lat="44.40122" lon="5.39215">
        <ele>870.1</ele>
        <time>2019-06-01T13:14:43Z</time>
      </trkpt>
      <trkpt lat="44.40125" lon="5.39226">
        <ele>872</ele>
        <time>2019-06-01T13:14:51Z</time>
      </trkpt>
      <trkpt lat="44.40128" lon="5.39239">
        <ele>874.5</ele>
        <time>2019-06-01T13:14:59Z</time>
      </trkpt>
      <trkpt lat="44.40131" lon="5.39251">
        <ele>876</ele>
        <time>2019-06-01T13:15:06Z</time>
      </trkpt>
      <trkpt lat="44.40133" lon="5.39263">
        <ele>877.6</ele>
        <time>2019-06-01T13:15:18Z</time>
      </trkpt>
      <trkpt lat="44.40132" lon="5.39276">
        <ele>880.8</ele>
        <time>2019-06-01T13:15:54Z</time>
      </trkpt>
      <trkpt lat="44.4013" lon="5.39289">
        <ele>881</ele>
        <time>2019-06-01T13:16:28Z</time>
      </trkpt>
      <trkpt lat="44.40129" lon="5.39303">
        <ele>881.8</ele>
        <time>2019-06-01T13:16:40Z</time>
      </trkpt>
      <trkpt lat="44.40121" lon="5.39309">
        <ele>883.4</ele>
        <time>2019-06-01T13:16:52Z</time>
      </trkpt>
      <trkpt lat="44.40112" lon="5.39307">
        <ele>886</ele>
        <time>2019-06-01T13:17:04Z</time>
      </trkpt>
      <trkpt lat="44.40102" lon="5.39306">
        <ele>888.5</ele>
        <time>2019-06-01T13:17:14Z</time>
      </trkpt>
      <trkpt lat="44.40092" lon="5.39304">
        <ele>891.3</ele>
        <time>2019-06-01T13:17:25Z</time>
      </trkpt>
      <trkpt lat="44.40083" lon="5.39303">
        <ele>893.2</ele>
        <time>2019-06-01T13:17:33Z</time>
      </trkpt>
      <trkpt lat="44.40074" lon="5.39303">
        <ele>894.9</ele>
        <time>2019-06-01T13:17:40Z</time>
      </trkpt>
      <trkpt lat="44.40064" lon="5.39305">
        <ele>897</ele>
        <time>2019-06-01T13:17:49Z</time>
      </trkpt>
      <trkpt lat="44.40055" lon="5.39305">
        <ele>899</ele>
        <time>2019-06-01T13:17:57Z</time>
      </trkpt>
      <trkpt lat="44.40045" lon="5.39306">
        <ele>901.7</ele>
        <time>2019-06-01T13:18:06Z</time>
      </trkpt>
      <trkpt lat="44.40035" lon="5.39306">
        <ele>904.4</ele>
        <time>2019-06-01T13:18:16Z</time>
      </trkpt>
      <trkpt lat="44.40026" lon="5.39307">
        <ele>906</ele>
        <time>2019-06-01T13:18:24Z</time>
      </trkpt>
      <trkpt lat="44.40017" lon="5.39308">
        <ele>908.3</ele>
        <time>2019-06-01T13:18:33Z</time>
      </trkpt>
      <trkpt lat="44.40008" lon="5.39309">
        <ele>910.7</ele>
        <time>2019-06-01T13:18:41Z</time>
      </trkpt>
      <trkpt lat="44.39999" lon="5.39309">
        <ele>912.7</ele>
        <time>2019-06-01T13:18:50Z</time>
      </trkpt>
      <trkpt lat="44.39989" lon="5.39306">
        <ele>914.3</ele>
        <time>2019-06-01T13:18:58Z</time>
      </trkpt>
      <trkpt lat="44.3998" lon="5.39302">
        <ele>915.3</ele>
        <time>2019-06-01T13:19:04Z</time>
      </trkpt>
      <trkpt lat="44.3997" lon="5.39298">
        <ele>916.1</ele>
        <time>2019-06-01T13:19:10Z</time>
      </trkpt>
      <trkpt lat="44.3996" lon="5.39297">
        <ele>917.1</ele>
        <time>2019-06-01T13:19:18Z</time>
      </trkpt>
      <trkpt lat="44.39951" lon="5.39296">
        <ele>918.2</ele>
        <time>2019-06-01T13:19:26Z</time>
      </trkpt>
      <trkpt lat="44.39942" lon="5.39295">
        <ele>919.9</ele>
        <time>2019-06-01T13:19:34Z</time>
      </trkpt>
      <trkpt lat="44.39931" lon="5.393">
        <ele>921</ele>
        <time>2019-06-01T13:19:42Z</time>
      </trkpt>
      <trkpt lat="44.39919" lon="5.39306">
        <ele>924</ele>
        <time>2019-06-01T13:19:54Z</time>
      </trkpt>
      <trkpt lat="44.3991" lon="5.39314">
        <ele>926</ele>
        <time>2019-06-01T13:20:05Z</time>
      </trkpt>
      <trkpt lat="44.39901" lon="5.39317">
        <ele>927.6</ele>
        <time>2019-06-01T13:20:15Z</time>
      </trkpt>
      <trkpt lat="44.39892" lon="5.39317">
        <ele>928</ele>
        <time>2019-06-01T13:20:24Z</time>
      </trkpt>
      <trkpt lat="44.39883" lon="5.39319">
        <ele>928.2</ele>
        <time>2019-06-01T13:20:32Z</time>
      </trkpt>
      <trkpt lat="44.39873" lon="5.39318">
        <ele>928.3</ele>
        <time>2019-06-01T13:20:39Z</time>
      </trkpt>
      <trkpt lat="44.39864" lon="5.3932">
        <ele>928.3</ele>
        <time>2019-06-01T13:20:47Z</time>
      </trkpt>
      <trkpt lat="44.39855" lon="5.39323">
        <ele>928.2</ele>
        <time>2019-06-01T13:20:54Z</time>
      </trkpt>
      <trkpt lat="44.39845" lon="5.39327">
        <ele>928.2</ele>
        <time>2019-06-01T13:21:01Z</time>
      </trkpt>
      <trkpt lat="44.39836" lon="5.39331">
        <ele>928.1</ele>
        <time>2019-06-01T13:21:08Z</time>
      </trkpt>
      <trkpt lat="44.39826" lon="5.39334">
        <ele>928.1</ele>
        <time>2019-06-01T13:21:16Z</time>
      </trkpt>
      <trkpt lat="44.39816" lon="5.39337">
        <ele>928.3</ele>
        <time>2019-06-01T13:21:24Z</time>
      </trkpt>
      <trkpt lat="44.39808" lon="5.39343">
        <ele>928.4</ele>
        <time>2019-06-01T13:21:30Z</time>
      </trkpt>
      <trkpt lat="44.39798" lon="5.39347">
        <ele>928.9</ele>
        <time>2019-06-01T13:21:37Z</time>
      </trkpt>
      <trkpt lat="44.39789" lon="5.39351">
        <ele>929.2</ele>
        <time>2019-06-01T13:21:43Z</time>
      </trkpt>
      <trkpt lat="44.3978" lon="5.39357">
        <ele>929.4</ele>
        <time>2019-06-01T13:21:50Z</time>
      </trkpt>
      <trkpt lat="44.3977" lon="5.39358">
        <ele>929.2</ele>
        <time>2019-06-01T13:21:57Z</time>
      </trkpt>
      <trkpt lat="44.3976" lon="5.39357">
        <ele>929</ele>
        <time>2019-06-01T13:22:04Z</time>
      </trkpt>
      <trkpt lat="44.39751" lon="5.39356">
        <ele>928.9</ele>
        <time>2019-06-01T13:22:10Z</time>
      </trkpt>
      <trkpt lat="44.39741" lon="5.39359">
        <ele>929.1</ele>
        <time>2019-06-01T13:22:18Z</time>
      </trkpt>
      <trkpt lat="44.39732" lon="5.39361">
        <ele>929.6</ele>
        <time>2019-06-01T13:22:26Z</time>
      </trkpt>
      <trkpt lat="44.39723" lon="5.39365">
        <ele>930.3</ele>
        <time>2019-06-01T13:22:34Z</time>
      </trkpt>
      <trkpt lat="44.39713" lon="5.39367">
        <ele>931.4</ele>
        <time>2019-06-01T13:22:42Z</time>
      </trkpt>
      <trkpt lat="44.39703" lon="5.39366">
        <ele>932.5</ele>
        <time>2019-06-01T13:22:49Z</time>
      </trkpt>
      <trkpt lat="44.39694" lon="5.39364">
        <ele>933.3</ele>
        <time>2019-06-01T13:22:57Z</time>
      </trkpt>
      <trkpt lat="44.39684" lon="5.39368">
        <ele>934.2</ele>
        <time>2019-06-01T13:23:05Z</time>
      </trkpt>
      <trkpt lat="44.39676" lon="5.39371">
        <ele>935.1</ele>
        <time>2019-06-01T13:23:13Z</time>
      </trkpt>
      <trkpt lat="44.39665" lon="5.39373">
        <ele>935.8</ele>
        <time>2019-06-01T13:23:20Z</time>
      </trkpt>
      <trkpt lat="44.39655" lon="5.39375">
        <ele>936.5</ele>
        <time>2019-06-01T13:23:28Z</time>
      </trkpt>
      <trkpt lat="44.39645" lon="5.39375">
        <ele>937.2</ele>
        <time>2019-06-01T13:23:36Z</time>
      </trkpt>
      <trkpt lat="44.39635" lon="5.39374">
        <ele>937.6</ele>
        <time>2019-06-01T13:23:43Z</time>
      </trkpt>
      <trkpt lat="44.39627" lon="5.39379">
        <ele>938.8</ele>
        <time>2019-06-01T13:23:51Z</time>
      </trkpt>
      <trkpt lat="44.39618" lon="5.39384">
        <ele>940.3</ele>
        <time>2019-06-01T13:23:59Z</time>
      </trkpt>
      <trkpt lat="44.39609" lon="5.39389">
        <ele>941.8</ele>
        <time>2019-06-01T13:24:07Z</time>
      </trkpt>
      <trkpt lat="44.396" lon="5.39392">
        <ele>943.1</ele>
        <time>2019-06-01T13:24:15Z</time>
      </trkpt>
      <trkpt lat="44.39591" lon="5.39395">
        <ele>944.5</ele>
        <time>2019-06-01T13:24:23Z</time>
      </trkpt>
      <trkpt lat="44.39581" lon="5.39398">
        <ele>946.1</ele>
        <time>2019-06-01T13:24:31Z</time>
      </trkpt>
      <trkpt lat="44.39572" lon="5.39404">
        <ele>947.6</ele>
        <time>2019-06-01T13:24:39Z</time>
      </trkpt>
      <trkpt lat="44.39565" lon="5.39414">
        <ele>949.3</ele>
        <time>2019-06-01T13:24:48Z</time>
      </trkpt>
      <trkpt lat="44.39563" lon="5.39426">
        <ele>950.5</ele>
        <time>2019-06-01T13:24:56Z</time>
      </trkpt>
      <trkpt lat="44.39562" lon="5.39439">
        <ele>951.3</ele>
        <time>2019-06-01T13:25:05Z</time>
      </trkpt>
      <trkpt lat="44.3956" lon="5.39453">
        <ele>951.8</ele>
        <time>2019-06-01T13:25:13Z</time>
      </trkpt>
      <trkpt lat="44.39559" lon="5.39467">
        <ele>951.7</ele>
        <time>2019-06-01T13:25:20Z</time>
      </trkpt>
      <trkpt lat="44.39559" lon="5.3948">
        <ele>951.2</ele>
        <time>2019-06-01T13:25:28Z</time>
      </trkpt>
      <trkpt lat="44.39561" lon="5.39493">
        <ele>950.8</ele>
        <time>2019-06-01T13:25:37Z</time>
      </trkpt>
      <trkpt lat="44.39556" lon="5.39505">
        <ele>950.2</ele>
        <time>2019-06-01T13:25:44Z</time>
      </trkpt>
      <trkpt lat="44.39551" lon="5.39516">
        <ele>949.6</ele>
        <time>2019-06-01T13:25:51Z</time>
      </trkpt>
      <trkpt lat="44.39548" lon="5.3953">
        <ele>949.3</ele>
        <time>2019-06-01T13:25:59Z</time>
      </trkpt>
      <trkpt lat="44.39543" lon="5.39541">
        <ele>949.1</ele>
        <time>2019-06-01T13:26:06Z</time>
      </trkpt>
      <trkpt lat="44.39538" lon="5.39553">
        <ele>948.9</ele>
        <time>2019-06-01T13:26:14Z</time>
      </trkpt>
      <trkpt lat="44.39535" lon="5.39565">
        <ele>948.9</ele>
        <time>2019-06-01T13:26:22Z</time>
      </trkpt>
      <trkpt lat="44.39536" lon="5.39579">
        <ele>948.9</ele>
        <time>2019-06-01T13:26:30Z</time>
      </trkpt>
      <trkpt lat="44.39537" lon="5.39592">
        <ele>948.7</ele>
        <time>2019-06-01T13:26:39Z</time>
      </trkpt>
      <trkpt lat="44.39538" lon="5.39605">
        <ele>948</ele>
        <time>2019-06-01T13:26:47Z</time>
      </trkpt>
      <trkpt lat="44.39533" lon="5.39617">
        <ele>947.5</ele>
        <time>2019-06-01T13:26:54Z</time>
      </trkpt>
      <trkpt lat="44.39531" lon="5.3963">
        <ele>947.1</ele>
        <time>2019-06-01T13:27:01Z</time>
      </trkpt>
      <trkpt lat="44.3953" lon="5.39642">
        <ele>946.9</ele>
        <time>2019-06-01T13:27:08Z</time>
      </trkpt>
      <trkpt lat="44.39529" lon="5.39655">
        <ele>946.7</ele>
        <time>2019-06-01T13:27:16Z</time>
      </trkpt>
      <trkpt lat="44.39528" lon="5.39669">
        <ele>946.3</ele>
        <time>2019-06-01T13:27:24Z</time>
      </trkpt>
      <trkpt lat="44.39526" lon="5.39683">
        <ele>945.8</ele>
        <time>2019-06-01T13:27:31Z</time>
      </trkpt>
      <trkpt lat="44.39526" lon="5.39696">
        <ele>945.4</ele>
        <time>2019-06-01T13:27:38Z</time>
      </trkpt>
      <trkpt lat="44.39528" lon="5.3971">
        <ele>945.3</ele>
        <time>2019-06-01T13:27:46Z</time>
      </trkpt>
      <trkpt lat="44.39521" lon="5.39722">
        <ele>945.3</ele>
        <time>2019-06-01T13:27:53Z</time>
      </trkpt>
      <trkpt lat="44.39515" lon="5.39731">
        <ele>945.4</ele>
        <time>2019-06-01T13:27:59Z</time>
      </trkpt>
      <trkpt lat="44.39509" lon="5.39743">
        <ele>945.8</ele>
        <time>2019-06-01T13:28:06Z</time>
      </trkpt>
      <trkpt lat="44.39504" lon="5.39754">
        <ele>946.8</ele>
        <time>2019-06-01T13:28:13Z</time>
      </trkpt>
      <trkpt lat="44.39497" lon="5.39763">
        <ele>947.4</ele>
        <time>2019-06-01T13:28:19Z</time>
      </trkpt>
      <trkpt lat="44.3949" lon="5.39774">
        <ele>948.1</ele>
        <time>2019-06-01T13:28:26Z</time>
      </trkpt>
      <trkpt lat="44.39485" lon="5.39785">
        <ele>948.6</ele>
        <time>2019-06-01T13:28:33Z</time>
      </trkpt>
      <trkpt lat="44.39479" lon="5.39797">
        <ele>948.8</ele>
        <time>2019-06-01T13:28:40Z</time>
      </trkpt>
      <trkpt lat="44.39475" lon="5.39809">
        <ele>948.8</ele>
        <time>2019-06-01T13:28:48Z</time>
      </trkpt>
      <trkpt lat="44.39468" lon="5.39818">
        <ele>948.3</ele>
        <time>2019-06-01T13:28:55Z</time>
      </trkpt>
      <trkpt lat="44.39462" lon="5.39829">
        <ele>947.9</ele>
        <time>2019-06-01T13:29:02Z</time>
      </trkpt>
      <trkpt lat="44.39456" lon="5.39839">
        <ele>947.4</ele>
        <time>2019-06-01T13:29:09Z</time>
      </trkpt>
      <trkpt lat="44.39452" lon="5.39851">
        <ele>947</ele>
        <time>2019-06-01T13:29:16Z</time>
      </trkpt>
      <trkpt lat="44.39448" lon="5.39863">
        <ele>946.5</ele>
        <time>2019-06-01T13:29:25Z</time>
      </trkpt>
      <trkpt lat="44.39441" lon="5.39871">
        <ele>945.4</ele>
        <time>2019-06-01T13:29:33Z</time>
      </trkpt>
      <trkpt lat="44.39434" lon="5.39881">
        <ele>944.2</ele>
        <time>2019-06-01T13:29:41Z</time>
      </trkpt>
      <trkpt lat="44.39427" lon="5.39891">
        <ele>942.7</ele>
        <time>2019-06-01T13:29:49Z</time>
      </trkpt>
      <trkpt lat="44.39421" lon="5.39902">
        <ele>941.2</ele>
        <time>2019-06-01T13:29:56Z</time>
      </trkpt>
      <trkpt lat="44.39417" lon="5.39914">
        <ele>939.8</ele>
        <time>2019-06-01T13:30:04Z</time>
      </trkpt>
      <trkpt lat="44.39414" lon="5.39926">
        <ele>938</ele>
        <time>2019-06-01T13:30:14Z</time>
      </trkpt>
      <trkpt lat="44.3941" lon="5.39938">
        <ele>936.6</ele>
        <time>2019-06-01T13:30:23Z</time>
      </trkpt>
      <trkpt lat="44.39406" lon="5.39951">
        <ele>935.5</ele>
        <time>2019-06-01T13:30:31Z</time>
      </trkpt>
      <trkpt lat="44.39403" lon="5.39964">
        <ele>934.4</ele>
        <time>2019-06-01T13:30:38Z</time>
      </trkpt>
      <trkpt lat="44.39402" lon="5.39978">
        <ele>933.1</ele>
        <time>2019-06-01T13:30:45Z</time>
      </trkpt>
      <trkpt lat="44.39401" lon="5.39992">
        <ele>932.4</ele>
        <time>2019-06-01T13:30:52Z</time>
      </trkpt>
      <trkpt lat="44.39401" lon="5.40006">
        <ele>931.7</ele>
        <time>2019-06-01T13:30:59Z</time>
      </trkpt>
      <trkpt lat="44.39405" lon="5.40017">
        <ele>931</ele>
        <time>2019-06-01T13:31:08Z</time>
      </trkpt>
      <trkpt lat="44.394" lon="5.40029">
        <ele>930.2</ele>
        <time>2019-06-01T13:31:16Z</time>
      </trkpt>
      <trkpt lat="44.39396" lon="5.4004">
        <ele>929.7</ele>
        <time>2019-06-01T13:31:22Z</time>
      </trkpt>
      <trkpt lat="44.39393" lon="5.40053">
        <ele>929.4</ele>
        <time>2019-06-01T13:31:29Z</time>
      </trkpt>
      <trkpt lat="44.39386" lon="5.40061">
        <ele>929.3</ele>
        <time>2019-06-01T13:31:35Z</time>
      </trkpt>
      <trkpt lat="44.3938" lon="5.40071">
        <ele>929.4</ele>
        <time>2019-06-01T13:31:41Z</time>
      </trkpt>
      <trkpt lat="44.39377" lon="5.40084">
        <ele>929.4</ele>
        <time>2019-06-01T13:31:49Z</time>
      </trkpt>
      <trkpt lat="44.39373" lon="5.40097">
        <ele>929.3</ele>
        <time>2019-06-01T13:31:57Z</time>
      </trkpt>
      <trkpt lat="44.39369" lon="5.4011">
        <ele>929.2</ele>
        <time>2019-06-01T13:32:04Z</time>
      </trkpt>
      <trkpt lat="44.39365" lon="5.40122">
        <ele>929.2</ele>
        <time>2019-06-01T13:32:10Z</time>
      </trkpt>
      <trkpt lat="44.39363" lon="5.40136">
        <ele>929.5</ele>
        <time>2019-06-01T13:32:18Z</time>
      </trkpt>
      <trkpt lat="44.39368" lon="5.40149">
        <ele>929.6</ele>
        <time>2019-06-01T13:32:28Z</time>
      </trkpt>
      <trkpt lat="44.39371" lon="5.40162">
        <ele>929.5</ele>
        <time>2019-06-01T13:32:35Z</time>
      </trkpt>
      <trkpt lat="44.39373" lon="5.40175">
        <ele>929.4</ele>
        <time>2019-06-01T13:32:41Z</time>
      </trkpt>
      <trkpt lat="44.39375" lon="5.40188">
        <ele>928.9</ele>
        <time>2019-06-01T13:32:47Z</time>
      </trkpt>
      <trkpt lat="44.39377" lon="5.402">
        <ele>928.1</ele>
        <time>2019-06-01T13:32:53Z</time>
      </trkpt>
      <trkpt lat="44.3938" lon="5.40212">
        <ele>927.1</ele>
        <time>2019-06-01T13:32:59Z</time>
      </trkpt>
      <trkpt lat="44.39384" lon="5.40224">
        <ele>926</ele>
        <time>2019-06-01T13:33:06Z</time>
      </trkpt>
      <trkpt lat="44.39388" lon="5.40237">
        <ele>925.1</ele>
        <time>2019-06-01T13:33:13Z</time>
      </trkpt>
      <trkpt lat="44.39391" lon="5.4025">
        <ele>924.5</ele>
        <time>2019-06-01T13:33:21Z</time>
      </trkpt>
      <trkpt lat="44.39392" lon="5.40263">
        <ele>924.1</ele>
        <time>2019-06-01T13:33:29Z</time>
      </trkpt>
      <trkpt lat="44.39392" lon="5.40276">
        <ele>924</ele>
        <time>2019-06-01T13:33:37Z</time>
      </trkpt>
      <trkpt lat="44.39396" lon="5.40289">
        <ele>925.1</ele>
        <time>2019-06-01T13:33:47Z</time>
      </trkpt>
      <trkpt lat="44.39401" lon="5.40301">
        <ele>926.1</ele>
        <time>2019-06-01T13:33:55Z</time>
      </trkpt>
      <trkpt lat="44.39404" lon="5.40315">
        <ele>926.9</ele>
        <time>2019-06-01T13:34:02Z</time>
      </trkpt>
      <trkpt lat="44.39403" lon="5.40329">
        <ele>927.4</ele>
        <time>2019-06-01T13:34:09Z</time>
      </trkpt>
      <trkpt lat="44.39403" lon="5.40342">
        <ele>927.5</ele>
        <time>2019-06-01T13:34:16Z</time>
      </trkpt>
      <trkpt lat="44.39406" lon="5.40354">
        <ele>927.4</ele>
        <time>2019-06-01T13:34:23Z</time>
      </trkpt>
      <trkpt lat="44.39408" lon="5.40367">
        <ele>927</ele>
        <time>2019-06-01T13:34:39Z</time>
      </trkpt>
      <trkpt lat="44.39409" lon="5.40381">
        <ele>926.6</ele>
        <time>2019-06-01T13:35:03Z</time>
      </trkpt>
      <trkpt lat="44.39414" lon="5.40393">
        <ele>926.3</ele>
        <time>2019-06-01T13:35:10Z</time>
      </trkpt>
      <trkpt lat="44.39419" lon="5.40403">
        <ele>926</ele>
        <time>2019-06-01T13:35:17Z</time>
      </trkpt>
      <trkpt lat="44.39423" lon="5.40414">
        <ele>925.3</ele>
        <time>2019-06-01T13:35:54Z</time>
      </trkpt>
      <trkpt lat="44.39433" lon="5.40412">
        <ele>925.4</ele>
        <time>2019-06-01T13:36:58Z</time>
      </trkpt>
      <trkpt lat="44.3944" lon="5.40421">
        <ele>925.3</ele>
        <time>2019-06-01T13:37:45Z</time>
      </trkpt>
      <trkpt lat="44.39445" lon="5.40432">
        <ele>925.3</ele>
        <time>2019-06-01T13:37:53Z</time>
      </trkpt>
      <trkpt lat="44.39448" lon="5.40445">
        <ele>925.3</ele>
        <time>2019-06-01T13:38:01Z</time>
      </trkpt>
      <trkpt lat="44.39451" lon="5.40457">
        <ele>925.5</ele>
        <time>2019-06-01T13:38:10Z</time>
      </trkpt>
      <trkpt lat="44.39459" lon="5.40463">
        <ele>923.3</ele>
        <time>2019-06-01T13:39:30Z</time>
      </trkpt>
      <trkpt lat="44.39458" lon="5.40475">
        <ele>922.5</ele>
        <time>2019-06-01T13:39:44Z</time>
      </trkpt>
      <trkpt lat="44.3945" lon="5.40484">
        <ele>922.4</ele>
        <time>2019-06-01T13:39:55Z</time>
      </trkpt>
      <trkpt lat="44.39444" lon="5.40494">
        <ele>922.3</ele>
        <time>2019-06-01T13:40:04Z</time>
      </trkpt>
      <trkpt lat="44.3944" lon="5.40506">
        <ele>922.4</ele>
        <time>2019-06-01T13:40:12Z</time>
      </trkpt>
      <trkpt lat="44.39435" lon="5.40518">
        <ele>922.4</ele>
        <time>2019-06-01T13:40:20Z</time>
      </trkpt>
      <trkpt lat="44.39432" lon="5.4053">
        <ele>922.2</ele>
        <time>2019-06-01T13:40:28Z</time>
      </trkpt>
      <trkpt lat="44.39424" lon="5.40536">
        <ele>921.4</ele>
        <time>2019-06-01T13:40:36Z</time>
      </trkpt>
      <trkpt lat="44.39414" lon="5.40536">
        <ele>920.7</ele>
        <time>2019-06-01T13:40:44Z</time>
      </trkpt>
      <trkpt lat="44.39405" lon="5.40535">
        <ele>919.9</ele>
        <time>2019-06-01T13:40:52Z</time>
      </trkpt>
      <trkpt lat="44.39395" lon="5.40536">
        <ele>919</ele>
        <time>2019-06-01T13:41:00Z</time>
      </trkpt>
      <trkpt lat="44.39384" lon="5.4054">
        <ele>917</ele>
        <time>2019-06-01T13:41:09Z</time>
      </trkpt>
      <trkpt lat="44.39375" lon="5.40542">
        <ele>917</ele>
        <time>2019-06-01T13:41:19Z</time>
      </trkpt>
      <trkpt lat="44.39366" lon="5.4054">
        <ele>916.6</ele>
        <time>2019-06-01T13:41:26Z</time>
      </trkpt>
      <trkpt lat="44.39357" lon="5.40539">
        <ele>915.6</ele>
        <time>2019-06-01T13:41:34Z</time>
      </trkpt>
      <trkpt lat="44.39348" lon="5.40546">
        <ele>913</ele>
        <time>2019-06-01T13:41:52Z</time>
      </trkpt>
      <trkpt lat="44.39339" lon="5.40558">
        <ele>911</ele>
        <time>2019-06-01T13:42:04Z</time>
      </trkpt>
      <trkpt lat="44.39329" lon="5.40563">
        <ele>910</ele>
        <time>2019-06-01T13:42:12Z</time>
      </trkpt>
      <trkpt lat="44.39321" lon="5.40571">
        <ele>909.1</ele>
        <time>2019-06-01T13:42:20Z</time>
      </trkpt>
      <trkpt lat="44.39315" lon="5.40581">
        <ele>907.7</ele>
        <time>2019-06-01T13:42:32Z</time>
      </trkpt>
      <trkpt lat="44.39307" lon="5.40587">
        <ele>907.1</ele>
        <time>2019-06-01T13:42:42Z</time>
      </trkpt>
      <trkpt lat="44.393" lon="5.40596">
        <ele>906.9</ele>
        <time>2019-06-01T13:42:52Z</time>
      </trkpt>
      <trkpt lat="44.39295" lon="5.40607">
        <ele>907.3</ele>
        <time>2019-06-01T13:43:11Z</time>
      </trkpt>
      <trkpt lat="44.3929" lon="5.40619">
        <ele>907.4</ele>
        <time>2019-06-01T13:43:21Z</time>
      </trkpt>
      <trkpt lat="44.39281" lon="5.40621">
        <ele>908.2</ele>
        <time>2019-06-01T13:44:01Z</time>
      </trkpt>
      <trkpt lat="44.39272" lon="5.40624">
        <ele>908</ele>
        <time>2019-06-01T13:44:43Z</time>
      </trkpt>
      <trkpt lat="44.39262" lon="5.40627">
        <ele>907.8</ele>
        <time>2019-06-01T13:45:06Z</time>
      </trkpt>
      <trkpt lat="44.39253" lon="5.4063">
        <ele>907.9</ele>
        <time>2019-06-01T13:45:17Z</time>
      </trkpt>
      <trkpt lat="44.39244" lon="5.40632">
        <ele>907.9</ele>
        <time>2019-06-01T13:45:26Z</time>
      </trkpt>
      <trkpt lat="44.39234" lon="5.40634">
        <ele>907.8</ele>
        <time>2019-06-01T13:45:36Z</time>
      </trkpt>
      <trkpt lat="44.39225" lon="5.40639">
        <ele>907.1</ele>
        <time>2019-06-01T13:46:08Z</time>
      </trkpt>
      <trkpt lat="44.39216" lon="5.40644">
        <ele>906.9</ele>
        <time>2019-06-01T13:46:17Z</time>
      </trkpt>
      <trkpt lat="44.39207" lon="5.40651">
        <ele>907</ele>
        <time>2019-06-01T13:46:28Z</time>
      </trkpt>
      <trkpt lat="44.39197" lon="5.4065">
        <ele>907.1</ele>
        <time>2019-06-01T13:46:37Z</time>
      </trkpt>
      <trkpt lat="44.39188" lon="5.40646">
        <ele>907.1</ele>
        <time>2019-06-01T13:47:03Z</time>
      </trkpt>
      <trkpt lat="44.39179" lon="5.40648">
        <ele>907</ele>
        <time>2019-06-01T13:47:14Z</time>
      </trkpt>
      <trkpt lat="44.3917" lon="5.40653">
        <ele>907.2</ele>
        <time>2019-06-01T13:47:23Z</time>
      </trkpt>
      <trkpt lat="44.39161" lon="5.40659">
        <ele>907.6</ele>
        <time>2019-06-01T13:47:32Z</time>
      </trkpt>
      <trkpt lat="44.39153" lon="5.40664">
        <ele>908.2</ele>
        <time>2019-06-01T13:47:40Z</time>
      </trkpt>
      <trkpt lat="44.39144" lon="5.4067">
        <ele>908.5</ele>
        <time>2019-06-01T13:47:49Z</time>
      </trkpt>
      <trkpt lat="44.39135" lon="5.40675">
        <ele>909.4</ele>
        <time>2019-06-01T13:47:58Z</time>
      </trkpt>
      <trkpt lat="44.39126" lon="5.4068">
        <ele>910.4</ele>
        <time>2019-06-01T13:48:07Z</time>
      </trkpt>
      <trkpt lat="44.39118" lon="5.40687">
        <ele>911.1</ele>
        <time>2019-06-01T13:48:16Z</time>
      </trkpt>
      <trkpt lat="44.3911" lon="5.40696">
        <ele>912.4</ele>
        <time>2019-06-01T13:48:25Z</time>
      </trkpt>
      <trkpt lat="44.39107" lon="5.40709">
        <ele>913.2</ele>
        <time>2019-06-01T13:48:33Z</time>
      </trkpt>
      <trkpt lat="44.39106" lon="5.40722">
        <ele>913.5</ele>
        <time>2019-06-01T13:48:40Z</time>
      </trkpt>
      <trkpt lat="44.39105" lon="5.40736">
        <ele>913</ele>
        <time>2019-06-01T13:48:48Z</time>
      </trkpt>
      <trkpt lat="44.39103" lon="5.4075">
        <ele>912.1</ele>
        <time>2019-06-01T13:48:57Z</time>
      </trkpt>
      <trkpt lat="44.39102" lon="5.40762">
        <ele>910.8</ele>
        <time>2019-06-01T13:49:05Z</time>
      </trkpt>
      <trkpt lat="44.391" lon="5.40775">
        <ele>909.4</ele>
        <time>2019-06-01T13:49:13Z</time>
      </trkpt>
      <trkpt lat="44.39094" lon="5.40785">
        <ele>907.3</ele>
        <time>2019-06-01T13:49:22Z</time>
      </trkpt>
      <trkpt lat="44.39087" lon="5.40795">
        <ele>905.5</ele>
        <time>2019-06-01T13:49:30Z</time>
      </trkpt>
      <trkpt lat="44.39081" lon="5.40806">
        <ele>902.9</ele>
        <time>2019-06-01T13:49:39Z</time>
      </trkpt>
      <trkpt lat="44.39074" lon="5.40816">
        <ele>900</ele>
        <time>2019-06-01T13:49:46Z</time>
      </trkpt>
      <trkpt lat="44.39069" lon="5.40827">
        <ele>898.7</ele>
        <time>2019-06-01T13:49:54Z</time>
      </trkpt>
      <trkpt lat="44.39063" lon="5.40837">
        <ele>896.3</ele>
        <time>2019-06-01T13:50:02Z</time>
      </trkpt>
      <trkpt lat="44.39056" lon="5.40848">
        <ele>894.3</ele>
        <time>2019-06-01T13:50:10Z</time>
      </trkpt>
      <trkpt lat="44.39049" lon="5.40858">
        <ele>892.2</ele>
        <time>2019-06-01T13:50:18Z</time>
      </trkpt>
      <trkpt lat="44.39043" lon="5.40869">
        <ele>890.5</ele>
        <time>2019-06-01T13:50:26Z</time>
      </trkpt>
      <trkpt lat="44.39038" lon="5.4088">
        <ele>889.4</ele>
        <time>2019-06-01T13:50:33Z</time>
      </trkpt>
      <trkpt lat="44.39033" lon="5.40891">
        <ele>887.9</ele>
        <time>2019-06-01T13:50:41Z</time>
      </trkpt>
      <trkpt lat="44.39034" lon="5.40903">
        <ele>883.4</ele>
        <time>2019-06-01T13:51:32Z</time>
      </trkpt>
      <trkpt lat="44.39029" lon="5.40914">
        <ele>883.2</ele>
        <time>2019-06-01T13:51:40Z</time>
      </trkpt>
      <trkpt lat="44.39023" lon="5.40925">
        <ele>882.6</ele>
        <time>2019-06-01T13:51:48Z</time>
      </trkpt>
      <trkpt lat="44.39018" lon="5.40937">
        <ele>881.5</ele>
        <time>2019-06-01T13:51:57Z</time>
      </trkpt>
      <trkpt lat="44.39013" lon="5.40947">
        <ele>880.1</ele>
        <time>2019-06-01T13:52:06Z</time>
      </trkpt>
      <trkpt lat="44.39008" lon="5.40959">
        <ele>878.4</ele>
        <time>2019-06-01T13:52:15Z</time>
      </trkpt>
      <trkpt lat="44.39004" lon="5.40971">
        <ele>875.7</ele>
        <time>2019-06-01T13:52:38Z</time>
      </trkpt>
      <trkpt lat="44.39" lon="5.40983">
        <ele>875</ele>
        <time>2019-06-01T13:52:46Z</time>
      </trkpt>
      <trkpt lat="44.38996" lon="5.40994">
        <ele>874</ele>
        <time>2019-06-01T13:52:53Z</time>
      </trkpt>
      <trkpt lat="44.38992" lon="5.41007">
        <ele>872.9</ele>
        <time>2019-06-01T13:53:01Z</time>
      </trkpt>
      <trkpt lat="44.38989" lon="5.41019">
        <ele>871.5</ele>
        <time>2019-06-01T13:53:09Z</time>
      </trkpt>
      <trkpt lat="44.38985" lon="5.4103">
        <ele>869.8</ele>
        <time>2019-06-01T13:53:17Z</time>
      </trkpt>
      <trkpt lat="44.38984" lon="5.41043">
        <ele>868.1</ele>
        <time>2019-06-01T13:53:25Z</time>
      </trkpt>
      <trkpt lat="44.38985" lon="5.41057">
        <ele>866.3</ele>
        <time>2019-06-01T13:53:33Z</time>
      </trkpt>
      <trkpt lat="44.38987" lon="5.41071">
        <ele>864.6</ele>
        <time>2019-06-01T13:53:41Z</time>
      </trkpt>
      <trkpt lat="44.38989" lon="5.41085">
        <ele>863</ele>
        <time>2019-06-01T13:53:49Z</time>
      </trkpt>
      <trkpt lat="44.3899" lon="5.41098">
        <ele>861.7</ele>
        <time>2019-06-01T13:53:57Z</time>
      </trkpt>
      <trkpt lat="44.38995" lon="5.41109">
        <ele>859.9</ele>
        <time>2019-06-01T13:54:06Z</time>
      </trkpt>
      <trkpt lat="44.38998" lon="5.41122">
        <ele>858.4</ele>
        <time>2019-06-01T13:54:14Z</time>
      </trkpt>
      <trkpt lat="44.39002" lon="5.41134">
        <ele>856.9</ele>
        <time>2019-06-01T13:54:22Z</time>
      </trkpt>
      <trkpt lat="44.39005" lon="5.41147">
        <ele>855.5</ele>
        <time>2019-06-01T13:54:31Z</time>
      </trkpt>
      <trkpt lat="44.39007" lon="5.4116">
        <ele>854.5</ele>
        <time>2019-06-01T13:54:39Z</time>
      </trkpt>
      <trkpt lat="44.39006" lon="5.41173">
        <ele>853.3</ele>
        <time>2019-06-01T13:54:47Z</time>
      </trkpt>
      <trkpt lat="44.39001" lon="5.41185">
        <ele>852.3</ele>
        <time>2019-06-01T13:54:55Z</time>
      </trkpt>
      <trkpt lat="44.38993" lon="5.41195">
        <ele>851.2</ele>
        <time>2019-06-01T13:55:03Z</time>
      </trkpt>
      <trkpt lat="44.38991" lon="5.41208">
        <ele>849.6</ele>
        <time>2019-06-01T13:55:11Z</time>
      </trkpt>
      <trkpt lat="44.38994" lon="5.4122">
        <ele>848.2</ele>
        <time>2019-06-01T13:55:20Z</time>
      </trkpt>
      <trkpt lat="44.38994" lon="5.41233">
        <ele>847.1</ele>
        <time>2019-06-01T13:55:28Z</time>
      </trkpt>
      <trkpt lat="44.38991" lon="5.41245">
        <ele>845.6</ele>
        <time>2019-06-01T13:55:37Z</time>
      </trkpt>
      <trkpt lat="44.38989" lon="5.41258">
        <ele>844</ele>
        <time>2019-06-01T13:55:46Z</time>
      </trkpt>
      <trkpt lat="44.38988" lon="5.41272">
        <ele>841.9</ele>
        <time>2019-06-01T13:55:56Z</time>
      </trkpt>
      <trkpt lat="44.38981" lon="5.4128">
        <ele>839.6</ele>
        <time>2019-06-01T13:56:05Z</time>
      </trkpt>
      <trkpt lat="44.38973" lon="5.41288">
        <ele>834.3</ele>
        <time>2019-06-01T13:57:17Z</time>
      </trkpt>
      <trkpt lat="44.38964" lon="5.41293">
        <ele>833.6</ele>
        <time>2019-06-01T13:57:25Z</time>
      </trkpt>
      <trkpt lat="44.38956" lon="5.413">
        <ele>832.2</ele>
        <time>2019-06-01T13:57:33Z</time>
      </trkpt>
      <trkpt lat="44.38946" lon="5.41302">
        <ele>830.6</ele>
        <time>2019-06-01T13:57:41Z</time>
      </trkpt>
      <trkpt lat="44.38937" lon="5.413">
        <ele>828.9</ele>
        <time>2019-06-01T13:57:48Z</time>
      </trkpt>
      <trkpt lat="44.38928" lon="5.41297">
        <ele>827.6</ele>
        <time>2019-06-01T13:57:56Z</time>
      </trkpt>
      <trkpt lat="44.38918" lon="5.41296">
        <ele>826</ele>
        <time>2019-06-01T13:58:04Z</time>
      </trkpt>
      <trkpt lat="44.38908" lon="5.41296">
        <ele>824.6</ele>
        <time>2019-06-01T13:58:12Z</time>
      </trkpt>
      <trkpt lat="44.38899" lon="5.41297">
        <ele>822.9</ele>
        <time>2019-06-01T13:58:21Z</time>
      </trkpt>
      <trkpt lat="44.38889" lon="5.41302">
        <ele>821.2</ele>
        <time>2019-06-01T13:58:29Z</time>
      </trkpt>
      <trkpt lat="44.3888" lon="5.41306">
        <ele>819.3</ele>
        <time>2019-06-01T13:58:37Z</time>
      </trkpt>
      <trkpt lat="44.38871" lon="5.4131">
        <ele>817.8</ele>
        <time>2019-06-01T13:58:44Z</time>
      </trkpt>
      <trkpt lat="44.38862" lon="5.41317">
        <ele>816</ele>
        <time>2019-06-01T13:58:52Z</time>
      </trkpt>
      <trkpt lat="44.38855" lon="5.41327">
        <ele>813.8</ele>
        <time>2019-06-01T13:59:01Z</time>
      </trkpt>
      <trkpt lat="44.38849" lon="5.41336">
        <ele>810.5</ele>
        <time>2019-06-01T13:59:15Z</time>
      </trkpt>
      <trkpt lat="44.38844" lon="5.41348">
        <ele>808.8</ele>
        <time>2019-06-01T13:59:24Z</time>
      </trkpt>
      <trkpt lat="44.38841" lon="5.4136">
        <ele>806.8</ele>
        <time>2019-06-01T13:59:32Z</time>
      </trkpt>
      <trkpt lat="44.38839" lon="5.41373">
        <ele>804.9</ele>
        <time>2019-06-01T13:59:40Z</time>
      </trkpt>
      <trkpt lat="44.38832" lon="5.41383">
        <ele>802.6</ele>
        <time>2019-06-01T13:59:49Z</time>
      </trkpt>
      <trkpt lat="44.38823" lon="5.41387">
        <ele>800.2</ele>
        <time>2019-06-01T13:59:57Z</time>
      </trkpt>
      <trkpt lat="44.38816" lon="5.41397">
        <ele>798</ele>
        <time>2019-06-01T14:00:05Z</time>
      </trkpt>
      <trkpt lat="44.3881" lon="5.41407">
        <ele>796.3</ele>
        <time>2019-06-01T14:00:12Z</time>
      </trkpt>
      <trkpt lat="44.38802" lon="5.41415">
        <ele>794.7</ele>
        <time>2019-06-01T14:00:19Z</time>
      </trkpt>
      <trkpt lat="44.38794" lon="5.41422">
        <ele>792.5</ele>
        <time>2019-06-01T14:00:27Z</time>
      </trkpt>
      <trkpt lat="44.38785" lon="5.41428">
        <ele>791.3</ele>
        <time>2019-06-01T14:00:34Z</time>
      </trkpt>
      <trkpt lat="44.38777" lon="5.41436">
        <ele>789.7</ele>
        <time>2019-06-01T14:00:42Z</time>
      </trkpt>
      <trkpt lat="44.38767" lon="5.41447">
        <ele>787</ele>
        <time>2019-06-01T14:00:52Z</time>
      </trkpt>
      <trkpt lat="44.38759" lon="5.41455">
        <ele>785</ele>
        <time>2019-06-01T14:01:00Z</time>
      </trkpt>
      <trkpt lat="44.38754" lon="5.41466">
        <ele>784.1</ele>
        <time>2019-06-01T14:01:09Z</time>
      </trkpt>
      <trkpt lat="44.38747" lon="5.41475">
        <ele>782.4</ele>
        <time>2019-06-01T14:01:17Z</time>
      </trkpt>
      <trkpt lat="44.38741" lon="5.41485">
        <ele>780.5</ele>
        <time>2019-06-01T14:01:24Z</time>
      </trkpt>
      <trkpt lat="44.38733" lon="5.41492">
        <ele>778.8</ele>
        <time>2019-06-01T14:01:32Z</time>
      </trkpt>
      <trkpt lat="44.38723" lon="5.41496">
        <ele>776.7</ele>
        <time>2019-06-01T14:01:40Z</time>
      </trkpt>
      <trkpt lat="44.38714" lon="5.41501">
        <ele>774.9</ele>
        <time>2019-06-01T14:01:47Z</time>
      </trkpt>
      <trkpt lat="44.38705" lon="5.41504">
        <ele>772.7</ele>
        <time>2019-06-01T14:01:56Z</time>
      </trkpt>
      <trkpt lat="44.38695" lon="5.41505">
        <ele>770.5</ele>
        <time>2019-06-01T14:02:05Z</time>
      </trkpt>
      <trkpt lat="44.38686" lon="5.41508">
        <ele>768.7</ele>
        <time>2019-06-01T14:02:13Z</time>
      </trkpt>
      <trkpt lat="44.38676" lon="5.41511">
        <ele>766.9</ele>
        <time>2019-06-01T14:02:21Z</time>
      </trkpt>
      <trkpt lat="44.38667" lon="5.41516">
        <ele>764.6</ele>
        <time>2019-06-01T14:02:30Z</time>
      </trkpt>
      <trkpt lat="44.38659" lon="5.41523">
        <ele>761.5</ele>
        <time>2019-06-01T14:02:56Z</time>
      </trkpt>
      <trkpt lat="44.38649" lon="5.41524">
        <ele>761</ele>
        <time>2019-06-01T14:03:03Z</time>
      </trkpt>
      <trkpt lat="44.3864" lon="5.41526">
        <ele>760.3</ele>
        <time>2019-06-01T14:03:10Z</time>
      </trkpt>
      <trkpt lat="44.3863" lon="5.41526">
        <ele>759.5</ele>
        <time>2019-06-01T14:03:17Z</time>
      </trkpt>
      <trkpt lat="44.38621" lon="5.41529">
        <ele>758.7</ele>
        <time>2019-06-01T14:03:24Z</time>
      </trkpt>
      <trkpt lat="44.38612" lon="5.41534">
        <ele>757.6</ele>
        <time>2019-06-01T14:03:31Z</time>
      </trkpt>
      <trkpt lat="44.38605" lon="5.41542">
        <ele>756.3</ele>
        <time>2019-06-01T14:03:39Z</time>
      </trkpt>
      <trkpt lat="44.38597" lon="5.41551">
        <ele>754.9</ele>
        <time>2019-06-01T14:03:47Z</time>
      </trkpt>
      <trkpt lat="44.38592" lon="5.41562">
        <ele>753.2</ele>
        <time>2019-06-01T14:03:55Z</time>
      </trkpt>
      <trkpt lat="44.38587" lon="5.41574">
        <ele>750.9</ele>
        <time>2019-06-01T14:04:04Z</time>
      </trkpt>
      <trkpt lat="44.3858" lon="5.41581">
        <ele>749</ele>
        <time>2019-06-01T14:04:12Z</time>
      </trkpt>
      <trkpt lat="44.38572" lon="5.4159">
        <ele>746.9</ele>
        <time>2019-06-01T14:04:20Z</time>
      </trkpt>
      <trkpt lat="44.38564" lon="5.41596">
        <ele>745.3</ele>
        <time>2019-06-01T14:04:28Z</time>
      </trkpt>
      <trkpt lat="44.38558" lon="5.41607">
        <ele>743.4</ele>
        <time>2019-06-01T14:04:37Z</time>
      </trkpt>
      <trkpt lat="44.38556" lon="5.41619">
        <ele>741.3</ele>
        <time>2019-06-01T14:04:45Z</time>
      </trkpt>
      <trkpt lat="44.38555" lon="5.41633">
        <ele>739.4</ele>
        <time>2019-06-01T14:04:55Z</time>
      </trkpt>
      <trkpt lat="44.38551" lon="5.41646">
        <ele>737.3</ele>
        <time>2019-06-01T14:05:05Z</time>
      </trkpt>
      <trkpt lat="44.38544" lon="5.41654">
        <ele>735.5</ele>
        <time>2019-06-01T14:05:12Z</time>
      </trkpt>
      <trkpt lat="44.38535" lon="5.41659">
        <ele>733.8</ele>
        <time>2019-06-01T14:05:19Z</time>
      </trkpt>
      <trkpt lat="44.38526" lon="5.41663">
        <ele>732.4</ele>
        <time>2019-06-01T14:05:26Z</time>
      </trkpt>
      <trkpt lat="44.38516" lon="5.41666">
        <ele>730.8</ele>
        <time>2019-06-01T14:05:34Z</time>
      </trkpt>
      <trkpt lat="44.38507" lon="5.4167">
        <ele>729.6</ele>
        <time>2019-06-01T14:05:42Z</time>
      </trkpt>
      <trkpt lat="44.38499" lon="5.41677">
        <ele>727.8</ele>
        <time>2019-06-01T14:05:50Z</time>
      </trkpt>
      <trkpt lat="44.38491" lon="5.41684">
        <ele>726.3</ele>
        <time>2019-06-01T14:05:57Z</time>
      </trkpt>
      <trkpt lat="44.38482" lon="5.41692">
        <ele>724.7</ele>
        <time>2019-06-01T14:06:05Z</time>
      </trkpt>
      <trkpt lat="44.38474" lon="5.417">
        <ele>723.3</ele>
        <time>2019-06-01T14:06:13Z</time>
      </trkpt>
      <trkpt lat="44.38467" lon="5.41707">
        <ele>722.1</ele>
        <time>2019-06-01T14:06:20Z</time>
      </trkpt>
      <trkpt lat="44.38459" lon="5.41715">
        <ele>720.6</ele>
        <time>2019-06-01T14:06:27Z</time>
      </trkpt>
      <trkpt lat="44.38449" lon="5.41718">
        <ele>718.5</ele>
        <time>2019-06-01T14:06:35Z</time>
      </trkpt>
      <trkpt lat="44.38444" lon="5.4173">
        <ele>717</ele>
        <time>2019-06-01T14:06:44Z</time>
      </trkpt>
      <trkpt lat="44.38448" lon="5.41741">
        <ele>713.6</ele>
        <time>2019-06-01T14:07:04Z</time>
      </trkpt>
      <trkpt lat="44.38453" lon="5.41753">
        <ele>713.1</ele>
        <time>2019-06-01T14:07:10Z</time>
      </trkpt>
      <trkpt lat="44.38459" lon="5.41763">
        <ele>712.5</ele>
        <time>2019-06-01T14:07:17Z</time>
      </trkpt>
      <trkpt lat="44.38465" lon="5.41775">
        <ele>712.1</ele>
        <time>2019-06-01T14:07:24Z</time>
      </trkpt>
      <trkpt lat="44.38471" lon="5.41787">
        <ele>711.4</ele>
        <time>2019-06-01T14:07:31Z</time>
      </trkpt>
      <trkpt lat="44.38477" lon="5.41798">
        <ele>710.3</ele>
        <time>2019-06-01T14:07:38Z</time>
      </trkpt>
      <trkpt lat="44.38482" lon="5.41809">
        <ele>709.5</ele>
        <time>2019-06-01T14:07:44Z</time>
      </trkpt>
      <trkpt lat="44.38488" lon="5.4182">
        <ele>708.8</ele>
        <time>2019-06-01T14:07:51Z</time>
      </trkpt>
      <trkpt lat="44.38495" lon="5.41832">
        <ele>708.4</ele>
        <time>2019-06-01T14:07:58Z</time>
      </trkpt>
      <trkpt lat="44.38501" lon="5.41843">
        <ele>707.7</ele>
        <time>2019-06-01T14:08:05Z</time>
      </trkpt>
      <trkpt lat="44.38507" lon="5.41854">
        <ele>706.9</ele>
        <time>2019-06-01T14:08:11Z</time>
      </trkpt>
      <trkpt lat="44.38512" lon="5.41866">
        <ele>706.2</ele>
        <time>2019-06-01T14:08:18Z</time>
      </trkpt>
      <trkpt lat="44.38518" lon="5.41878">
        <ele>705.3</ele>
        <time>2019-06-01T14:08:25Z</time>
      </trkpt>
      <trkpt lat="44.38524" lon="5.41889">
        <ele>704.5</ele>
        <time>2019-06-01T14:08:32Z</time>
      </trkpt>
      <trkpt lat="44.38529" lon="5.41901">
        <ele>703.8</ele>
        <time>2019-06-01T14:08:39Z</time>
      </trkpt>
      <trkpt lat="44.38535" lon="5.41913">
        <ele>702.7</ele>
        <time>2019-06-01T14:08:46Z</time>
      </trkpt>
      <trkpt lat="44.38541" lon="5.41924">
        <ele>701.4</ele>
        <time>2019-06-01T14:08:53Z</time>
      </trkpt>
      <trkpt lat="44.38547" lon="5.41935">
        <ele>700.6</ele>
        <time>2019-06-01T14:09:00Z</time>
      </trkpt>
      <trkpt lat="44.38554" lon="5.41947">
        <ele>699.9</ele>
        <time>2019-06-01T14:09:07Z</time>
      </trkpt>
      <trkpt lat="44.3856" lon="5.41958">
        <ele>699.4</ele>
        <time>2019-06-01T14:09:14Z</time>
      </trkpt>
      <trkpt lat="44.38566" lon="5.41968">
        <ele>698.5</ele>
        <time>2019-06-01T14:09:21Z</time>
      </trkpt>
      <trkpt lat="44.38572" lon="5.41979">
        <ele>697.5</ele>
        <time>2019-06-01T14:09:28Z</time>
      </trkpt>
      <trkpt lat="44.38579" lon="5.4199">
        <ele>696.4</ele>
        <time>2019-06-01T14:09:35Z</time>
      </trkpt>
      <trkpt lat="44.38586" lon="5.42001">
        <ele>695.8</ele>
        <time>2019-06-01T14:09:42Z</time>
      </trkpt>
      <trkpt lat="44.38592" lon="5.42011">
        <ele>695.1</ele>
        <time>2019-06-01T14:09:49Z</time>
      </trkpt>
      <trkpt lat="44.38598" lon="5.42023">
        <ele>694.2</ele>
        <time>2019-06-01T14:09:56Z</time>
      </trkpt>
      <trkpt lat="44.38603" lon="5.42036">
        <ele>693.6</ele>
        <time>2019-06-01T14:10:03Z</time>
      </trkpt>
      <trkpt lat="44.38604" lon="5.4205">
        <ele>693.1</ele>
        <time>2019-06-01T14:10:10Z</time>
      </trkpt>
      <trkpt lat="44.386" lon="5.42062">
        <ele>692.3</ele>
        <time>2019-06-01T14:10:18Z</time>
      </trkpt>
      <trkpt lat="44.38596" lon="5.42074">
        <ele>691.6</ele>
        <time>2019-06-01T14:10:25Z</time>
      </trkpt>
      <trkpt lat="44.38589" lon="5.42085">
        <ele>690.9</ele>
        <time>2019-06-01T14:10:32Z</time>
      </trkpt>
      <trkpt lat="44.38583" lon="5.42095">
        <ele>690.2</ele>
        <time>2019-06-01T14:10:39Z</time>
      </trkpt>
      <trkpt lat="44.38577" lon="5.42105">
        <ele>688.7</ele>
        <time>2019-06-01T14:10:46Z</time>
      </trkpt>
      <trkpt lat="44.3857" lon="5.42115">
        <ele>687.7</ele>
        <time>2019-06-01T14:10:53Z</time>
      </trkpt>
      <trkpt lat="44.38565" lon="5.42127">
        <ele>686.9</ele>
        <time>2019-06-01T14:11:00Z</time>
      </trkpt>
      <trkpt lat="44.38559" lon="5.42137">
        <ele>686.2</ele>
        <time>2019-06-01T14:11:07Z</time>
      </trkpt>
      <trkpt lat="44.38553" lon="5.42149">
        <ele>685.2</ele>
        <time>2019-06-01T14:11:14Z</time>
      </trkpt>
      <trkpt lat="44.38547" lon="5.42159">
        <ele>684.3</ele>
        <time>2019-06-01T14:11:21Z</time>
      </trkpt>
      <trkpt lat="44.38541" lon="5.4217">
        <ele>683.4</ele>
        <time>2019-06-01T14:11:28Z</time>
      </trkpt>
      <trkpt lat="44.38535" lon="5.42182">
        <ele>682.4</ele>
        <time>2019-06-01T14:11:35Z</time>
      </trkpt>
      <trkpt lat="44.38531" lon="5.42194">
        <ele>681.6</ele>
        <time>2019-06-01T14:11:42Z</time>
      </trkpt>
      <trkpt lat="44.38528" lon="5.42208">
        <ele>680.8</ele>
        <time>2019-06-01T14:11:49Z</time>
      </trkpt>
      <trkpt lat="44.38526" lon="5.42222">
        <ele>680</ele>
        <time>2019-06-01T14:11:56Z</time>
      </trkpt>
      <trkpt lat="44.38525" lon="5.42235">
        <ele>679.2</ele>
        <time>2019-06-01T14:12:03Z</time>
      </trkpt>
      <trkpt lat="44.38523" lon="5.42248">
        <ele>678.2</ele>
        <time>2019-06-01T14:12:10Z</time>
      </trkpt>
      <trkpt lat="44.38522" lon="5.42263">
        <ele>677.2</ele>
        <time>2019-06-01T14:12:17Z</time>
      </trkpt>
      <trkpt lat="44.38522" lon="5.42277">
        <ele>676.2</ele>
        <time>2019-06-01T14:12:24Z</time>
      </trkpt>
      <trkpt lat="44.38522" lon="5.42291">
        <ele>675.4</ele>
        <time>2019-06-01T14:12:31Z</time>
      </trkpt>
      <trkpt lat="44.38523" lon="5.42305">
        <ele>674.7</ele>
        <time>2019-06-01T14:12:37Z</time>
      </trkpt>
      <trkpt lat="44.38524" lon="5.42319">
        <ele>674.2</ele>
        <time>2019-06-01T14:12:44Z</time>
      </trkpt>
      <trkpt lat="44.38524" lon="5.42331">
        <ele>673.3</ele>
        <time>2019-06-01T14:12:50Z</time>
      </trkpt>
      <trkpt lat="44.38525" lon="5.42344">
        <ele>672.5</ele>
        <time>2019-06-01T14:12:56Z</time>
      </trkpt>
      <trkpt lat="44.38526" lon="5.42358">
        <ele>671.5</ele>
        <time>2019-06-01T14:13:03Z</time>
      </trkpt>
      <trkpt lat="44.38528" lon="5.42373">
        <ele>670.9</ele>
        <time>2019-06-01T14:13:10Z</time>
      </trkpt>
      <trkpt lat="44.38529" lon="5.42386">
        <ele>670.5</ele>
        <time>2019-06-01T14:13:16Z</time>
      </trkpt>
      <trkpt lat="44.3853" lon="5.424">
        <ele>669.8</ele>
        <time>2019-06-01T14:13:23Z</time>
      </trkpt>
      <trkpt lat="44.3853" lon="5.42414">
        <ele>669</ele>
        <time>2019-06-01T14:13:30Z</time>
      </trkpt>
      <trkpt lat="44.3853" lon="5.42427">
        <ele>668.3</ele>
        <time>2019-06-01T14:13:36Z</time>
      </trkpt>
      <trkpt lat="44.38529" lon="5.42442">
        <ele>667.3</ele>
        <time>2019-06-01T14:13:43Z</time>
      </trkpt>
      <trkpt lat="44.3853" lon="5.42456">
        <ele>666.5</ele>
        <time>2019-06-01T14:13:50Z</time>
      </trkpt>
      <trkpt lat="44.38531" lon="5.42469">
        <ele>665.7</ele>
        <time>2019-06-01T14:13:57Z</time>
      </trkpt>
      <trkpt lat="44.38523" lon="5.42462">
        <ele>663.2</ele>
        <time>2019-06-01T14:14:37Z</time>
      </trkpt>
      <trkpt lat="44.3852" lon="5.42448">
        <ele>663.1</ele>
        <time>2019-06-01T14:14:45Z</time>
      </trkpt>
      <trkpt lat="44.38519" lon="5.42435">
        <ele>663</ele>
        <time>2019-06-01T14:14:53Z</time>
      </trkpt>
      <trkpt lat="44.38517" lon="5.42423">
        <ele>663.1</ele>
        <time>2019-06-01T14:15:00Z</time>
      </trkpt>
      <trkpt lat="44.38514" lon="5.4241">
        <ele>663.2</ele>
        <time>2019-06-01T14:15:07Z</time>
      </trkpt>
      <trkpt lat="44.38508" lon="5.424">
        <ele>663.1</ele>
        <time>2019-06-01T14:15:14Z</time>
      </trkpt>
      <trkpt lat="44.385" lon="5.42392">
        <ele>663</ele>
        <time>2019-06-01T14:15:22Z</time>
      </trkpt>
      <trkpt lat="44.38508" lon="5.424">
        <ele>662.8</ele>
        <time>2019-06-01T14:15:42Z</time>
      </trkpt>
      <trkpt lat="44.38512" lon="5.42412">
        <ele>663.1</ele>
        <time>2019-06-01T14:15:50Z</time>
      </trkpt>
      <trkpt lat="44.38515" lon="5.42425">
        <ele>662.9</ele>
        <time>2019-06-01T14:15:57Z</time>
      </trkpt>
      <trkpt lat="44.38516" lon="5.42439">
        <ele>663</ele>
        <time>2019-06-01T14:16:04Z</time>
      </trkpt>
      <trkpt lat="44.38518" lon="5.42453">
        <ele>663</ele>
        <time>2019-06-01T14:16:11Z</time>
      </trkpt>
      <trkpt lat="44.38521" lon="5.42467">
        <ele>663</ele>
        <time>2019-06-01T14:16:18Z</time>
      </trkpt>
      <trkpt lat="44.38525" lon="5.42481">
        <ele>663.3</ele>
        <time>2019-06-01T14:16:25Z</time>
      </trkpt>
      <trkpt lat="44.38529" lon="5.42493">
        <ele>663.1</ele>
        <time>2019-06-01T14:16:32Z</time>
      </trkpt>
      <trkpt lat="44.38532" lon="5.42505">
        <ele>662.2</ele>
        <time>2019-06-01T14:16:40Z</time>
      </trkpt>
      <trkpt lat="44.38535" lon="5.42518">
        <ele>661.8</ele>
        <time>2019-06-01T14:16:50Z</time>
      </trkpt>
      <trkpt lat="44.38537" lon="5.42532">
        <ele>661.6</ele>
        <time>2019-06-01T14:16:57Z</time>
      </trkpt>
      <trkpt lat="44.38534" lon="5.42544">
        <ele>661.2</ele>
        <time>2019-06-01T14:17:03Z</time>
      </trkpt>
      <trkpt lat="44.38525" lon="5.42549">
        <ele>660.8</ele>
        <time>2019-06-01T14:17:10Z</time>
      </trkpt>
      <trkpt lat="44.38517" lon="5.42543">
        <ele>660.4</ele>
        <time>2019-06-01T14:17:20Z</time>
      </trkpt>
      <trkpt lat="44.3851" lon="5.42533">
        <ele>659.7</ele>
        <time>2019-06-01T14:17:27Z</time>
      </trkpt>
      <trkpt lat="44.38504" lon="5.42523">
        <ele>659.2</ele>
        <time>2019-06-01T14:17:34Z</time>
      </trkpt>
      <trkpt lat="44.38498" lon="5.42511">
        <ele>658.7</ele>
        <time>2019-06-01T14:17:41Z</time>
      </trkpt>
      <trkpt lat="44.38494" lon="5.42499">
        <ele>658</ele>
        <time>2019-06-01T14:17:49Z</time>
      </trkpt>
      <trkpt lat="44.38488" lon="5.42489">
        <ele>657.4</ele>
        <time>2019-06-01T14:17:55Z</time>
      </trkpt>
      <trkpt lat="44.38482" lon="5.42479">
        <ele>656.6</ele>
        <time>2019-06-01T14:18:02Z</time>
      </trkpt>
      <trkpt lat="44.38475" lon="5.4247">
        <ele>655.9</ele>
        <time>2019-06-01T14:18:09Z</time>
      </trkpt>
      <trkpt lat="44.38468" lon="5.42462">
        <ele>655.5</ele>
        <time>2019-06-01T14:18:15Z</time>
      </trkpt>
      <trkpt lat="44.3846" lon="5.42454">
        <ele>655.2</ele>
        <time>2019-06-01T14:18:21Z</time>
      </trkpt>
      <trkpt lat="44.38451" lon="5.42447">
        <ele>654.9</ele>
        <time>2019-06-01T14:18:27Z</time>
      </trkpt>
      <trkpt lat="44.38443" lon="5.4244">
        <ele>654.4</ele>
        <time>2019-06-01T14:18:33Z</time>
      </trkpt>
      <trkpt lat="44.38436" lon="5.42433">
        <ele>654</ele>
        <time>2019-06-01T14:18:39Z</time>
      </trkpt>
      <trkpt lat="44.38429" lon="5.42421">
        <ele>653.6</ele>
        <time>2019-06-01T14:18:46Z</time>
      </trkpt>
      <trkpt lat="44.38424" lon="5.4241">
        <ele>653.2</ele>
        <time>2019-06-01T14:18:52Z</time>
      </trkpt>
      <trkpt lat="44.38419" lon="5.424">
        <ele>652.6</ele>
        <time>2019-06-01T14:18:58Z</time>
      </trkpt>
      <trkpt lat="44.38414" lon="5.42387">
        <ele>651.9</ele>
        <time>2019-06-01T14:19:05Z</time>
      </trkpt>
      <trkpt lat="44.38412" lon="5.42374">
        <ele>651.1</ele>
        <time>2019-06-01T14:19:13Z</time>
      </trkpt>
      <trkpt lat="44.38406" lon="5.42384">
        <ele>649.5</ele>
        <time>2019-06-01T14:19:29Z</time>
      </trkpt>
      <trkpt lat="44.38409" lon="5.42396">
        <ele>648.8</ele>
        <time>2019-06-01T14:19:36Z</time>
      </trkpt>
      <trkpt lat="44.38411" lon="5.4241">
        <ele>648.2</ele>
        <time>2019-06-01T14:19:43Z</time>
      </trkpt>
      <trkpt lat="44.38412" lon="5.42424">
        <ele>647.5</ele>
        <time>2019-06-01T14:19:50Z</time>
      </trkpt>
      <trkpt lat="44.38413" lon="5.42437">
        <ele>646.5</ele>
        <time>2019-06-01T14:19:57Z</time>
      </trkpt>
      <trkpt lat="44.38413" lon="5.42451">
        <ele>645.5</ele>
        <time>2019-06-01T14:20:04Z</time>
      </trkpt>
      <trkpt lat="44.38414" lon="5.42465">
        <ele>644.8</ele>
        <time>2019-06-01T14:20:11Z</time>
      </trkpt>
      <trkpt lat="44.38416" lon="5.42479">
        <ele>644.3</ele>
        <time>2019-06-01T14:20:18Z</time>
      </trkpt>
      <trkpt lat="44.38417" lon="5.42492">
        <ele>643.6</ele>
        <time>2019-06-01T14:20:24Z</time>
      </trkpt>
      <trkpt lat="44.38417" lon="5.42505">
        <ele>643.1</ele>
        <time>2019-06-01T14:20:31Z</time>
      </trkpt>
      <trkpt lat="44.38418" lon="5.42518">
        <ele>642.5</ele>
        <time>2019-06-01T14:20:38Z</time>
      </trkpt>
      <trkpt lat="44.38411" lon="5.42528">
        <ele>641.3</ele>
        <time>2019-06-01T14:20:49Z</time>
      </trkpt>
      <trkpt lat="44.38402" lon="5.42526">
        <ele>640.2</ele>
        <time>2019-06-01T14:20:56Z</time>
      </trkpt>
      <trkpt lat="44.38393" lon="5.42523">
        <ele>638.8</ele>
        <time>2019-06-01T14:21:04Z</time>
      </trkpt>
      <trkpt lat="44.38385" lon="5.42518">
        <ele>637.2</ele>
        <time>2019-06-01T14:21:12Z</time>
      </trkpt>
      <trkpt lat="44.38381" lon="5.42505">
        <ele>635.7</ele>
        <time>2019-06-01T14:21:19Z</time>
      </trkpt>
      <trkpt lat="44.38378" lon="5.42493">
        <ele>634.9</ele>
        <time>2019-06-01T14:21:25Z</time>
      </trkpt>
      <trkpt lat="44.38376" lon="5.4248">
        <ele>634.2</ele>
        <time>2019-06-01T14:21:32Z</time>
      </trkpt>
      <trkpt lat="44.38375" lon="5.42466">
        <ele>633.3</ele>
        <time>2019-06-01T14:21:39Z</time>
      </trkpt>
      <trkpt lat="44.38374" lon="5.42452">
        <ele>632.5</ele>
        <time>2019-06-01T14:21:46Z</time>
      </trkpt>
      <trkpt lat="44.38372" lon="5.42437">
        <ele>631.5</ele>
        <time>2019-06-01T14:21:53Z</time>
      </trkpt>
      <trkpt lat="44.3837" lon="5.42424">
        <ele>630.8</ele>
        <time>2019-06-01T14:22:00Z</time>
      </trkpt>
      <trkpt lat="44.38366" lon="5.42412">
        <ele>630.3</ele>
        <time>2019-06-01T14:22:07Z</time>
      </trkpt>
      <trkpt lat="44.38363" lon="5.424">
        <ele>629.8</ele>
        <time>2019-06-01T14:22:13Z</time>
      </trkpt>
      <trkpt lat="44.38354" lon="5.424">
        <ele>629.4</ele>
        <time>2019-06-01T14:22:20Z</time>
      </trkpt>
      <trkpt lat="44.38353" lon="5.42413">
        <ele>628.8</ele>
        <time>2019-06-01T14:22:28Z</time>
      </trkpt>
      <trkpt lat="44.38355" lon="5.42426">
        <ele>628.1</ele>
        <time>2019-06-01T14:22:35Z</time>
      </trkpt>
      <trkpt lat="44.38356" lon="5.42441">
        <ele>627.1</ele>
        <time>2019-06-01T14:22:43Z</time>
      </trkpt>
      <trkpt lat="44.38357" lon="5.42455">
        <ele>626.1</ele>
        <time>2019-06-01T14:22:50Z</time>
      </trkpt>
      <trkpt lat="44.38357" lon="5.42469">
        <ele>625.1</ele>
        <time>2019-06-01T14:22:57Z</time>
      </trkpt>
      <trkpt lat="44.38357" lon="5.42484">
        <ele>624.3</ele>
        <time>2019-06-01T14:23:04Z</time>
      </trkpt>
      <trkpt lat="44.38357" lon="5.42497">
        <ele>623.7</ele>
        <time>2019-06-01T14:23:10Z</time>
      </trkpt>
      <trkpt lat="44.38357" lon="5.42511">
        <ele>623.2</ele>
        <time>2019-06-01T14:23:17Z</time>
      </trkpt>
      <trkpt lat="44.38358" lon="5.42525">
        <ele>622.6</ele>
        <time>2019-06-01T14:23:24Z</time>
      </trkpt>
      <trkpt lat="44.38359" lon="5.42538">
        <ele>622.1</ele>
        <time>2019-06-01T14:23:30Z</time>
      </trkpt>
      <trkpt lat="44.3836" lon="5.42552">
        <ele>621.2</ele>
        <time>2019-06-01T14:23:37Z</time>
      </trkpt>
      <trkpt lat="44.38361" lon="5.42565">
        <ele>620.2</ele>
        <time>2019-06-01T14:23:43Z</time>
      </trkpt>
      <trkpt lat="44.38362" lon="5.42579">
        <ele>619.4</ele>
        <time>2019-06-01T14:23:50Z</time>
      </trkpt>
      <trkpt lat="44.38362" lon="5.42593">
        <ele>618.6</ele>
        <time>2019-06-01T14:23:57Z</time>
      </trkpt>
      <trkpt lat="44.38363" lon="5.42606">
        <ele>617.6</ele>
        <time>2019-06-01T14:24:04Z</time>
      </trkpt>
      <trkpt lat="44.38364" lon="5.4262">
        <ele>616.8</ele>
        <time>2019-06-01T14:24:11Z</time>
      </trkpt>
      <trkpt lat="44.38364" lon="5.42634">
        <ele>616.1</ele>
        <time>2019-06-01T14:24:18Z</time>
      </trkpt>
      <trkpt lat="44.38364" lon="5.42647">
        <ele>615.4</ele>
        <time>2019-06-01T14:24:24Z</time>
      </trkpt>
      <trkpt lat="44.38366" lon="5.4266">
        <ele>614.8</ele>
        <time>2019-06-01T14:24:30Z</time>
      </trkpt>
      <trkpt lat="44.38367" lon="5.42672">
        <ele>614.3</ele>
        <time>2019-06-01T14:24:36Z</time>
      </trkpt>
      <trkpt lat="44.38369" lon="5.42685">
        <ele>613.1</ele>
        <time>2019-06-01T14:24:43Z</time>
      </trkpt>
      <trkpt lat="44.38372" lon="5.42697">
        <ele>612.2</ele>
        <time>2019-06-01T14:24:49Z</time>
      </trkpt>
      <trkpt lat="44.38373" lon="5.42712">
        <ele>611.3</ele>
        <time>2019-06-01T14:24:56Z</time>
      </trkpt>
      <trkpt lat="44.38375" lon="5.42724">
        <ele>610.4</ele>
        <time>2019-06-01T14:25:02Z</time>
      </trkpt>
      <trkpt lat="44.38378" lon="5.42738">
        <ele>609.8</ele>
        <time>2019-06-01T14:25:09Z</time>
      </trkpt>
      <trkpt lat="44.38381" lon="5.42751">
        <ele>609.1</ele>
        <time>2019-06-01T14:25:16Z</time>
      </trkpt>
      <trkpt lat="44.38382" lon="5.42764">
        <ele>608.6</ele>
        <time>2019-06-01T14:25:22Z</time>
      </trkpt>
      <trkpt lat="44.38384" lon="5.42776">
        <ele>608</ele>
        <time>2019-06-01T14:25:28Z</time>
      </trkpt>
      <trkpt lat="44.38385" lon="5.42789">
        <ele>607.1</ele>
        <time>2019-06-01T14:25:35Z</time>
      </trkpt>
      <trkpt lat="44.38386" lon="5.42802">
        <ele>606</ele>
        <time>2019-06-01T14:25:43Z</time>
      </trkpt>
      <trkpt lat="44.38385" lon="5.42816">
        <ele>605.1</ele>
        <time>2019-06-01T14:25:50Z</time>
      </trkpt>
      <trkpt lat="44.38383" lon="5.42828">
        <ele>604.3</ele>
        <time>2019-06-01T14:25:56Z</time>
      </trkpt>
      <trkpt lat="44.38383" lon="5.42842">
        <ele>603.3</ele>
        <time>2019-06-01T14:26:04Z</time>
      </trkpt>
      <trkpt lat="44.38382" lon="5.42855">
        <ele>602.6</ele>
        <time>2019-06-01T14:26:11Z</time>
      </trkpt>
      <trkpt lat="44.38382" lon="5.4287">
        <ele>601.8</ele>
        <time>2019-06-01T14:26:18Z</time>
      </trkpt>
      <trkpt lat="44.38382" lon="5.42884">
        <ele>601.2</ele>
        <time>2019-06-01T14:26:25Z</time>
      </trkpt>
      <trkpt lat="44.38382" lon="5.42898">
        <ele>600.8</ele>
        <time>2019-06-01T14:26:32Z</time>
      </trkpt>
      <trkpt lat="44.38384" lon="5.42911">
        <ele>600.3</ele>
        <time>2019-06-01T14:26:39Z</time>
      </trkpt>
      <trkpt lat="44.38385" lon="5.42925">
        <ele>599.7</ele>
        <time>2019-06-01T14:26:46Z</time>
      </trkpt>
      <trkpt lat="44.38386" lon="5.42939">
        <ele>598.7</ele>
        <time>2019-06-01T14:26:53Z</time>
      </trkpt>
      <trkpt lat="44.38387" lon="5.42952">
        <ele>597.6</ele>
        <time>2019-06-01T14:27:00Z</time>
      </trkpt>
      <trkpt lat="44.38389" lon="5.42965">
        <ele>596.6</ele>
        <time>2019-06-01T14:27:08Z</time>
      </trkpt>
      <trkpt lat="44.38391" lon="5.42978">
        <ele>595.7</ele>
        <time>2019-06-01T14:27:15Z</time>
      </trkpt>
      <trkpt lat="44.38393" lon="5.42991">
        <ele>594.9</ele>
        <time>2019-06-01T14:27:22Z</time>
      </trkpt>
      <trkpt lat="44.38395" lon="5.43003">
        <ele>594.1</ele>
        <time>2019-06-01T14:27:30Z</time>
      </trkpt>
      <trkpt lat="44.38396" lon="5.43017">
        <ele>593.5</ele>
        <time>2019-06-01T14:27:37Z</time>
      </trkpt>
      <trkpt lat="44.38396" lon="5.4303">
        <ele>592.6</ele>
        <time>2019-06-01T14:27:44Z</time>
      </trkpt>
      <trkpt lat="44.38396" lon="5.43044">
        <ele>591.4</ele>
        <time>2019-06-01T14:27:52Z</time>
      </trkpt>
      <trkpt lat="44.38395" lon="5.43057">
        <ele>590.8</ele>
        <time>2019-06-01T14:27:59Z</time>
      </trkpt>
      <trkpt lat="44.38391" lon="5.43071">
        <ele>590.1</ele>
        <time>2019-06-01T14:28:06Z</time>
      </trkpt>
      <trkpt lat="44.38388" lon="5.43084">
        <ele>589.3</ele>
        <time>2019-06-01T14:28:13Z</time>
      </trkpt>
      <trkpt lat="44.38385" lon="5.43097">
        <ele>588.5</ele>
        <time>2019-06-01T14:28:20Z</time>
      </trkpt>
      <trkpt lat="44.38382" lon="5.4311">
        <ele>587.6</ele>
        <time>2019-06-01T14:28:27Z</time>
      </trkpt>
      <trkpt lat="44.38381" lon="5.43123">
        <ele>586.7</ele>
        <time>2019-06-01T14:28:34Z</time>
      </trkpt>
      <trkpt lat="44.38381" lon="5.43136">
        <ele>586</ele>
        <time>2019-06-01T14:28:41Z</time>
      </trkpt>
      <trkpt lat="44.38384" lon="5.43148">
        <ele>585.1</ele>
        <time>2019-06-01T14:28:48Z</time>
      </trkpt>
      <trkpt lat="44.38393" lon="5.4315">
        <ele>582.8</ele>
        <time>2019-06-01T14:29:18Z</time>
      </trkpt>
      <trkpt lat="44.38392" lon="5.43163">
        <ele>582.4</ele>
        <time>2019-06-01T14:29:49Z</time>
      </trkpt>
      <trkpt lat="44.38384" lon="5.43169">
        <ele>582.2</ele>
        <time>2019-06-01T14:30:09Z</time>
      </trkpt>
      <trkpt lat="44.38374" lon="5.4317">
        <ele>582.2</ele>
        <time>2019-06-01T14:30:17Z</time>
      </trkpt>
      <trkpt lat="44.38365" lon="5.43165">
        <ele>581.6</ele>
        <time>2019-06-01T14:30:25Z</time>
      </trkpt>
      <trkpt lat="44.38364" lon="5.43178">
        <ele>580.5</ele>
        <time>2019-06-01T14:30:43Z</time>
      </trkpt>
      <trkpt lat="44.38371" lon="5.43187">
        <ele>579.4</ele>
        <time>2019-06-01T14:30:51Z</time>
      </trkpt>
      <trkpt lat="44.38379" lon="5.43193">
        <ele>578.2</ele>
        <time>2019-06-01T14:30:59Z</time>
      </trkpt>
      <trkpt lat="44.38386" lon="5.43199">
        <ele>575.5</ele>
        <time>2019-06-01T14:31:23Z</time>
      </trkpt>
      <trkpt lat="44.38385" lon="5.43213">
        <ele>575.1</ele>
        <time>2019-06-01T14:32:09Z</time>
      </trkpt>
      <trkpt lat="44.38382" lon="5.43224">
        <ele>575.1</ele>
        <time>2019-06-01T14:32:40Z</time>
      </trkpt>
      <trkpt lat="44.38379" lon="5.43237">
        <ele>575.6</ele>
        <time>2019-06-01T14:33:02Z</time>
      </trkpt>
      <trkpt lat="44.38373" lon="5.43247">
        <ele>576.1</ele>
        <time>2019-06-01T14:33:39Z</time>
      </trkpt>
      <trkpt lat="44.38364" lon="5.4325">
        <ele>576.2</ele>
        <time>2019-06-01T14:33:46Z</time>
      </trkpt>
      <trkpt lat="44.38355" lon="5.43254">
        <ele>576.3</ele>
        <time>2019-06-01T14:33:53Z</time>
      </trkpt>
      <trkpt lat="44.38345" lon="5.43258">
        <ele>576.4</ele>
        <time>2019-06-01T14:34:00Z</time>
      </trkpt>
      <trkpt lat="44.38337" lon="5.43265">
        <ele>576.5</ele>
        <time>2019-06-01T14:34:07Z</time>
      </trkpt>
      <trkpt lat="44.3833" lon="5.43273">
        <ele>576.9</ele>
        <time>2019-06-01T14:34:14Z</time>
      </trkpt>
      <trkpt lat="44.38324" lon="5.43285">
        <ele>577.6</ele>
        <time>2019-06-01T14:34:22Z</time>
      </trkpt>
      <trkpt lat="44.3832" lon="5.43297">
        <ele>578.2</ele>
        <time>2019-06-01T14:34:29Z</time>
      </trkpt>
      <trkpt lat="44.38316" lon="5.43308">
        <ele>578.8</ele>
        <time>2019-06-01T14:34:36Z</time>
      </trkpt>
      <trkpt lat="44.38311" lon="5.4332">
        <ele>579.3</ele>
        <time>2019-06-01T14:34:43Z</time>
      </trkpt>
      <trkpt lat="44.38306" lon="5.4333">
        <ele>579.7</ele>
        <time>2019-06-01T14:34:50Z</time>
      </trkpt>
      <trkpt lat="44.38297" lon="5.43335">
        <ele>580.5</ele>
        <time>2019-06-01T14:34:57Z</time>
      </trkpt>
      <trkpt lat="44.38289" lon="5.43342">
        <ele>581.3</ele>
        <time>2019-06-01T14:35:04Z</time>
      </trkpt>
      <trkpt lat="44.38282" lon="5.43352">
        <ele>582.2</ele>
        <time>2019-06-01T14:35:12Z</time>
      </trkpt>
      <trkpt lat="44.38275" lon="5.43361">
        <ele>583.3</ele>
        <time>2019-06-01T14:35:20Z</time>
      </trkpt>
      <trkpt lat="44.38266" lon="5.43366">
        <ele>584</ele>
        <time>2019-06-01T14:35:26Z</time>
      </trkpt>
      <trkpt lat="44.38259" lon="5.43375">
        <ele>585</ele>
        <time>2019-06-01T14:35:34Z</time>
      </trkpt>
      <trkpt lat="44.38252" lon="5.43384">
        <ele>586</ele>
        <time>2019-06-01T14:35:42Z</time>
      </trkpt>
      <trkpt lat="44.38244" lon="5.43396">
        <ele>588</ele>
        <time>2019-06-01T14:35:50Z</time>
      </trkpt>
      <trkpt lat="44.38239" lon="5.43407">
        <ele>590</ele>
        <time>2019-06-01T14:35:58Z</time>
      </trkpt>
      <trkpt lat="44.38234" lon="5.43418">
        <ele>591</ele>
        <time>2019-06-01T14:36:06Z</time>
      </trkpt>
      <trkpt lat="44.38228" lon="5.43432">
        <ele>593</ele>
        <time>2019-06-01T14:36:14Z</time>
      </trkpt>
      <trkpt lat="44.38222" lon="5.43445">
        <ele>594</ele>
        <time>2019-06-01T14:36:22Z</time>
      </trkpt>
      <trkpt lat="44.38215" lon="5.4346">
        <ele>595</ele>
        <time>2019-06-01T14:36:31Z</time>
      </trkpt>
      <trkpt lat="44.38209" lon="5.43473">
        <ele>596</ele>
        <time>2019-06-01T14:36:39Z</time>
      </trkpt>
      <trkpt lat="44.38201" lon="5.43485">
        <ele>597</ele>
        <time>2019-06-01T14:36:47Z</time>
      </trkpt>
      <trkpt lat="44.38194" lon="5.43503">
        <ele>598</ele>
        <time>2019-06-01T14:36:55Z</time>
      </trkpt>
      <trkpt lat="44.38189" lon="5.43514">
        <ele>599.6</ele>
        <time>2019-06-01T14:37:02Z</time>
      </trkpt>
      <trkpt lat="44.38182" lon="5.43524">
        <ele>600.4</ele>
        <time>2019-06-01T14:37:09Z</time>
      </trkpt>
      <trkpt lat="44.38177" lon="5.43536">
        <ele>600.8</ele>
        <time>2019-06-01T14:37:16Z</time>
      </trkpt>
      <trkpt lat="44.38172" lon="5.43547">
        <ele>601.1</ele>
        <time>2019-06-01T14:37:23Z</time>
      </trkpt>
      <trkpt lat="44.38169" lon="5.43559">
        <ele>601</ele>
        <time>2019-06-01T14:37:30Z</time>
      </trkpt>
      <trkpt lat="44.38164" lon="5.43571">
        <ele>600.9</ele>
        <time>2019-06-01T14:37:37Z</time>
      </trkpt>
      <trkpt lat="44.3816" lon="5.43584">
        <ele>600.9</ele>
        <time>2019-06-01T14:37:44Z</time>
      </trkpt>
      <trkpt lat="44.38155" lon="5.43596">
        <ele>600.1</ele>
        <time>2019-06-01T14:37:51Z</time>
      </trkpt>
      <trkpt lat="44.3815" lon="5.43607">
        <ele>599.4</ele>
        <time>2019-06-01T14:37:58Z</time>
      </trkpt>
      <trkpt lat="44.38144" lon="5.43618">
        <ele>598.8</ele>
        <time>2019-06-01T14:38:05Z</time>
      </trkpt>
      <trkpt lat="44.38138" lon="5.43628">
        <ele>598.1</ele>
        <time>2019-06-01T14:38:12Z</time>
      </trkpt>
      <trkpt lat="44.3813" lon="5.43636">
        <ele>597.5</ele>
        <time>2019-06-01T14:38:19Z</time>
      </trkpt>
      <trkpt lat="44.38122" lon="5.43644">
        <ele>596.6</ele>
        <time>2019-06-01T14:38:26Z</time>
      </trkpt>
      <trkpt lat="44.38115" lon="5.43652">
        <ele>595.8</ele>
        <time>2019-06-01T14:38:32Z</time>
      </trkpt>
      <trkpt lat="44.38109" lon="5.43662">
        <ele>595.2</ele>
        <time>2019-06-01T14:38:38Z</time>
      </trkpt>
      <trkpt lat="44.38102" lon="5.4367">
        <ele>594.9</ele>
        <time>2019-06-01T14:38:44Z</time>
      </trkpt>
      <trkpt lat="44.38094" lon="5.43677">
        <ele>594.4</ele>
        <time>2019-06-01T14:38:51Z</time>
      </trkpt>
      <trkpt lat="44.38084" lon="5.4368">
        <ele>593.3</ele>
        <time>2019-06-01T14:38:59Z</time>
      </trkpt>
      <trkpt lat="44.38075" lon="5.43681">
        <ele>592.4</ele>
        <time>2019-06-01T14:39:06Z</time>
      </trkpt>
      <trkpt lat="44.38065" lon="5.4368">
        <ele>591.6</ele>
        <time>2019-06-01T14:39:13Z</time>
      </trkpt>
      <trkpt lat="44.38055" lon="5.4368">
        <ele>590.7</ele>
        <time>2019-06-01T14:39:20Z</time>
      </trkpt>
      <trkpt lat="44.38046" lon="5.43684">
        <ele>590</ele>
        <time>2019-06-01T14:39:27Z</time>
      </trkpt>
      <trkpt lat="44.38038" lon="5.4369">
        <ele>589.2</ele>
        <time>2019-06-01T14:39:35Z</time>
      </trkpt>
      <trkpt lat="44.38029" lon="5.43694">
        <ele>588.7</ele>
        <time>2019-06-01T14:39:42Z</time>
      </trkpt>
      <trkpt lat="44.3802" lon="5.43698">
        <ele>587.9</ele>
        <time>2019-06-01T14:39:49Z</time>
      </trkpt>
      <trkpt lat="44.38011" lon="5.43702">
        <ele>587</ele>
        <time>2019-06-01T14:39:56Z</time>
      </trkpt>
      <trkpt lat="44.38002" lon="5.43703">
        <ele>586.2</ele>
        <time>2019-06-01T14:40:02Z</time>
      </trkpt>
      <trkpt lat="44.37991" lon="5.43705">
        <ele>585.5</ele>
        <time>2019-06-01T14:40:10Z</time>
      </trkpt>
      <trkpt lat="44.37982" lon="5.43707">
        <ele>584.9</ele>
        <time>2019-06-01T14:40:17Z</time>
      </trkpt>
      <trkpt lat="44.37972" lon="5.43709">
        <ele>584.1</ele>
        <time>2019-06-01T14:40:24Z</time>
      </trkpt>
      <trkpt lat="44.37963" lon="5.43711">
        <ele>583.4</ele>
        <time>2019-06-01T14:40:31Z</time>
      </trkpt>
      <trkpt lat="44.37953" lon="5.43715">
        <ele>582.7</ele>
        <time>2019-06-01T14:40:39Z</time>
      </trkpt>
      <trkpt lat="44.37943" lon="5.43716">
        <ele>581.9</ele>
        <time>2019-06-01T14:40:47Z</time>
      </trkpt>
      <trkpt lat="44.37933" lon="5.43716">
        <ele>580.8</ele>
        <time>2019-06-01T14:40:55Z</time>
      </trkpt>
      <trkpt lat="44.37923" lon="5.43716">
        <ele>580</ele>
        <time>2019-06-01T14:41:02Z</time>
      </trkpt>
      <trkpt lat="44.37912" lon="5.43717">
        <ele>579.1</ele>
        <time>2019-06-01T14:41:09Z</time>
      </trkpt>
      <trkpt lat="44.37903" lon="5.43717">
        <ele>578.4</ele>
        <time>2019-06-01T14:41:16Z</time>
      </trkpt>
      <trkpt lat="44.37893" lon="5.43721">
        <ele>577.8</ele>
        <time>2019-06-01T14:41:23Z</time>
      </trkpt>
      <trkpt lat="44.37884" lon="5.43725">
        <ele>577.2</ele>
        <time>2019-06-01T14:41:30Z</time>
      </trkpt>
      <trkpt lat="44.37876" lon="5.43732">
        <ele>576.7</ele>
        <time>2019-06-01T14:41:38Z</time>
      </trkpt>
      <trkpt lat="44.37873" lon="5.43745">
        <ele>575.4</ele>
        <time>2019-06-01T14:42:15Z</time>
      </trkpt>
      <trkpt lat="44.3787" lon="5.43757">
        <ele>575.3</ele>
        <time>2019-06-01T14:42:23Z</time>
      </trkpt>
      <trkpt lat="44.37871" lon="5.4377">
        <ele>574.7</ele>
        <time>2019-06-01T14:42:32Z</time>
      </trkpt>
      <trkpt lat="44.37872" lon="5.43784">
        <ele>573.7</ele>
        <time>2019-06-01T14:42:40Z</time>
      </trkpt>
      <trkpt lat="44.3787" lon="5.43798">
        <ele>573</ele>
        <time>2019-06-01T14:42:49Z</time>
      </trkpt>
      <trkpt lat="44.3787" lon="5.43811">
        <ele>572.1</ele>
        <time>2019-06-01T14:42:57Z</time>
      </trkpt>
      <trkpt lat="44.37864" lon="5.43822">
        <ele>571.6</ele>
        <time>2019-06-01T14:43:05Z</time>
      </trkpt>
      <trkpt lat="44.37855" lon="5.43828">
        <ele>571.3</ele>
        <time>2019-06-01T14:43:10Z</time>
      </trkpt>
      <trkpt lat="44.37845" lon="5.43829">
        <ele>571</ele>
        <time>2019-06-01T14:43:17Z</time>
      </trkpt>
      <trkpt lat="44.37836" lon="5.43825">
        <ele>570.4</ele>
        <time>2019-06-01T14:43:24Z</time>
      </trkpt>
      <trkpt lat="44.37826" lon="5.43824">
        <ele>569.6</ele>
        <time>2019-06-01T14:43:33Z</time>
      </trkpt>
      <trkpt lat="44.37817" lon="5.43821">
        <ele>569.1</ele>
        <time>2019-06-01T14:43:39Z</time>
      </trkpt>
      <trkpt lat="44.37808" lon="5.43817">
        <ele>568.8</ele>
        <time>2019-06-01T14:43:47Z</time>
      </trkpt>
      <trkpt lat="44.37813" lon="5.43829">
        <ele>568.6</ele>
        <time>2019-06-01T14:44:10Z</time>
      </trkpt>
      <trkpt lat="44.37819" lon="5.43838">
        <ele>568.2</ele>
        <time>2019-06-01T14:44:36Z</time>
      </trkpt>
      <trkpt lat="44.37827" lon="5.43833">
        <ele>568.2</ele>
        <time>2019-06-01T14:44:53Z</time>
      </trkpt>
      <trkpt lat="44.37832" lon="5.43822">
        <ele>569.2</ele>
        <time>2019-06-01T14:47:19Z</time>
      </trkpt>
      <trkpt lat="44.37827" lon="5.43811">
        <ele>569.1</ele>
        <time>2019-06-01T14:48:30Z</time>
      </trkpt>
      <trkpt lat="44.37818" lon="5.43808">
        <ele>569.1</ele>
        <time>2019-06-01T14:48:39Z</time>
      </trkpt>
      <trkpt lat="44.37809" lon="5.43801">
        <ele>569</ele>
        <time>2019-06-01T14:48:48Z</time>
      </trkpt>
      <trkpt lat="44.37801" lon="5.43796">
        <ele>568.4</ele>
        <time>2019-06-01T14:49:09Z</time>
      </trkpt>
      <trkpt lat="44.37795" lon="5.43786">
        <ele>566.7</ele>
        <time>2019-06-01T14:49:50Z</time>
      </trkpt>
      <trkpt lat="44.37786" lon="5.43786">
        <ele>567</ele>
        <time>2019-06-01T14:50:10Z</time>
      </trkpt>
      <trkpt lat="44.37776" lon="5.43785">
        <ele>567.5</ele>
        <time>2019-06-01T14:50:38Z</time>
      </trkpt>
      <trkpt lat="44.37766" lon="5.43785">
        <ele>567.5</ele>
        <time>2019-06-01T14:50:46Z</time>
      </trkpt>
      <trkpt lat="44.37756" lon="5.43784">
        <ele>567.4</ele>
        <time>2019-06-01T14:50:54Z</time>
      </trkpt>
      <trkpt lat="44.37746" lon="5.43784">
        <ele>567.1</ele>
        <time>2019-06-01T14:51:03Z</time>
      </trkpt>
      <trkpt lat="44.37737" lon="5.43781">
        <ele>567</ele>
        <time>2019-06-01T14:51:19Z</time>
      </trkpt>
      <trkpt lat="44.37728" lon="5.43778">
        <ele>567.3</ele>
        <time>2019-06-01T14:51:29Z</time>
      </trkpt>
      <trkpt lat="44.3772" lon="5.43772">
        <ele>568.1</ele>
        <time>2019-06-01T14:51:40Z</time>
      </trkpt>
      <trkpt lat="44.37714" lon="5.43762">
        <ele>569</ele>
        <time>2019-06-01T14:51:51Z</time>
      </trkpt>
      <trkpt lat="44.3771" lon="5.43749">
        <ele>570.6</ele>
        <time>2019-06-01T14:52:02Z</time>
      </trkpt>
      <trkpt lat="44.37707" lon="5.43737">
        <ele>573.1</ele>
        <time>2019-06-01T14:52:21Z</time>
      </trkpt>
      <trkpt lat="44.37701" lon="5.43747">
        <ele>575.8</ele>
        <time>2019-06-01T14:53:24Z</time>
      </trkpt>
      <trkpt lat="44.377" lon="5.4376">
        <ele>576.3</ele>
        <time>2019-06-01T14:53:34Z</time>
      </trkpt>
      <trkpt lat="44.37701" lon="5.43774">
        <ele>576.8</ele>
        <time>2019-06-01T14:53:43Z</time>
      </trkpt>
      <trkpt lat="44.37701" lon="5.43787">
        <ele>577</ele>
        <time>2019-06-01T14:53:51Z</time>
      </trkpt>
      <trkpt lat="44.37702" lon="5.43801">
        <ele>577.6</ele>
        <time>2019-06-01T14:53:59Z</time>
      </trkpt>
      <trkpt lat="44.37702" lon="5.43815">
        <ele>578.2</ele>
        <time>2019-06-01T14:54:07Z</time>
      </trkpt>
      <trkpt lat="44.37702" lon="5.43828">
        <ele>578.5</ele>
        <time>2019-06-01T14:54:15Z</time>
      </trkpt>
      <trkpt lat="44.37695" lon="5.43837">
        <ele>579.6</ele>
        <time>2019-06-01T14:54:46Z</time>
      </trkpt>
      <trkpt lat="44.37687" lon="5.43833">
        <ele>580.2</ele>
        <time>2019-06-01T14:55:24Z</time>
      </trkpt>
      <trkpt lat="44.37693" lon="5.43842">
        <ele>580</ele>
        <time>2019-06-01T14:56:39Z</time>
      </trkpt>
      <trkpt lat="44.37692" lon="5.43828">
        <ele>579.9</ele>
        <time>2019-06-01T14:57:29Z</time>
      </trkpt>
      <trkpt lat="44.37692" lon="5.43814">
        <ele>579.9</ele>
        <time>2019-06-01T14:57:37Z</time>
      </trkpt>
      <trkpt lat="44.37692" lon="5.438">
        <ele>579.9</ele>
        <time>2019-06-01T14:57:45Z</time>
      </trkpt>
      <trkpt lat="44.37693" lon="5.43786">
        <ele>579.8</ele>
        <time>2019-06-01T14:57:53Z</time>
      </trkpt>
      <trkpt lat="44.37693" lon="5.43773">
        <ele>579.6</ele>
        <time>2019-06-01T14:58:00Z</time>
      </trkpt>
      <trkpt lat="44.37693" lon="5.4376">
        <ele>579.2</ele>
        <time>2019-06-01T14:58:07Z</time>
      </trkpt>
      <trkpt lat="44.37693" lon="5.43747">
        <ele>578.6</ele>
        <time>2019-06-01T14:58:14Z</time>
      </trkpt>
      <trkpt lat="44.37692" lon="5.43734">
        <ele>577.9</ele>
        <time>2019-06-01T14:58:21Z</time>
      </trkpt>
      <trkpt lat="44.37691" lon="5.43721">
        <ele>577.3</ele>
        <time>2019-06-01T14:58:28Z</time>
      </trkpt>
      <trkpt lat="44.3769" lon="5.43709">
        <ele>576.9</ele>
        <time>2019-06-01T14:58:35Z</time>
      </trkpt>
      <trkpt lat="44.37689" lon="5.43696">
        <ele>576.6</ele>
        <time>2019-06-01T14:58:42Z</time>
      </trkpt>
      <trkpt lat="44.37686" lon="5.43683">
        <ele>576.2</ele>
        <time>2019-06-01T14:58:50Z</time>
      </trkpt>
      <trkpt lat="44.37685" lon="5.43669">
        <ele>575.5</ele>
        <time>2019-06-01T14:58:58Z</time>
      </trkpt>
      <trkpt lat="44.37683" lon="5.43655">
        <ele>574.9</ele>
        <time>2019-06-01T14:59:06Z</time>
      </trkpt>
      <trkpt lat="44.37681" lon="5.43641">
        <ele>574.3</ele>
        <time>2019-06-01T14:59:14Z</time>
      </trkpt>
      <trkpt lat="44.37679" lon="5.43628">
        <ele>573.9</ele>
        <time>2019-06-01T14:59:22Z</time>
      </trkpt>
      <trkpt lat="44.37678" lon="5.43614">
        <ele>573.6</ele>
        <time>2019-06-01T14:59:30Z</time>
      </trkpt>
      <trkpt lat="44.37678" lon="5.436">
        <ele>573.3</ele>
        <time>2019-06-01T14:59:38Z</time>
      </trkpt>
      <trkpt lat="44.37678" lon="5.43586">
        <ele>572.6</ele>
        <time>2019-06-01T14:59:46Z</time>
      </trkpt>
      <trkpt lat="44.37678" lon="5.43573">
        <ele>571.7</ele>
        <time>2019-06-01T14:59:54Z</time>
      </trkpt>
      <trkpt lat="44.37669" lon="5.43567">
        <ele>570.8</ele>
        <time>2019-06-01T15:00:08Z</time>
      </trkpt>
      <trkpt lat="44.3766" lon="5.43563">
        <ele>571.6</ele>
        <time>2019-06-01T15:00:38Z</time>
      </trkpt>
      <trkpt lat="44.37651" lon="5.43563">
        <ele>572.8</ele>
        <time>2019-06-01T15:01:18Z</time>
      </trkpt>
      <trkpt lat="44.37641" lon="5.43564">
        <ele>573.3</ele>
        <time>2019-06-01T15:01:25Z</time>
      </trkpt>
      <trkpt lat="44.37632" lon="5.43566">
        <ele>574.3</ele>
        <time>2019-06-01T15:01:32Z</time>
      </trkpt>
      <trkpt lat="44.37625" lon="5.43575">
        <ele>575.4</ele>
        <time>2019-06-01T15:01:40Z</time>
      </trkpt>
      <trkpt lat="44.37624" lon="5.43588">
        <ele>577</ele>
        <time>2019-06-01T15:01:49Z</time>
      </trkpt>
      <trkpt lat="44.3762" lon="5.436">
        <ele>579.1</ele>
        <time>2019-06-01T15:01:58Z</time>
      </trkpt>
      <trkpt lat="44.3762" lon="5.43614">
        <ele>581.2</ele>
        <time>2019-06-01T15:02:07Z</time>
      </trkpt>
      <trkpt lat="44.37622" lon="5.43627">
        <ele>582.9</ele>
        <time>2019-06-01T15:02:16Z</time>
      </trkpt>
      <trkpt lat="44.37625" lon="5.4364">
        <ele>584.8</ele>
        <time>2019-06-01T15:02:24Z</time>
      </trkpt>
      <trkpt lat="44.37617" lon="5.43647">
        <ele>586.7</ele>
        <time>2019-06-01T15:02:32Z</time>
      </trkpt>
      <trkpt lat="44.37607" lon="5.43647">
        <ele>588.6</ele>
        <time>2019-06-01T15:02:40Z</time>
      </trkpt>
      <trkpt lat="44.37597" lon="5.43644">
        <ele>590.9</ele>
        <time>2019-06-01T15:02:59Z</time>
      </trkpt>
      <trkpt lat="44.37588" lon="5.4364">
        <ele>592.3</ele>
        <time>2019-06-01T15:03:08Z</time>
      </trkpt>
      <trkpt lat="44.37579" lon="5.43641">
        <ele>593.8</ele>
        <time>2019-06-01T15:03:17Z</time>
      </trkpt>
      <trkpt lat="44.37572" lon="5.43631">
        <ele>594.6</ele>
        <time>2019-06-01T15:03:25Z</time>
      </trkpt>
      <trkpt lat="44.37565" lon="5.43621">
        <ele>595.1</ele>
        <time>2019-06-01T15:03:33Z</time>
      </trkpt>
      <trkpt lat="44.37558" lon="5.43613">
        <ele>595.4</ele>
        <time>2019-06-01T15:03:40Z</time>
      </trkpt>
      <trkpt lat="44.37551" lon="5.43604">
        <ele>595.8</ele>
        <time>2019-06-01T15:03:49Z</time>
      </trkpt>
      <trkpt lat="44.37544" lon="5.43594">
        <ele>596.5</ele>
        <time>2019-06-01T15:03:57Z</time>
      </trkpt>
      <trkpt lat="44.37535" lon="5.43588">
        <ele>597.2</ele>
        <time>2019-06-01T15:04:05Z</time>
      </trkpt>
      <trkpt lat="44.37526" lon="5.43584">
        <ele>597.9</ele>
        <time>2019-06-01T15:04:12Z</time>
      </trkpt>
      <trkpt lat="44.37516" lon="5.43583">
        <ele>598.3</ele>
        <time>2019-06-01T15:04:19Z</time>
      </trkpt>
      <trkpt lat="44.37506" lon="5.43585">
        <ele>598.8</ele>
        <time>2019-06-01T15:04:26Z</time>
      </trkpt>
      <trkpt lat="44.37496" lon="5.43586">
        <ele>600.1</ele>
        <time>2019-06-01T15:04:33Z</time>
      </trkpt>
      <trkpt lat="44.37486" lon="5.4359">
        <ele>601.9</ele>
        <time>2019-06-01T15:04:41Z</time>
      </trkpt>
      <trkpt lat="44.37477" lon="5.43592">
        <ele>603.8</ele>
        <time>2019-06-01T15:04:49Z</time>
      </trkpt>
      <trkpt lat="44.37468" lon="5.43595">
        <ele>606.1</ele>
        <time>2019-06-01T15:04:57Z</time>
      </trkpt>
      <trkpt lat="44.37458" lon="5.43599">
        <ele>608</ele>
        <time>2019-06-01T15:05:05Z</time>
      </trkpt>
      <trkpt lat="44.37449" lon="5.43603">
        <ele>609.9</ele>
        <time>2019-06-01T15:05:13Z</time>
      </trkpt>
      <trkpt lat="44.3744" lon="5.43608">
        <ele>611.9</ele>
        <time>2019-06-01T15:05:21Z</time>
      </trkpt>
      <trkpt lat="44.37431" lon="5.43612">
        <ele>613.8</ele>
        <time>2019-06-01T15:05:29Z</time>
      </trkpt>
      <trkpt lat="44.37422" lon="5.43611">
        <ele>615.6</ele>
        <time>2019-06-01T15:05:37Z</time>
      </trkpt>
      <trkpt lat="44.37413" lon="5.43605">
        <ele>617.4</ele>
        <time>2019-06-01T15:05:45Z</time>
      </trkpt>
      <trkpt lat="44.37405" lon="5.43601">
        <ele>618.6</ele>
        <time>2019-06-01T15:05:52Z</time>
      </trkpt>
      <trkpt lat="44.37395" lon="5.43602">
        <ele>619.8</ele>
        <time>2019-06-01T15:06:00Z</time>
      </trkpt>
      <trkpt lat="44.37386" lon="5.43604">
        <ele>621.6</ele>
        <time>2019-06-01T15:06:08Z</time>
      </trkpt>
      <trkpt lat="44.37378" lon="5.43609">
        <ele>623.3</ele>
        <time>2019-06-01T15:06:16Z</time>
      </trkpt>
      <trkpt lat="44.37368" lon="5.43612">
        <ele>624.9</ele>
        <time>2019-06-01T15:06:24Z</time>
      </trkpt>
      <trkpt lat="44.37359" lon="5.43616">
        <ele>626.2</ele>
        <time>2019-06-01T15:06:32Z</time>
      </trkpt>
      <trkpt lat="44.3735" lon="5.43618">
        <ele>627.6</ele>
        <time>2019-06-01T15:06:40Z</time>
      </trkpt>
      <trkpt lat="44.37348" lon="5.43631">
        <ele>628.7</ele>
        <time>2019-06-01T15:06:50Z</time>
      </trkpt>
      <trkpt lat="44.37352" lon="5.43641">
        <ele>629.9</ele>
        <time>2019-06-01T15:06:58Z</time>
      </trkpt>
      <trkpt lat="44.37361" lon="5.43648">
        <ele>631.4</ele>
        <time>2019-06-01T15:07:05Z</time>
      </trkpt>
      <trkpt lat="44.37369" lon="5.43656">
        <ele>632.4</ele>
        <time>2019-06-01T15:07:13Z</time>
      </trkpt>
      <trkpt lat="44.37377" lon="5.43662">
        <ele>632.9</ele>
        <time>2019-06-01T15:07:20Z</time>
      </trkpt>
      <trkpt lat="44.37385" lon="5.4367">
        <ele>633</ele>
        <time>2019-06-01T15:07:27Z</time>
      </trkpt>
      <trkpt lat="44.37391" lon="5.43679">
        <ele>633.3</ele>
        <time>2019-06-01T15:07:34Z</time>
      </trkpt>
      <trkpt lat="44.37398" lon="5.43688">
        <ele>633.5</ele>
        <time>2019-06-01T15:07:42Z</time>
      </trkpt>
      <trkpt lat="44.37405" lon="5.43696">
        <ele>633.4</ele>
        <time>2019-06-01T15:07:50Z</time>
      </trkpt>
      <trkpt lat="44.37413" lon="5.43705">
        <ele>633.2</ele>
        <time>2019-06-01T15:07:58Z</time>
      </trkpt>
      <trkpt lat="44.37419" lon="5.43715">
        <ele>632.3</ele>
        <time>2019-06-01T15:08:06Z</time>
      </trkpt>
      <trkpt lat="44.37425" lon="5.43726">
        <ele>630.9</ele>
        <time>2019-06-01T15:08:14Z</time>
      </trkpt>
      <trkpt lat="44.37432" lon="5.43737">
        <ele>630</ele>
        <time>2019-06-01T15:08:22Z</time>
      </trkpt>
      <trkpt lat="44.37437" lon="5.43747">
        <ele>629</ele>
        <time>2019-06-01T15:08:29Z</time>
      </trkpt>
      <trkpt lat="44.37443" lon="5.43758">
        <ele>628.1</ele>
        <time>2019-06-01T15:08:37Z</time>
      </trkpt>
      <trkpt lat="44.37448" lon="5.4377">
        <ele>627.7</ele>
        <time>2019-06-01T15:08:45Z</time>
      </trkpt>
      <trkpt lat="44.37452" lon="5.43782">
        <ele>627.5</ele>
        <time>2019-06-01T15:08:52Z</time>
      </trkpt>
      <trkpt lat="44.37457" lon="5.43793">
        <ele>627.8</ele>
        <time>2019-06-01T15:08:59Z</time>
      </trkpt>
      <trkpt lat="44.37463" lon="5.43802">
        <ele>628</ele>
        <time>2019-06-01T15:09:05Z</time>
      </trkpt>
      <trkpt lat="44.37468" lon="5.43813">
        <ele>628.2</ele>
        <time>2019-06-01T15:09:11Z</time>
      </trkpt>
      <trkpt lat="44.37469" lon="5.43827">
        <ele>628</ele>
        <time>2019-06-01T15:09:19Z</time>
      </trkpt>
      <trkpt lat="44.37463" lon="5.43837">
        <ele>628.5</ele>
        <time>2019-06-01T15:09:27Z</time>
      </trkpt>
      <trkpt lat="44.37457" lon="5.43846">
        <ele>629.8</ele>
        <time>2019-06-01T15:09:35Z</time>
      </trkpt>
      <trkpt lat="44.3745" lon="5.43856">
        <ele>630.9</ele>
        <time>2019-06-01T15:09:42Z</time>
      </trkpt>
      <trkpt lat="44.37448" lon="5.43869">
        <ele>632.7</ele>
        <time>2019-06-01T15:09:52Z</time>
      </trkpt>
      <trkpt lat="44.37444" lon="5.43881">
        <ele>634.4</ele>
        <time>2019-06-01T15:10:02Z</time>
      </trkpt>
      <trkpt lat="44.37441" lon="5.43893">
        <ele>636.8</ele>
        <time>2019-06-01T15:10:15Z</time>
      </trkpt>
      <trkpt lat="44.37443" lon="5.43905">
        <ele>638.1</ele>
        <time>2019-06-01T15:10:30Z</time>
      </trkpt>
      <trkpt lat="44.37449" lon="5.43915">
        <ele>638</ele>
        <time>2019-06-01T15:10:43Z</time>
      </trkpt>
      <trkpt lat="44.37455" lon="5.43927">
        <ele>637.2</ele>
        <time>2019-06-01T15:10:51Z</time>
      </trkpt>
      <trkpt lat="44.37461" lon="5.43937">
        <ele>636.8</ele>
        <time>2019-06-01T15:10:58Z</time>
      </trkpt>
      <trkpt lat="44.37468" lon="5.43946">
        <ele>636.6</ele>
        <time>2019-06-01T15:11:05Z</time>
      </trkpt>
      <trkpt lat="44.37475" lon="5.43955">
        <ele>636.4</ele>
        <time>2019-06-01T15:11:12Z</time>
      </trkpt>
      <trkpt lat="44.37483" lon="5.43964">
        <ele>636</ele>
        <time>2019-06-01T15:11:20Z</time>
      </trkpt>
      <trkpt lat="44.37491" lon="5.43972">
        <ele>635.2</ele>
        <time>2019-06-01T15:11:28Z</time>
      </trkpt>
      <trkpt lat="44.37497" lon="5.43982">
        <ele>634.3</ele>
        <time>2019-06-01T15:11:36Z</time>
      </trkpt>
      <trkpt lat="44.37503" lon="5.43992">
        <ele>633.7</ele>
        <time>2019-06-01T15:11:44Z</time>
      </trkpt>
      <trkpt lat="44.37509" lon="5.44004">
        <ele>633.1</ele>
        <time>2019-06-01T15:11:52Z</time>
      </trkpt>
      <trkpt lat="44.37514" lon="5.44016">
        <ele>632.4</ele>
        <time>2019-06-01T15:11:59Z</time>
      </trkpt>
      <trkpt lat="44.37517" lon="5.44028">
        <ele>631.9</ele>
        <time>2019-06-01T15:12:06Z</time>
      </trkpt>
      <trkpt lat="44.37519" lon="5.4404">
        <ele>631.7</ele>
        <time>2019-06-01T15:12:13Z</time>
      </trkpt>
      <trkpt lat="44.37523" lon="5.44053">
        <ele>631.7</ele>
        <time>2019-06-01T15:12:20Z</time>
      </trkpt>
      <trkpt lat="44.37526" lon="5.44066">
        <ele>631.7</ele>
        <time>2019-06-01T15:12:28Z</time>
      </trkpt>
      <trkpt lat="44.3753" lon="5.44078">
        <ele>631.7</ele>
        <time>2019-06-01T15:12:35Z</time>
      </trkpt>
      <trkpt lat="44.37534" lon="5.44091">
        <ele>631.8</ele>
        <time>2019-06-01T15:12:43Z</time>
      </trkpt>
      <trkpt lat="44.37538" lon="5.44103">
        <ele>631.8</ele>
        <time>2019-06-01T15:12:52Z</time>
      </trkpt>
      <trkpt lat="44.37541" lon="5.44115">
        <ele>631.9</ele>
        <time>2019-06-01T15:12:59Z</time>
      </trkpt>
      <trkpt lat="44.37545" lon="5.44128">
        <ele>632.1</ele>
        <time>2019-06-01T15:13:06Z</time>
      </trkpt>
      <trkpt lat="44.37549" lon="5.4414">
        <ele>632.8</ele>
        <time>2019-06-01T15:13:13Z</time>
      </trkpt>
      <trkpt lat="44.37553" lon="5.44153">
        <ele>633.4</ele>
        <time>2019-06-01T15:13:20Z</time>
      </trkpt>
      <trkpt lat="44.37558" lon="5.44164">
        <ele>633.8</ele>
        <time>2019-06-01T15:13:26Z</time>
      </trkpt>
      <trkpt lat="44.37561" lon="5.44176">
        <ele>634</ele>
        <time>2019-06-01T15:13:33Z</time>
      </trkpt>
      <trkpt lat="44.37565" lon="5.44188">
        <ele>634.3</ele>
        <time>2019-06-01T15:13:39Z</time>
      </trkpt>
      <trkpt lat="44.37568" lon="5.44202">
        <ele>634.2</ele>
        <time>2019-06-01T15:13:46Z</time>
      </trkpt>
      <trkpt lat="44.37572" lon="5.44215">
        <ele>634.3</ele>
        <time>2019-06-01T15:13:53Z</time>
      </trkpt>
      <trkpt lat="44.37574" lon="5.44227">
        <ele>634.5</ele>
        <time>2019-06-01T15:14:00Z</time>
      </trkpt>
      <trkpt lat="44.37576" lon="5.4424">
        <ele>634.8</ele>
        <time>2019-06-01T15:14:07Z</time>
      </trkpt>
      <trkpt lat="44.37578" lon="5.44253">
        <ele>635.1</ele>
        <time>2019-06-01T15:14:14Z</time>
      </trkpt>
      <trkpt lat="44.37578" lon="5.44266">
        <ele>635.6</ele>
        <time>2019-06-01T15:14:21Z</time>
      </trkpt>
      <trkpt lat="44.37581" lon="5.44279">
        <ele>636.4</ele>
        <time>2019-06-01T15:14:28Z</time>
      </trkpt>
      <trkpt lat="44.37584" lon="5.44291">
        <ele>637.4</ele>
        <time>2019-06-01T15:14:35Z</time>
      </trkpt>
      <trkpt lat="44.37586" lon="5.44304">
        <ele>638.6</ele>
        <time>2019-06-01T15:14:43Z</time>
      </trkpt>
      <trkpt lat="44.37587" lon="5.44318">
        <ele>639.3</ele>
        <time>2019-06-01T15:14:52Z</time>
      </trkpt>
      <trkpt lat="44.37588" lon="5.44332">
        <ele>638.8</ele>
        <time>2019-06-01T15:14:59Z</time>
      </trkpt>
      <trkpt lat="44.37587" lon="5.44344">
        <ele>638.1</ele>
        <time>2019-06-01T15:15:06Z</time>
      </trkpt>
      <trkpt lat="44.37589" lon="5.44358">
        <ele>637.6</ele>
        <time>2019-06-01T15:15:13Z</time>
      </trkpt>
      <trkpt lat="44.37592" lon="5.44371">
        <ele>637.3</ele>
        <time>2019-06-01T15:15:20Z</time>
      </trkpt>
      <trkpt lat="44.37596" lon="5.44385">
        <ele>637.3</ele>
        <time>2019-06-01T15:15:27Z</time>
      </trkpt>
      <trkpt lat="44.37599" lon="5.44397">
        <ele>637.3</ele>
        <time>2019-06-01T15:15:33Z</time>
      </trkpt>
      <trkpt lat="44.37602" lon="5.4441">
        <ele>637.7</ele>
        <time>2019-06-01T15:15:40Z</time>
      </trkpt>
      <trkpt lat="44.37605" lon="5.44422">
        <ele>637.8</ele>
        <time>2019-06-01T15:15:47Z</time>
      </trkpt>
      <trkpt lat="44.37607" lon="5.44436">
        <ele>637.2</ele>
        <time>2019-06-01T15:15:56Z</time>
      </trkpt>
      <trkpt lat="44.3761" lon="5.44449">
        <ele>636.3</ele>
        <time>2019-06-01T15:16:04Z</time>
      </trkpt>
      <trkpt lat="44.37613" lon="5.44462">
        <ele>635.5</ele>
        <time>2019-06-01T15:16:12Z</time>
      </trkpt>
      <trkpt lat="44.37617" lon="5.44475">
        <ele>634.5</ele>
        <time>2019-06-01T15:16:19Z</time>
      </trkpt>
      <trkpt lat="44.37621" lon="5.44487">
        <ele>633.7</ele>
        <time>2019-06-01T15:16:25Z</time>
      </trkpt>
      <trkpt lat="44.37625" lon="5.44499">
        <ele>633.1</ele>
        <time>2019-06-01T15:16:31Z</time>
      </trkpt>
      <trkpt lat="44.37628" lon="5.44512">
        <ele>632.4</ele>
        <time>2019-06-01T15:16:38Z</time>
      </trkpt>
      <trkpt lat="44.3763" lon="5.44526">
        <ele>631.9</ele>
        <time>2019-06-01T15:16:46Z</time>
      </trkpt>
      <trkpt lat="44.37635" lon="5.44538">
        <ele>631.5</ele>
        <time>2019-06-01T15:16:53Z</time>
      </trkpt>
      <trkpt lat="44.37641" lon="5.4455">
        <ele>631.2</ele>
        <time>2019-06-01T15:17:00Z</time>
      </trkpt>
      <trkpt lat="44.37645" lon="5.44561">
        <ele>631.1</ele>
        <time>2019-06-01T15:17:06Z</time>
      </trkpt>
      <trkpt lat="44.3765" lon="5.44574">
        <ele>630.8</ele>
        <time>2019-06-01T15:17:13Z</time>
      </trkpt>
      <trkpt lat="44.37653" lon="5.44586">
        <ele>630.2</ele>
        <time>2019-06-01T15:17:19Z</time>
      </trkpt>
      <trkpt lat="44.37658" lon="5.44598">
        <ele>629.7</ele>
        <time>2019-06-01T15:17:26Z</time>
      </trkpt>
      <trkpt lat="44.37664" lon="5.44608">
        <ele>629.4</ele>
        <time>2019-06-01T15:17:33Z</time>
      </trkpt>
      <trkpt lat="44.37673" lon="5.44617">
        <ele>629.2</ele>
        <time>2019-06-01T15:17:40Z</time>
      </trkpt>
      <trkpt lat="44.3768" lon="5.44626">
        <ele>629.1</ele>
        <time>2019-06-01T15:17:47Z</time>
      </trkpt>
      <trkpt lat="44.37688" lon="5.44634">
        <ele>629.4</ele>
        <time>2019-06-01T15:17:54Z</time>
      </trkpt>
      <trkpt lat="44.37694" lon="5.44644">
        <ele>629.9</ele>
        <time>2019-06-01T15:18:01Z</time>
      </trkpt>
      <trkpt lat="44.37697" lon="5.44656">
        <ele>629.8</ele>
        <time>2019-06-01T15:18:08Z</time>
      </trkpt>
      <trkpt lat="44.37698" lon="5.4467">
        <ele>629.1</ele>
        <time>2019-06-01T15:18:16Z</time>
      </trkpt>
      <trkpt lat="44.37707" lon="5.44676">
        <ele>628.9</ele>
        <time>2019-06-01T15:18:24Z</time>
      </trkpt>
      <trkpt lat="44.37716" lon="5.44681">
        <ele>628.7</ele>
        <time>2019-06-01T15:18:31Z</time>
      </trkpt>
      <trkpt lat="44.37721" lon="5.44692">
        <ele>628.8</ele>
        <time>2019-06-01T15:18:38Z</time>
      </trkpt>
      <trkpt lat="44.37727" lon="5.44703">
        <ele>629.1</ele>
        <time>2019-06-01T15:18:45Z</time>
      </trkpt>
      <trkpt lat="44.37732" lon="5.44715">
        <ele>629.4</ele>
        <time>2019-06-01T15:18:52Z</time>
      </trkpt>
      <trkpt lat="44.37736" lon="5.44728">
        <ele>629.6</ele>
        <time>2019-06-01T15:18:59Z</time>
      </trkpt>
      <trkpt lat="44.37739" lon="5.44739">
        <ele>629.7</ele>
        <time>2019-06-01T15:19:06Z</time>
      </trkpt>
      <trkpt lat="44.37743" lon="5.44752">
        <ele>629.7</ele>
        <time>2019-06-01T15:19:13Z</time>
      </trkpt>
      <trkpt lat="44.37747" lon="5.44764">
        <ele>629.9</ele>
        <time>2019-06-01T15:19:20Z</time>
      </trkpt>
      <trkpt lat="44.37752" lon="5.44775">
        <ele>630.2</ele>
        <time>2019-06-01T15:19:27Z</time>
      </trkpt>
      <trkpt lat="44.37758" lon="5.44787">
        <ele>630.4</ele>
        <time>2019-06-01T15:19:34Z</time>
      </trkpt>
      <trkpt lat="44.37764" lon="5.44797">
        <ele>630.7</ele>
        <time>2019-06-01T15:19:41Z</time>
      </trkpt>
      <trkpt lat="44.3777" lon="5.44809">
        <ele>630.8</ele>
        <time>2019-06-01T15:19:48Z</time>
      </trkpt>
      <trkpt lat="44.37774" lon="5.44821">
        <ele>631.2</ele>
        <time>2019-06-01T15:19:55Z</time>
      </trkpt>
      <trkpt lat="44.37778" lon="5.44833">
        <ele>631.7</ele>
        <time>2019-06-01T15:20:02Z</time>
      </trkpt>
      <trkpt lat="44.37782" lon="5.44845">
        <ele>632.2</ele>
        <time>2019-06-01T15:20:09Z</time>
      </trkpt>
      <trkpt lat="44.37785" lon="5.44857">
        <ele>632.4</ele>
        <time>2019-06-01T15:20:16Z</time>
      </trkpt>
      <trkpt lat="44.37785" lon="5.44871">
        <ele>632.4</ele>
        <time>2019-06-01T15:20:23Z</time>
      </trkpt>
      <trkpt lat="44.37785" lon="5.44884">
        <ele>632.5</ele>
        <time>2019-06-01T15:20:30Z</time>
      </trkpt>
      <trkpt lat="44.37784" lon="5.44899">
        <ele>632.3</ele>
        <time>2019-06-01T15:20:37Z</time>
      </trkpt>
      <trkpt lat="44.37783" lon="5.44913">
        <ele>632.2</ele>
        <time>2019-06-01T15:20:45Z</time>
      </trkpt>
      <trkpt lat="44.37783" lon="5.44926">
        <ele>631.6</ele>
        <time>2019-06-01T15:20:53Z</time>
      </trkpt>
      <trkpt lat="44.37781" lon="5.4494">
        <ele>630.7</ele>
        <time>2019-06-01T15:21:00Z</time>
      </trkpt>
      <trkpt lat="44.37778" lon="5.44952">
        <ele>630.1</ele>
        <time>2019-06-01T15:21:05Z</time>
      </trkpt>
      <trkpt lat="44.37776" lon="5.44967">
        <ele>629.3</ele>
        <time>2019-06-01T15:21:12Z</time>
      </trkpt>
      <trkpt lat="44.37775" lon="5.44979">
        <ele>628.7</ele>
        <time>2019-06-01T15:21:19Z</time>
      </trkpt>
      <trkpt lat="44.37774" lon="5.44993">
        <ele>628</ele>
        <time>2019-06-01T15:21:26Z</time>
      </trkpt>
      <trkpt lat="44.37777" lon="5.45006">
        <ele>627.5</ele>
        <time>2019-06-01T15:21:33Z</time>
      </trkpt>
      <trkpt lat="44.37785" lon="5.45014">
        <ele>627.3</ele>
        <time>2019-06-01T15:21:39Z</time>
      </trkpt>
      <trkpt lat="44.37792" lon="5.45023">
        <ele>627.1</ele>
        <time>2019-06-01T15:21:46Z</time>
      </trkpt>
      <trkpt lat="44.37799" lon="5.45032">
        <ele>626.9</ele>
        <time>2019-06-01T15:21:52Z</time>
      </trkpt>
      <trkpt lat="44.37807" lon="5.45041">
        <ele>626.6</ele>
        <time>2019-06-01T15:21:59Z</time>
      </trkpt>
      <trkpt lat="44.37812" lon="5.45052">
        <ele>626.1</ele>
        <time>2019-06-01T15:22:06Z</time>
      </trkpt>
      <trkpt lat="44.37818" lon="5.45064">
        <ele>625.6</ele>
        <time>2019-06-01T15:22:13Z</time>
      </trkpt>
      <trkpt lat="44.3782" lon="5.45078">
        <ele>625.3</ele>
        <time>2019-06-01T15:22:20Z</time>
      </trkpt>
      <trkpt lat="44.3782" lon="5.45091">
        <ele>625.2</ele>
        <time>2019-06-01T15:22:26Z</time>
      </trkpt>
      <trkpt lat="44.37819" lon="5.45105">
        <ele>624.9</ele>
        <time>2019-06-01T15:22:34Z</time>
      </trkpt>
      <trkpt lat="44.37816" lon="5.45118">
        <ele>624.5</ele>
        <time>2019-06-01T15:22:43Z</time>
      </trkpt>
      <trkpt lat="44.37815" lon="5.4513">
        <ele>623.8</ele>
        <time>2019-06-01T15:22:52Z</time>
      </trkpt>
      <trkpt lat="44.3781" lon="5.45142">
        <ele>622.9</ele>
        <time>2019-06-01T15:23:00Z</time>
      </trkpt>
      <trkpt lat="44.37801" lon="5.45148">
        <ele>622.1</ele>
        <time>2019-06-01T15:23:07Z</time>
      </trkpt>
      <trkpt lat="44.37793" lon="5.45155">
        <ele>621.3</ele>
        <time>2019-06-01T15:23:15Z</time>
      </trkpt>
      <trkpt lat="44.37783" lon="5.45159">
        <ele>619.9</ele>
        <time>2019-06-01T15:23:22Z</time>
      </trkpt>
      <trkpt lat="44.37773" lon="5.45162">
        <ele>618.8</ele>
        <time>2019-06-01T15:23:29Z</time>
      </trkpt>
      <trkpt lat="44.37764" lon="5.45167">
        <ele>617.7</ele>
        <time>2019-06-01T15:23:37Z</time>
      </trkpt>
      <trkpt lat="44.37754" lon="5.45169">
        <ele>616.8</ele>
        <time>2019-06-01T15:23:44Z</time>
      </trkpt>
      <trkpt lat="44.37745" lon="5.45172">
        <ele>616.1</ele>
        <time>2019-06-01T15:23:50Z</time>
      </trkpt>
      <trkpt lat="44.37736" lon="5.45176">
        <ele>615.2</ele>
        <time>2019-06-01T15:23:56Z</time>
      </trkpt>
      <trkpt lat="44.37727" lon="5.45181">
        <ele>614.3</ele>
        <time>2019-06-01T15:24:03Z</time>
      </trkpt>
      <trkpt lat="44.37719" lon="5.45188">
        <ele>613.3</ele>
        <time>2019-06-01T15:24:13Z</time>
      </trkpt>
      <trkpt lat="44.3771" lon="5.45195">
        <ele>612.3</ele>
        <time>2019-06-01T15:24:22Z</time>
      </trkpt>
      <trkpt lat="44.37704" lon="5.45205">
        <ele>610.8</ele>
        <time>2019-06-01T15:24:31Z</time>
      </trkpt>
      <trkpt lat="44.37702" lon="5.45219">
        <ele>609.5</ele>
        <time>2019-06-01T15:24:39Z</time>
      </trkpt>
      <trkpt lat="44.37705" lon="5.45232">
        <ele>608.7</ele>
        <time>2019-06-01T15:24:45Z</time>
      </trkpt>
      <trkpt lat="44.37708" lon="5.45245">
        <ele>607.4</ele>
        <time>2019-06-01T15:24:52Z</time>
      </trkpt>
      <trkpt lat="44.37712" lon="5.45257">
        <ele>606.8</ele>
        <time>2019-06-01T15:24:59Z</time>
      </trkpt>
      <trkpt lat="44.37716" lon="5.4527">
        <ele>606.4</ele>
        <time>2019-06-01T15:25:06Z</time>
      </trkpt>
      <trkpt lat="44.3772" lon="5.45283">
        <ele>606.2</ele>
        <time>2019-06-01T15:25:13Z</time>
      </trkpt>
      <trkpt lat="44.37724" lon="5.45295">
        <ele>606</ele>
        <time>2019-06-01T15:25:20Z</time>
      </trkpt>
      <trkpt lat="44.37726" lon="5.45311">
        <ele>606</ele>
        <time>2019-06-01T15:25:28Z</time>
      </trkpt>
      <trkpt lat="44.37717" lon="5.45315">
        <ele>606</ele>
        <time>2019-06-01T15:25:38Z</time>
      </trkpt>
      <trkpt lat="44.37708" lon="5.45314">
        <ele>605.6</ele>
        <time>2019-06-01T15:25:46Z</time>
      </trkpt>
      <trkpt lat="44.37699" lon="5.45316">
        <ele>605.3</ele>
        <time>2019-06-01T15:25:55Z</time>
      </trkpt>
      <trkpt lat="44.3769" lon="5.45321">
        <ele>605.1</ele>
        <time>2019-06-01T15:26:02Z</time>
      </trkpt>
      <trkpt lat="44.37681" lon="5.45328">
        <ele>604.4</ele>
        <time>2019-06-01T15:26:09Z</time>
      </trkpt>
      <trkpt lat="44.37673" lon="5.45337">
        <ele>603.8</ele>
        <time>2019-06-01T15:26:15Z</time>
      </trkpt>
      <trkpt lat="44.37665" lon="5.45344">
        <ele>603.3</ele>
        <time>2019-06-01T15:26:21Z</time>
      </trkpt>
      <trkpt lat="44.37657" lon="5.4535">
        <ele>602.9</ele>
        <time>2019-06-01T15:26:27Z</time>
      </trkpt>
      <trkpt lat="44.37649" lon="5.45358">
        <ele>602.5</ele>
        <time>2019-06-01T15:26:34Z</time>
      </trkpt>
      <trkpt lat="44.3764" lon="5.45362">
        <ele>602.2</ele>
        <time>2019-06-01T15:26:40Z</time>
      </trkpt>
      <trkpt lat="44.37632" lon="5.45368">
        <ele>601.8</ele>
        <time>2019-06-01T15:26:47Z</time>
      </trkpt>
      <trkpt lat="44.3763" lon="5.4538">
        <ele>600.6</ele>
        <time>2019-06-01T15:27:06Z</time>
      </trkpt>
      <trkpt lat="44.37623" lon="5.4539">
        <ele>600.2</ele>
        <time>2019-06-01T15:27:17Z</time>
      </trkpt>
      <trkpt lat="44.37618" lon="5.45401">
        <ele>600.2</ele>
        <time>2019-06-01T15:27:26Z</time>
      </trkpt>
      <trkpt lat="44.37612" lon="5.45413">
        <ele>600.1</ele>
        <time>2019-06-01T15:27:32Z</time>
      </trkpt>
      <trkpt lat="44.37607" lon="5.45424">
        <ele>599.8</ele>
        <time>2019-06-01T15:27:37Z</time>
      </trkpt>
      <trkpt lat="44.37601" lon="5.45436">
        <ele>599.5</ele>
        <time>2019-06-01T15:27:43Z</time>
      </trkpt>
      <trkpt lat="44.37595" lon="5.45448">
        <ele>599.3</ele>
        <time>2019-06-01T15:27:49Z</time>
      </trkpt>
      <trkpt lat="44.37589" lon="5.45459">
        <ele>599.1</ele>
        <time>2019-06-01T15:27:55Z</time>
      </trkpt>
      <trkpt lat="44.37582" lon="5.4547">
        <ele>598.7</ele>
        <time>2019-06-01T15:28:01Z</time>
      </trkpt>
      <trkpt lat="44.37576" lon="5.4548">
        <ele>598.1</ele>
        <time>2019-06-01T15:28:07Z</time>
      </trkpt>
      <trkpt lat="44.3757" lon="5.4549">
        <ele>597.8</ele>
        <time>2019-06-01T15:28:13Z</time>
      </trkpt>
      <trkpt lat="44.37563" lon="5.455">
        <ele>597.7</ele>
        <time>2019-06-01T15:28:20Z</time>
      </trkpt>
      <trkpt lat="44.37557" lon="5.45511">
        <ele>597.6</ele>
        <time>2019-06-01T15:28:27Z</time>
      </trkpt>
      <trkpt lat="44.37551" lon="5.45521">
        <ele>597.6</ele>
        <time>2019-06-01T15:28:33Z</time>
      </trkpt>
      <trkpt lat="44.37545" lon="5.45533">
        <ele>597.6</ele>
        <time>2019-06-01T15:28:40Z</time>
      </trkpt>
      <trkpt lat="44.37541" lon="5.45544">
        <ele>597.8</ele>
        <time>2019-06-01T15:28:47Z</time>
      </trkpt>
      <trkpt lat="44.37532" lon="5.45551">
        <ele>597.9</ele>
        <time>2019-06-01T15:28:55Z</time>
      </trkpt>
      <trkpt lat="44.37523" lon="5.45549">
        <ele>597.3</ele>
        <time>2019-06-01T15:29:02Z</time>
      </trkpt>
      <trkpt lat="44.37514" lon="5.45546">
        <ele>596.8</ele>
        <time>2019-06-01T15:29:09Z</time>
      </trkpt>
      <trkpt lat="44.37504" lon="5.45544">
        <ele>596.4</ele>
        <time>2019-06-01T15:29:16Z</time>
      </trkpt>
      <trkpt lat="44.37494" lon="5.45544">
        <ele>595.8</ele>
        <time>2019-06-01T15:29:23Z</time>
      </trkpt>
      <trkpt lat="44.37484" lon="5.45549">
        <ele>594.9</ele>
        <time>2019-06-01T15:29:30Z</time>
      </trkpt>
      <trkpt lat="44.37475" lon="5.45556">
        <ele>594.3</ele>
        <time>2019-06-01T15:29:37Z</time>
      </trkpt>
      <trkpt lat="44.37469" lon="5.45565">
        <ele>593.8</ele>
        <time>2019-06-01T15:29:43Z</time>
      </trkpt>
      <trkpt lat="44.37463" lon="5.45576">
        <ele>593.4</ele>
        <time>2019-06-01T15:29:50Z</time>
      </trkpt>
      <trkpt lat="44.37458" lon="5.45587">
        <ele>593.1</ele>
        <time>2019-06-01T15:29:56Z</time>
      </trkpt>
      <trkpt lat="44.37453" lon="5.456">
        <ele>592.6</ele>
        <time>2019-06-01T15:30:03Z</time>
      </trkpt>
      <trkpt lat="44.37449" lon="5.45613">
        <ele>592.4</ele>
        <time>2019-06-01T15:30:10Z</time>
      </trkpt>
      <trkpt lat="44.37445" lon="5.45626">
        <ele>592</ele>
        <time>2019-06-01T15:30:17Z</time>
      </trkpt>
      <trkpt lat="44.37442" lon="5.45639">
        <ele>591.8</ele>
        <time>2019-06-01T15:30:23Z</time>
      </trkpt>
      <trkpt lat="44.37438" lon="5.45652">
        <ele>591.5</ele>
        <time>2019-06-01T15:30:30Z</time>
      </trkpt>
      <trkpt lat="44.37435" lon="5.45665">
        <ele>591.3</ele>
        <time>2019-06-01T15:30:37Z</time>
      </trkpt>
      <trkpt lat="44.3743" lon="5.45677">
        <ele>591.2</ele>
        <time>2019-06-01T15:30:44Z</time>
      </trkpt>
      <trkpt lat="44.37426" lon="5.4569">
        <ele>591.2</ele>
        <time>2019-06-01T15:30:51Z</time>
      </trkpt>
      <trkpt lat="44.37421" lon="5.45702">
        <ele>591.1</ele>
        <time>2019-06-01T15:30:58Z</time>
      </trkpt>
      <trkpt lat="44.37417" lon="5.45714">
        <ele>591.1</ele>
        <time>2019-06-01T15:31:05Z</time>
      </trkpt>
      <trkpt lat="44.3741" lon="5.45725">
        <ele>590.7</ele>
        <time>2019-06-01T15:31:12Z</time>
      </trkpt>
      <trkpt lat="44.37403" lon="5.45736">
        <ele>590.5</ele>
        <time>2019-06-01T15:31:19Z</time>
      </trkpt>
      <trkpt lat="44.37397" lon="5.45745">
        <ele>590.4</ele>
        <time>2019-06-01T15:31:25Z</time>
      </trkpt>
      <trkpt lat="44.37389" lon="5.45754">
        <ele>590.4</ele>
        <time>2019-06-01T15:31:31Z</time>
      </trkpt>
      <trkpt lat="44.37381" lon="5.45761">
        <ele>590.3</ele>
        <time>2019-06-01T15:31:38Z</time>
      </trkpt>
      <trkpt lat="44.37372" lon="5.45767">
        <ele>590.1</ele>
        <time>2019-06-01T15:31:45Z</time>
      </trkpt>
      <trkpt lat="44.37362" lon="5.45771">
        <ele>590.1</ele>
        <time>2019-06-01T15:31:52Z</time>
      </trkpt>
      <trkpt lat="44.37353" lon="5.45774">
        <ele>590.6</ele>
        <time>2019-06-01T15:31:59Z</time>
      </trkpt>
      <trkpt lat="44.37344" lon="5.45778">
        <ele>590.8</ele>
        <time>2019-06-01T15:32:06Z</time>
      </trkpt>
      <trkpt lat="44.37335" lon="5.45783">
        <ele>590.8</ele>
        <time>2019-06-01T15:32:13Z</time>
      </trkpt>
      <trkpt lat="44.37327" lon="5.45789">
        <ele>591.1</ele>
        <time>2019-06-01T15:32:20Z</time>
      </trkpt>
      <trkpt lat="44.37319" lon="5.45796">
        <ele>591.4</ele>
        <time>2019-06-01T15:32:27Z</time>
      </trkpt>
      <trkpt lat="44.37316" lon="5.45808">
        <ele>591.3</ele>
        <time>2019-06-01T15:32:36Z</time>
      </trkpt>
      <trkpt lat="44.37322" lon="5.45818">
        <ele>591.3</ele>
        <time>2019-06-01T15:32:43Z</time>
      </trkpt>
      <trkpt lat="44.3733" lon="5.45824">
        <ele>592</ele>
        <time>2019-06-01T15:32:50Z</time>
      </trkpt>
      <trkpt lat="44.37339" lon="5.4583">
        <ele>592.6</ele>
        <time>2019-06-01T15:32:57Z</time>
      </trkpt>
      <trkpt lat="44.37347" lon="5.45835">
        <ele>593.2</ele>
        <time>2019-06-01T15:33:04Z</time>
      </trkpt>
      <trkpt lat="44.37356" lon="5.4584">
        <ele>593.9</ele>
        <time>2019-06-01T15:33:11Z</time>
      </trkpt>
      <trkpt lat="44.37365" lon="5.45844">
        <ele>594.7</ele>
        <time>2019-06-01T15:33:18Z</time>
      </trkpt>
      <trkpt lat="44.37373" lon="5.45847">
        <ele>595.2</ele>
        <time>2019-06-01T15:33:24Z</time>
      </trkpt>
      <trkpt lat="44.37383" lon="5.4585">
        <ele>595.6</ele>
        <time>2019-06-01T15:33:31Z</time>
      </trkpt>
      <trkpt lat="44.37391" lon="5.45854">
        <ele>595.9</ele>
        <time>2019-06-01T15:33:38Z</time>
      </trkpt>
      <trkpt lat="44.37401" lon="5.45858">
        <ele>596.5</ele>
        <time>2019-06-01T15:33:45Z</time>
      </trkpt>
      <trkpt lat="44.3741" lon="5.45863">
        <ele>597.3</ele>
        <time>2019-06-01T15:33:52Z</time>
      </trkpt>
      <trkpt lat="44.37419" lon="5.4587">
        <ele>598</ele>
        <time>2019-06-01T15:33:59Z</time>
      </trkpt>
      <trkpt lat="44.37428" lon="5.45875">
        <ele>598.8</ele>
        <time>2019-06-01T15:34:05Z</time>
      </trkpt>
      <trkpt lat="44.37435" lon="5.45883">
        <ele>599.5</ele>
        <time>2019-06-01T15:34:11Z</time>
      </trkpt>
      <trkpt lat="44.37444" lon="5.45891">
        <ele>600</ele>
        <time>2019-06-01T15:34:17Z</time>
      </trkpt>
      <trkpt lat="44.37451" lon="5.45898">
        <ele>600.4</ele>
        <time>2019-06-01T15:34:23Z</time>
      </trkpt>
      <trkpt lat="44.3746" lon="5.45906">
        <ele>601</ele>
        <time>2019-06-01T15:34:30Z</time>
      </trkpt>
      <trkpt lat="44.37468" lon="5.45912">
        <ele>601.5</ele>
        <time>2019-06-01T15:34:36Z</time>
      </trkpt>
      <trkpt lat="44.37476" lon="5.45921">
        <ele>602.4</ele>
        <time>2019-06-01T15:34:44Z</time>
      </trkpt>
      <trkpt lat="44.37483" lon="5.45929">
        <ele>602.9</ele>
        <time>2019-06-01T15:34:50Z</time>
      </trkpt>
      <trkpt lat="44.37491" lon="5.45937">
        <ele>603.3</ele>
        <time>2019-06-01T15:34:57Z</time>
      </trkpt>
      <trkpt lat="44.37498" lon="5.45945">
        <ele>603.6</ele>
        <time>2019-06-01T15:35:03Z</time>
      </trkpt>
      <trkpt lat="44.37507" lon="5.45952">
        <ele>603.8</ele>
        <time>2019-06-01T15:35:10Z</time>
      </trkpt>
      <trkpt lat="44.37515" lon="5.45958">
        <ele>604.2</ele>
        <time>2019-06-01T15:35:17Z</time>
      </trkpt>
      <trkpt lat="44.37523" lon="5.45967">
        <ele>604.5</ele>
        <time>2019-06-01T15:35:25Z</time>
      </trkpt>
      <trkpt lat="44.37529" lon="5.45979">
        <ele>604.7</ele>
        <time>2019-06-01T15:35:32Z</time>
      </trkpt>
      <trkpt lat="44.37533" lon="5.4599">
        <ele>604.8</ele>
        <time>2019-06-01T15:35:39Z</time>
      </trkpt>
      <trkpt lat="44.37539" lon="5.46001">
        <ele>604.9</ele>
        <time>2019-06-01T15:35:46Z</time>
      </trkpt>
      <trkpt lat="44.37546" lon="5.4601">
        <ele>604.7</ele>
        <time>2019-06-01T15:35:53Z</time>
      </trkpt>
      <trkpt lat="44.37556" lon="5.46016">
        <ele>604.4</ele>
        <time>2019-06-01T15:36:00Z</time>
      </trkpt>
      <trkpt lat="44.37565" lon="5.46021">
        <ele>604.3</ele>
        <time>2019-06-01T15:36:07Z</time>
      </trkpt>
      <trkpt lat="44.37575" lon="5.46025">
        <ele>604.2</ele>
        <time>2019-06-01T15:36:14Z</time>
      </trkpt>
      <trkpt lat="44.37584" lon="5.46029">
        <ele>604.1</ele>
        <time>2019-06-01T15:36:21Z</time>
      </trkpt>
      <trkpt lat="44.37593" lon="5.46036">
        <ele>603.9</ele>
        <time>2019-06-01T15:36:28Z</time>
      </trkpt>
      <trkpt lat="44.37602" lon="5.46041">
        <ele>603.9</ele>
        <time>2019-06-01T15:36:33Z</time>
      </trkpt>
      <trkpt lat="44.37611" lon="5.46045">
        <ele>603.9</ele>
        <time>2019-06-01T15:36:39Z</time>
      </trkpt>
      <trkpt lat="44.37619" lon="5.46051">
        <ele>604</ele>
        <time>2019-06-01T15:36:45Z</time>
      </trkpt>
      <trkpt lat="44.37627" lon="5.46057">
        <ele>604.1</ele>
        <time>2019-06-01T15:36:51Z</time>
      </trkpt>
      <trkpt lat="44.37636" lon="5.46065">
        <ele>604.2</ele>
        <time>2019-06-01T15:36:57Z</time>
      </trkpt>
      <trkpt lat="44.37645" lon="5.46073">
        <ele>604.3</ele>
        <time>2019-06-01T15:37:03Z</time>
      </trkpt>
      <trkpt lat="44.37653" lon="5.46081">
        <ele>604.3</ele>
        <time>2019-06-01T15:37:09Z</time>
      </trkpt>
      <trkpt lat="44.37662" lon="5.46088">
        <ele>604.2</ele>
        <time>2019-06-01T15:37:17Z</time>
      </trkpt>
      <trkpt lat="44.3767" lon="5.46095">
        <ele>604.2</ele>
        <time>2019-06-01T15:37:23Z</time>
      </trkpt>
      <trkpt lat="44.37679" lon="5.46098">
        <ele>604.1</ele>
        <time>2019-06-01T15:37:29Z</time>
      </trkpt>
      <trkpt lat="44.37689" lon="5.46101">
        <ele>604.2</ele>
        <time>2019-06-01T15:37:35Z</time>
      </trkpt>
      <trkpt lat="44.37701" lon="5.46103">
        <ele>604.2</ele>
        <time>2019-06-01T15:37:38Z</time>
      </trkpt>
      <trkpt lat="44.37713" lon="5.46107">
        <ele>604.5</ele>
        <time>2019-06-01T15:37:41Z</time>
      </trkpt>
      <trkpt lat="44.37726" lon="5.46112">
        <ele>604.7</ele>
        <time>2019-06-01T15:37:44Z</time>
      </trkpt>
      <trkpt lat="44.37734" lon="5.46115">
        <ele>605</ele>
        <time>2019-06-01T15:37:46Z</time>
      </trkpt>
      <trkpt lat="44.37747" lon="5.46121">
        <ele>605.5</ele>
        <time>2019-06-01T15:37:49Z</time>
      </trkpt>
      <trkpt lat="44.3776" lon="5.46127">
        <ele>605.8</ele>
        <time>2019-06-01T15:37:52Z</time>
      </trkpt>
      <trkpt lat="44.37768" lon="5.4613">
        <ele>606.1</ele>
        <time>2019-06-01T15:37:55Z</time>
      </trkpt>
      <trkpt lat="44.37778" lon="5.4613">
        <ele>606.5</ele>
        <time>2019-06-01T15:37:58Z</time>
      </trkpt>
      <trkpt lat="44.37787" lon="5.46129">
        <ele>607</ele>
        <time>2019-06-01T15:38:03Z</time>
      </trkpt>
      <trkpt lat="44.37796" lon="5.46125">
        <ele>607.5</ele>
        <time>2019-06-01T15:38:09Z</time>
      </trkpt>
      <trkpt lat="44.37805" lon="5.46121">
        <ele>607.7</ele>
        <time>2019-06-01T15:38:16Z</time>
      </trkpt>
      <trkpt lat="44.37815" lon="5.46116">
        <ele>607.7</ele>
        <time>2019-06-01T15:38:23Z</time>
      </trkpt>
      <trkpt lat="44.37824" lon="5.46113">
        <ele>607.7</ele>
        <time>2019-06-01T15:38:30Z</time>
      </trkpt>
      <trkpt lat="44.37834" lon="5.46111">
        <ele>607.6</ele>
        <time>2019-06-01T15:38:37Z</time>
      </trkpt>
      <trkpt lat="44.37844" lon="5.46111">
        <ele>607.6</ele>
        <time>2019-06-01T15:38:44Z</time>
      </trkpt>
      <trkpt lat="44.37854" lon="5.46111">
        <ele>607.6</ele>
        <time>2019-06-01T15:38:51Z</time>
      </trkpt>
      <trkpt lat="44.37865" lon="5.46112">
        <ele>607.7</ele>
        <time>2019-06-01T15:38:58Z</time>
      </trkpt>
      <trkpt lat="44.37875" lon="5.46111">
        <ele>607.7</ele>
        <time>2019-06-01T15:39:05Z</time>
      </trkpt>
      <trkpt lat="44.37885" lon="5.4611">
        <ele>607.7</ele>
        <time>2019-06-01T15:39:12Z</time>
      </trkpt>
      <trkpt lat="44.37895" lon="5.46113">
        <ele>607.7</ele>
        <time>2019-06-01T15:39:19Z</time>
      </trkpt>
      <trkpt lat="44.37903" lon="5.46121">
        <ele>607.7</ele>
        <time>2019-06-01T15:39:26Z</time>
      </trkpt>
      <trkpt lat="44.3791" lon="5.4613">
        <ele>607.5</ele>
        <time>2019-06-01T15:39:32Z</time>
      </trkpt>
      <trkpt lat="44.37915" lon="5.46141">
        <ele>606.9</ele>
        <time>2019-06-01T15:39:39Z</time>
      </trkpt>
      <trkpt lat="44.37922" lon="5.46151">
        <ele>606.4</ele>
        <time>2019-06-01T15:39:46Z</time>
      </trkpt>
      <trkpt lat="44.37929" lon="5.46159">
        <ele>606.2</ele>
        <time>2019-06-01T15:39:52Z</time>
      </trkpt>
      <trkpt lat="44.37938" lon="5.46164">
        <ele>606</ele>
        <time>2019-06-01T15:39:58Z</time>
      </trkpt>
      <trkpt lat="44.37948" lon="5.46166">
        <ele>605.9</ele>
        <time>2019-06-01T15:40:05Z</time>
      </trkpt>
      <trkpt lat="44.37958" lon="5.46168">
        <ele>605.9</ele>
        <time>2019-06-01T15:40:12Z</time>
      </trkpt>
      <trkpt lat="44.37967" lon="5.46169">
        <ele>606</ele>
        <time>2019-06-01T15:40:18Z</time>
      </trkpt>
      <trkpt lat="44.37978" lon="5.46173">
        <ele>606.1</ele>
        <time>2019-06-01T15:40:25Z</time>
      </trkpt>
      <trkpt lat="44.37986" lon="5.46177">
        <ele>606.5</ele>
        <time>2019-06-01T15:40:31Z</time>
      </trkpt>
      <trkpt lat="44.37995" lon="5.46181">
        <ele>606.7</ele>
        <time>2019-06-01T15:40:37Z</time>
      </trkpt>
      <trkpt lat="44.38003" lon="5.46187">
        <ele>606.9</ele>
        <time>2019-06-01T15:40:43Z</time>
      </trkpt>
      <trkpt lat="44.38012" lon="5.46195">
        <ele>607.1</ele>
        <time>2019-06-01T15:40:50Z</time>
      </trkpt>
      <trkpt lat="44.3802" lon="5.46203">
        <ele>607.5</ele>
        <time>2019-06-01T15:40:57Z</time>
      </trkpt>
      <trkpt lat="44.38028" lon="5.46213">
        <ele>607.9</ele>
        <time>2019-06-01T15:41:04Z</time>
      </trkpt>
      <trkpt lat="44.38037" lon="5.4622">
        <ele>608.2</ele>
        <time>2019-06-01T15:41:11Z</time>
      </trkpt>
      <trkpt lat="44.38046" lon="5.46225">
        <ele>608.4</ele>
        <time>2019-06-01T15:41:18Z</time>
      </trkpt>
      <trkpt lat="44.38055" lon="5.4623">
        <ele>608.5</ele>
        <time>2019-06-01T15:41:24Z</time>
      </trkpt>
      <trkpt lat="44.38063" lon="5.46237">
        <ele>608.7</ele>
        <time>2019-06-01T15:41:30Z</time>
      </trkpt>
      <trkpt lat="44.38073" lon="5.46243">
        <ele>608.9</ele>
        <time>2019-06-01T15:41:36Z</time>
      </trkpt>
      <trkpt lat="44.38081" lon="5.4625">
        <ele>609.2</ele>
        <time>2019-06-01T15:41:42Z</time>
      </trkpt>
      <trkpt lat="44.38087" lon="5.46258">
        <ele>609.8</ele>
        <time>2019-06-01T15:41:48Z</time>
      </trkpt>
      <trkpt lat="44.38095" lon="5.46267">
        <ele>610.2</ele>
        <time>2019-06-01T15:41:54Z</time>
      </trkpt>
      <trkpt lat="44.38103" lon="5.46273">
        <ele>610.4</ele>
        <time>2019-06-01T15:42:00Z</time>
      </trkpt>
      <trkpt lat="44.38112" lon="5.46282">
        <ele>610.6</ele>
        <time>2019-06-01T15:42:07Z</time>
      </trkpt>
      <trkpt lat="44.38119" lon="5.46289">
        <ele>610.9</ele>
        <time>2019-06-01T15:42:13Z</time>
      </trkpt>
      <trkpt lat="44.38127" lon="5.46296">
        <ele>611.1</ele>
        <time>2019-06-01T15:42:19Z</time>
      </trkpt>
      <trkpt lat="44.38134" lon="5.46303">
        <ele>611.5</ele>
        <time>2019-06-01T15:42:25Z</time>
      </trkpt>
      <trkpt lat="44.38142" lon="5.46311">
        <ele>611.9</ele>
        <time>2019-06-01T15:42:31Z</time>
      </trkpt>
      <trkpt lat="44.38151" lon="5.46319">
        <ele>612.2</ele>
        <time>2019-06-01T15:42:37Z</time>
      </trkpt>
      <trkpt lat="44.3816" lon="5.46325">
        <ele>612.5</ele>
        <time>2019-06-01T15:42:43Z</time>
      </trkpt>
      <trkpt lat="44.38168" lon="5.4633">
        <ele>612.9</ele>
        <time>2019-06-01T15:42:49Z</time>
      </trkpt>
      <trkpt lat="44.38174" lon="5.4632">
        <ele>613.3</ele>
        <time>2019-06-01T15:42:58Z</time>
      </trkpt>
      <trkpt lat="44.38178" lon="5.46309">
        <ele>613.1</ele>
        <time>2019-06-01T15:43:20Z</time>
      </trkpt>
      <trkpt lat="44.38183" lon="5.46297">
        <ele>613.1</ele>
        <time>2019-06-01T15:43:32Z</time>
      </trkpt>
      <trkpt lat="44.38189" lon="5.46287">
        <ele>613.1</ele>
        <time>2019-06-01T15:43:42Z</time>
      </trkpt>
      <trkpt lat="44.38198" lon="5.46281">
        <ele>613.1</ele>
        <time>2019-06-01T15:43:49Z</time>
      </trkpt>
      <trkpt lat="44.38207" lon="5.46275">
        <ele>612.7</ele>
        <time>2019-06-01T15:43:57Z</time>
      </trkpt>
      <trkpt lat="44.38214" lon="5.46266">
        <ele>612.5</ele>
        <time>2019-06-01T15:44:08Z</time>
      </trkpt>
      <trkpt lat="44.38221" lon="5.46257">
        <ele>612.3</ele>
        <time>2019-06-01T15:44:22Z</time>
      </trkpt>
      <trkpt lat="44.38229" lon="5.46251">
        <ele>611.8</ele>
        <time>2019-06-01T15:44:50Z</time>
      </trkpt>
      <trkpt lat="44.38236" lon="5.46243">
        <ele>612.2</ele>
        <time>2019-06-01T15:45:08Z</time>
      </trkpt>
      <trkpt lat="44.38238" lon="5.4623">
        <ele>612.2</ele>
        <time>2019-06-01T15:45:18Z</time>
      </trkpt>
      <trkpt lat="44.38245" lon="5.46221">
        <ele>612</ele>
        <time>2019-06-01T15:46:58Z</time>
      </trkpt>
      <trkpt lat="44.38249" lon="5.46209">
        <ele>611.8</ele>
        <time>2019-06-01T15:47:07Z</time>
      </trkpt>
      <trkpt lat="44.3825" lon="5.46196">
        <ele>612</ele>
        <time>2019-06-01T15:47:15Z</time>
      </trkpt>
      <trkpt lat="44.38251" lon="5.46184">
        <ele>612</ele>
        <time>2019-06-01T15:47:22Z</time>
      </trkpt>
      <trkpt lat="44.38253" lon="5.46169">
        <ele>611.9</ele>
        <time>2019-06-01T15:47:29Z</time>
      </trkpt>
      <trkpt lat="44.38253" lon="5.46156">
        <ele>611.8</ele>
        <time>2019-06-01T15:47:35Z</time>
      </trkpt>
      <trkpt lat="44.38253" lon="5.46143">
        <ele>611.8</ele>
        <time>2019-06-01T15:47:41Z</time>
      </trkpt>
      <trkpt lat="44.38254" lon="5.46129">
        <ele>611.8</ele>
        <time>2019-06-01T15:47:48Z</time>
      </trkpt>
      <trkpt lat="44.38257" lon="5.46117">
        <ele>611.9</ele>
        <time>2019-06-01T15:47:55Z</time>
      </trkpt>
      <trkpt lat="44.38262" lon="5.46106">
        <ele>612.3</ele>
        <time>2019-06-01T15:48:03Z</time>
      </trkpt>
      <trkpt lat="44.38267" lon="5.46094">
        <ele>613.1</ele>
        <time>2019-06-01T15:48:11Z</time>
      </trkpt>
      <trkpt lat="44.38272" lon="5.46083">
        <ele>613.8</ele>
        <time>2019-06-01T15:48:19Z</time>
      </trkpt>
      <trkpt lat="44.38277" lon="5.46072">
        <ele>614.6</ele>
        <time>2019-06-01T15:48:28Z</time>
      </trkpt>
      <trkpt lat="44.38282" lon="5.46061">
        <ele>615.5</ele>
        <time>2019-06-01T15:48:37Z</time>
      </trkpt>
      <trkpt lat="44.38287" lon="5.46048">
        <ele>616.4</ele>
        <time>2019-06-01T15:48:45Z</time>
      </trkpt>
      <trkpt lat="44.38292" lon="5.46036">
        <ele>617.1</ele>
        <time>2019-06-01T15:48:52Z</time>
      </trkpt>
      <trkpt lat="44.38296" lon="5.46023">
        <ele>617.9</ele>
        <time>2019-06-01T15:48:59Z</time>
      </trkpt>
      <trkpt lat="44.383" lon="5.46011">
        <ele>618.9</ele>
        <time>2019-06-01T15:49:06Z</time>
      </trkpt>
      <trkpt lat="44.38304" lon="5.45998">
        <ele>620.1</ele>
        <time>2019-06-01T15:49:13Z</time>
      </trkpt>
      <trkpt lat="44.38307" lon="5.45986">
        <ele>620.9</ele>
        <time>2019-06-01T15:49:20Z</time>
      </trkpt>
      <trkpt lat="44.38312" lon="5.45974">
        <ele>621.8</ele>
        <time>2019-06-01T15:49:27Z</time>
      </trkpt>
      <trkpt lat="44.38316" lon="5.45963">
        <ele>622.3</ele>
        <time>2019-06-01T15:49:34Z</time>
      </trkpt>
      <trkpt lat="44.3832" lon="5.4595">
        <ele>622.9</ele>
        <time>2019-06-01T15:49:42Z</time>
      </trkpt>
      <trkpt lat="44.38324" lon="5.45937">
        <ele>623.4</ele>
        <time>2019-06-01T15:49:50Z</time>
      </trkpt>
      <trkpt lat="44.38323" lon="5.45924">
        <ele>623.6</ele>
        <time>2019-06-01T15:49:59Z</time>
      </trkpt>
      <trkpt lat="44.38316" lon="5.45915">
        <ele>623.4</ele>
        <time>2019-06-01T15:50:50Z</time>
      </trkpt>
      <trkpt lat="44.38321" lon="5.45905">
        <ele>621.9</ele>
        <time>2019-06-01T15:57:55Z</time>
      </trkpt>
      <trkpt lat="44.38316" lon="5.45909">
        <ele>621.8</ele>
        <time>2019-06-01T16:03:48Z</time>
      </trkpt>
    </trkseg>
  </trk>
</gpx>